<?xml version='1.0' encoding='UTF-8'?><gpx version="1.1" creator="JPX - https://github.com/jenetics/jpx" xmlns="http://www.topografix.com/GPX/1/1"><trk><trkseg><trkpt lat="16.2112746" lon="-61.4449809"><ele>51.0</ele><time>2026-04-18T10:40:10.976Z</time></trkpt><trkpt lat="16.2113016" lon="-61.4449113"><ele>51.0</ele><time>2026-04-18T10:41:14.987Z</time></trkpt><trkpt lat="16.2113309" lon="-61.4448372"><ele>51.0</ele><time>2026-04-18T10:41:19.004Z</time></trkpt><trkpt lat="16.2114224" lon="-61.4447553"><ele>51.0</ele><time>2026-04-18T10:41:20.996Z</time></trkpt><trkpt lat="16.2115353" lon="-61.4446933"><ele>51.0</ele><time>2026-04-18T10:41:21.973Z</time></trkpt><trkpt lat="16.2116452" lon="-61.4446397"><ele>52.0</ele><time>2026-04-18T10:41:22.987Z</time></trkpt><trkpt lat="16.211741" lon="-61.4445826"><ele>53.0</ele><time>2026-04-18T10:41:23.999Z</time></trkpt><trkpt lat="16.2118313" lon="-61.444523"><ele>53.99999999999999</ele><time>2026-04-18T10:41:25.002Z</time></trkpt><trkpt lat="16.2119036" lon="-61.4444487"><ele>55.0</ele><time>2026-04-18T10:41:25.978Z</time></trkpt><trkpt lat="16.2119636" lon="-61.4443661"><ele>56.0</ele><time>2026-04-18T10:41:26.994Z</time></trkpt><trkpt lat="16.2120198" lon="-61.4442859"><ele>56.0</ele><time>2026-04-18T10:41:27.994Z</time></trkpt><trkpt lat="16.2120847" lon="-61.4442139"><ele>55.99999999999999</ele><time>2026-04-18T10:41:28.998Z</time></trkpt><trkpt lat="16.2121577" lon="-61.4441519"><ele>55.99999999999999</ele><time>2026-04-18T10:41:30.004Z</time></trkpt><trkpt lat="16.2122348" lon="-61.4440958"><ele>56.0</ele><time>2026-04-18T10:41:30.985Z</time></trkpt><trkpt lat="16.212315" lon="-61.4440434"><ele>56.0</ele><time>2026-04-18T10:41:32.001Z</time></trkpt><trkpt lat="16.2123954" lon="-61.4439946"><ele>56.16666666666667</ele><time>2026-04-18T10:41:33Z</time></trkpt><trkpt lat="16.2124723" lon="-61.4439467"><ele>56.333333333333336</ele><time>2026-04-18T10:41:34Z</time></trkpt><trkpt lat="16.2125437" lon="-61.4439004"><ele>56.5</ele><time>2026-04-18T10:41:35.003Z</time></trkpt><trkpt lat="16.2126174" lon="-61.4438619"><ele>56.66666666666667</ele><time>2026-04-18T10:41:36.002Z</time></trkpt><trkpt lat="16.2126965" lon="-61.4438236"><ele>56.833333333333336</ele><time>2026-04-18T10:41:37.003Z</time></trkpt><trkpt lat="16.2127802" lon="-61.4437908"><ele>57.0</ele><time>2026-04-18T10:41:37.993Z</time></trkpt><trkpt lat="16.212868" lon="-61.4437719"><ele>58.0</ele><time>2026-04-18T10:41:38.991Z</time></trkpt><trkpt lat="16.212964" lon="-61.4437615"><ele>59.0</ele><time>2026-04-18T10:41:39.997Z</time></trkpt><trkpt lat="16.2130663" lon="-61.4437541"><ele>60.0</ele><time>2026-04-18T10:41:40.998Z</time></trkpt><trkpt lat="16.2131654" lon="-61.4437433"><ele>61.0</ele><time>2026-04-18T10:41:41.99Z</time></trkpt><trkpt lat="16.2132636" lon="-61.4437339"><ele>62.0</ele><time>2026-04-18T10:41:43.009Z</time></trkpt><trkpt lat="16.213359" lon="-61.443734"><ele>62.0</ele><time>2026-04-18T10:41:43.999Z</time></trkpt><trkpt lat="16.2134559" lon="-61.4437441"><ele>62.0</ele><time>2026-04-18T10:41:45.009Z</time></trkpt><trkpt lat="16.2135475" lon="-61.4437585"><ele>62.0</ele><time>2026-04-18T10:41:46.002Z</time></trkpt><trkpt lat="16.2136406" lon="-61.4437772"><ele>62.0</ele><time>2026-04-18T10:41:46.987Z</time></trkpt><trkpt lat="16.2137309" lon="-61.4438053"><ele>62.0</ele><time>2026-04-18T10:41:47.993Z</time></trkpt><trkpt lat="16.2138217" lon="-61.4438309"><ele>60.6</ele><time>2026-04-18T10:41:48.997Z</time></trkpt><trkpt lat="16.2139174" lon="-61.443856"><ele>59.2</ele><time>2026-04-18T10:41:50.006Z</time></trkpt><trkpt lat="16.214013" lon="-61.4438809"><ele>57.8</ele><time>2026-04-18T10:41:51Z</time></trkpt><trkpt lat="16.2141109" lon="-61.4439076"><ele>56.4</ele><time>2026-04-18T10:41:52.01Z</time></trkpt><trkpt lat="16.2142069" lon="-61.4439327"><ele>55.0</ele><time>2026-04-18T10:41:52.992Z</time></trkpt><trkpt lat="16.2143022" lon="-61.4439596"><ele>55.0</ele><time>2026-04-18T10:41:53.966Z</time></trkpt><trkpt lat="16.2143946" lon="-61.4439886"><ele>55.0</ele><time>2026-04-18T10:41:54.995Z</time></trkpt><trkpt lat="16.2144869" lon="-61.4440127"><ele>55.0</ele><time>2026-04-18T10:41:56Z</time></trkpt><trkpt lat="16.2145769" lon="-61.4440213"><ele>55.0</ele><time>2026-04-18T10:41:56.967Z</time></trkpt><trkpt lat="16.2146674" lon="-61.4440106"><ele>55.0</ele><time>2026-04-18T10:41:58.003Z</time></trkpt><trkpt lat="16.2147574" lon="-61.443999"><ele>54.83333333333333</ele><time>2026-04-18T10:41:59.017Z</time></trkpt><trkpt lat="16.214841" lon="-61.4439886"><ele>54.666666666666664</ele><time>2026-04-18T10:42:00.01Z</time></trkpt><trkpt lat="16.2149196" lon="-61.4439884"><ele>54.5</ele><time>2026-04-18T10:42:00.997Z</time></trkpt><trkpt lat="16.2150064" lon="-61.4440043"><ele>54.33333333333333</ele><time>2026-04-18T10:42:02Z</time></trkpt><trkpt lat="16.2150968" lon="-61.4440349"><ele>54.166666666666664</ele><time>2026-04-18T10:42:02.987Z</time></trkpt><trkpt lat="16.2151924" lon="-61.4440636"><ele>54.0</ele><time>2026-04-18T10:42:03.994Z</time></trkpt><trkpt lat="16.2152852" lon="-61.4440941"><ele>54.0</ele><time>2026-04-18T10:42:05.001Z</time></trkpt><trkpt lat="16.2153755" lon="-61.4441202"><ele>54.0</ele><time>2026-04-18T10:42:06.009Z</time></trkpt><trkpt lat="16.2154636" lon="-61.4441335"><ele>54.0</ele><time>2026-04-18T10:42:06.98Z</time></trkpt><trkpt lat="16.2155475" lon="-61.4441386"><ele>54.0</ele><time>2026-04-18T10:42:08.006Z</time></trkpt><trkpt lat="16.2156268" lon="-61.4441332"><ele>54.0</ele><time>2026-04-18T10:42:08.999Z</time></trkpt><trkpt lat="16.2157048" lon="-61.4441125"><ele>54.0</ele><time>2026-04-18T10:42:09.999Z</time></trkpt><trkpt lat="16.2157819" lon="-61.4440795"><ele>54.42857142857143</ele><time>2026-04-18T10:42:10.985Z</time></trkpt><trkpt lat="16.2158461" lon="-61.4440354"><ele>54.857142857142854</ele><time>2026-04-18T10:42:12.006Z</time></trkpt><trkpt lat="16.2158974" lon="-61.443985"><ele>55.285714285714285</ele><time>2026-04-18T10:42:13.003Z</time></trkpt><trkpt lat="16.2159466" lon="-61.443929"><ele>55.71428571428571</ele><time>2026-04-18T10:42:14.01Z</time></trkpt><trkpt lat="16.2159962" lon="-61.4438696"><ele>56.14285714285714</ele><time>2026-04-18T10:42:15.011Z</time></trkpt><trkpt lat="16.2160386" lon="-61.4438078"><ele>56.57142857142857</ele><time>2026-04-18T10:42:16.007Z</time></trkpt><trkpt lat="16.2160711" lon="-61.4437366"><ele>57.0</ele><time>2026-04-18T10:42:16.996Z</time></trkpt><trkpt lat="16.2160915" lon="-61.4436508"><ele>57.0</ele><time>2026-04-18T10:42:17.993Z</time></trkpt><trkpt lat="16.216105" lon="-61.4435555"><ele>57.0</ele><time>2026-04-18T10:42:19Z</time></trkpt><trkpt lat="16.2161173" lon="-61.4434575"><ele>57.0</ele><time>2026-04-18T10:42:20.018Z</time></trkpt><trkpt lat="16.2161309" lon="-61.4433617"><ele>57.0</ele><time>2026-04-18T10:42:20.995Z</time></trkpt><trkpt lat="16.2161336" lon="-61.4432695"><ele>57.0</ele><time>2026-04-18T10:42:22.002Z</time></trkpt><trkpt lat="16.2161315" lon="-61.4431959"><ele>57.0</ele><time>2026-04-18T10:42:23.009Z</time></trkpt><trkpt lat="16.2161125" lon="-61.4430965"><ele>57.0</ele><time>2026-04-18T10:42:25.01Z</time></trkpt><trkpt lat="16.2162353" lon="-61.4431906"><ele>57.0</ele><time>2026-04-18T10:42:30.001Z</time></trkpt><trkpt lat="16.2163062" lon="-61.4433111"><ele>57.0</ele><time>2026-04-18T10:42:31.002Z</time></trkpt><trkpt lat="16.2163731" lon="-61.4434461"><ele>57.0</ele><time>2026-04-18T10:42:31.996Z</time></trkpt><trkpt lat="16.2164127" lon="-61.443582"><ele>57.0</ele><time>2026-04-18T10:42:33Z</time></trkpt><trkpt lat="16.2164166" lon="-61.4437158"><ele>57.0</ele><time>2026-04-18T10:42:33.995Z</time></trkpt><trkpt lat="16.2163904" lon="-61.4438419"><ele>57.0</ele><time>2026-04-18T10:42:35.008Z</time></trkpt><trkpt lat="16.2163567" lon="-61.4439665"><ele>57.0</ele><time>2026-04-18T10:42:35.995Z</time></trkpt><trkpt lat="16.2163238" lon="-61.4440948"><ele>57.33333333333333</ele><time>2026-04-18T10:42:37.001Z</time></trkpt><trkpt lat="16.2162907" lon="-61.4442341"><ele>57.666666666666664</ele><time>2026-04-18T10:42:38.009Z</time></trkpt><trkpt lat="16.216258" lon="-61.4443914"><ele>58.0</ele><time>2026-04-18T10:42:39Z</time></trkpt><trkpt lat="16.216218" lon="-61.4445595"><ele>59.33333333333333</ele><time>2026-04-18T10:42:39.988Z</time></trkpt><trkpt lat="16.2161801" lon="-61.4447307"><ele>60.66666666666667</ele><time>2026-04-18T10:42:41.001Z</time></trkpt><trkpt lat="16.2161523" lon="-61.4449013"><ele>62.0</ele><time>2026-04-18T10:42:41.997Z</time></trkpt><trkpt lat="16.2161408" lon="-61.4450667"><ele>62.0</ele><time>2026-04-18T10:42:42.999Z</time></trkpt><trkpt lat="16.2161456" lon="-61.4452199"><ele>62.0</ele><time>2026-04-18T10:42:43.995Z</time></trkpt><trkpt lat="16.2161757" lon="-61.4453538"><ele>62.0</ele><time>2026-04-18T10:42:44.995Z</time></trkpt><trkpt lat="16.2162369" lon="-61.4454654"><ele>62.0</ele><time>2026-04-18T10:42:45.985Z</time></trkpt><trkpt lat="16.2163221" lon="-61.4455708"><ele>61.25</ele><time>2026-04-18T10:42:46.986Z</time></trkpt><trkpt lat="16.2164218" lon="-61.4456594"><ele>60.5</ele><time>2026-04-18T10:42:47.998Z</time></trkpt><trkpt lat="16.2165324" lon="-61.4457331"><ele>59.75</ele><time>2026-04-18T10:42:48.998Z</time></trkpt><trkpt lat="16.216652" lon="-61.4458002"><ele>59.0</ele><time>2026-04-18T10:42:49.997Z</time></trkpt><trkpt lat="16.2167736" lon="-61.4458778"><ele>61.5</ele><time>2026-04-18T10:42:51Z</time></trkpt><trkpt lat="16.2169" lon="-61.4459495"><ele>64.0</ele><time>2026-04-18T10:42:52.001Z</time></trkpt><trkpt lat="16.2170276" lon="-61.4460128"><ele>66.5</ele><time>2026-04-18T10:42:52.986Z</time></trkpt><trkpt lat="16.2171517" lon="-61.4460781"><ele>69.0</ele><time>2026-04-18T10:42:53.996Z</time></trkpt><trkpt lat="16.2172724" lon="-61.4461555"><ele>69.25</ele><time>2026-04-18T10:42:55.014Z</time></trkpt><trkpt lat="16.2173863" lon="-61.44625"><ele>69.5</ele><time>2026-04-18T10:42:55.998Z</time></trkpt><trkpt lat="16.2174858" lon="-61.4463558"><ele>69.75</ele><time>2026-04-18T10:42:56.995Z</time></trkpt><trkpt lat="16.2175528" lon="-61.4464804"><ele>70.0</ele><time>2026-04-18T10:42:58Z</time></trkpt><trkpt lat="16.2175992" lon="-61.446617"><ele>70.0</ele><time>2026-04-18T10:42:59.007Z</time></trkpt><trkpt lat="16.2176251" lon="-61.446754"><ele>70.0</ele><time>2026-04-18T10:42:59.963Z</time></trkpt><trkpt lat="16.2176215" lon="-61.446901"><ele>70.0</ele><time>2026-04-18T10:43:01.003Z</time></trkpt><trkpt lat="16.217594" lon="-61.4470435"><ele>70.0</ele><time>2026-04-18T10:43:02.005Z</time></trkpt><trkpt lat="16.2175534" lon="-61.4471765"><ele>70.25</ele><time>2026-04-18T10:43:02.992Z</time></trkpt><trkpt lat="16.2174973" lon="-61.4473048"><ele>70.5</ele><time>2026-04-18T10:43:03.989Z</time></trkpt><trkpt lat="16.2174488" lon="-61.4474448"><ele>70.75</ele><time>2026-04-18T10:43:04.969Z</time></trkpt><trkpt lat="16.2174019" lon="-61.4475881"><ele>71.0</ele><time>2026-04-18T10:43:05.962Z</time></trkpt><trkpt lat="16.2173525" lon="-61.4477313"><ele>70.75</ele><time>2026-04-18T10:43:06.987Z</time></trkpt><trkpt lat="16.2172983" lon="-61.4478746"><ele>70.5</ele><time>2026-04-18T10:43:08.005Z</time></trkpt><trkpt lat="16.2172485" lon="-61.4480227"><ele>70.25</ele><time>2026-04-18T10:43:09.003Z</time></trkpt><trkpt lat="16.2172075" lon="-61.4481619"><ele>70.0</ele><time>2026-04-18T10:43:10.002Z</time></trkpt><trkpt lat="16.217176" lon="-61.4482958"><ele>69.75</ele><time>2026-04-18T10:43:10.997Z</time></trkpt><trkpt lat="16.2171513" lon="-61.4484385"><ele>69.5</ele><time>2026-04-18T10:43:12.009Z</time></trkpt><trkpt lat="16.2171407" lon="-61.4485854"><ele>69.25</ele><time>2026-04-18T10:43:13.001Z</time></trkpt><trkpt lat="16.2171347" lon="-61.4487413"><ele>69.0</ele><time>2026-04-18T10:43:14.006Z</time></trkpt><trkpt lat="16.2171255" lon="-61.4488982"><ele>71.0</ele><time>2026-04-18T10:43:15.012Z</time></trkpt><trkpt lat="16.2171013" lon="-61.4490512"><ele>73.0</ele><time>2026-04-18T10:43:16.002Z</time></trkpt><trkpt lat="16.2170685" lon="-61.44919"><ele>75.0</ele><time>2026-04-18T10:43:16.989Z</time></trkpt><trkpt lat="16.2170352" lon="-61.4493219"><ele>77.0</ele><time>2026-04-18T10:43:18.003Z</time></trkpt><trkpt lat="16.2170039" lon="-61.4494489"><ele>77.0</ele><time>2026-04-18T10:43:19.016Z</time></trkpt><trkpt lat="16.2169826" lon="-61.4495767"><ele>77.0</ele><time>2026-04-18T10:43:20.004Z</time></trkpt><trkpt lat="16.2169836" lon="-61.4497073"><ele>77.0</ele><time>2026-04-18T10:43:20.997Z</time></trkpt><trkpt lat="16.2170211" lon="-61.4498411"><ele>77.0</ele><time>2026-04-18T10:43:21.995Z</time></trkpt><trkpt lat="16.2170598" lon="-61.449975"><ele>75.0</ele><time>2026-04-18T10:43:23.004Z</time></trkpt><trkpt lat="16.217095" lon="-61.4501017"><ele>73.0</ele><time>2026-04-18T10:43:23.999Z</time></trkpt><trkpt lat="16.217113" lon="-61.450228"><ele>71.0</ele><time>2026-04-18T10:43:24.991Z</time></trkpt><trkpt lat="16.2171082" lon="-61.4503569"><ele>69.0</ele><time>2026-04-18T10:43:25.991Z</time></trkpt><trkpt lat="16.2170797" lon="-61.450466"><ele>69.0</ele><time>2026-04-18T10:43:27.004Z</time></trkpt><trkpt lat="16.2170074" lon="-61.4505565"><ele>69.0</ele><time>2026-04-18T10:43:28.003Z</time></trkpt><trkpt lat="16.2168834" lon="-61.4506343"><ele>69.0</ele><time>2026-04-18T10:43:29.002Z</time></trkpt><trkpt lat="16.2167637" lon="-61.4507069"><ele>69.0</ele><time>2026-04-18T10:43:30.004Z</time></trkpt><trkpt lat="16.2166644" lon="-61.4507796"><ele>69.0</ele><time>2026-04-18T10:43:31.009Z</time></trkpt><trkpt lat="16.2165821" lon="-61.450867"><ele>69.0</ele><time>2026-04-18T10:43:32.001Z</time></trkpt><trkpt lat="16.2165194" lon="-61.4509647"><ele>69.0</ele><time>2026-04-18T10:43:32.999Z</time></trkpt><trkpt lat="16.2164787" lon="-61.4510757"><ele>69.0</ele><time>2026-04-18T10:43:33.992Z</time></trkpt><trkpt lat="16.2164536" lon="-61.451199"><ele>68.75</ele><time>2026-04-18T10:43:34.992Z</time></trkpt><trkpt lat="16.2164367" lon="-61.4513356"><ele>68.5</ele><time>2026-04-18T10:43:35.999Z</time></trkpt><trkpt lat="16.2164151" lon="-61.4514691"><ele>68.25</ele><time>2026-04-18T10:43:37.002Z</time></trkpt><trkpt lat="16.2163961" lon="-61.4516109"><ele>68.0</ele><time>2026-04-18T10:43:37.996Z</time></trkpt><trkpt lat="16.2163844" lon="-61.451755"><ele>68.0</ele><time>2026-04-18T10:43:38.996Z</time></trkpt><trkpt lat="16.2163926" lon="-61.4518823"><ele>68.0</ele><time>2026-04-18T10:43:39.994Z</time></trkpt><trkpt lat="16.2164256" lon="-61.4519947"><ele>68.0</ele><time>2026-04-18T10:43:41.004Z</time></trkpt><trkpt lat="16.2164803" lon="-61.4520877"><ele>68.0</ele><time>2026-04-18T10:43:41.987Z</time></trkpt><trkpt lat="16.2165537" lon="-61.4521826"><ele>69.0</ele><time>2026-04-18T10:43:42.996Z</time></trkpt><trkpt lat="16.216639" lon="-61.4522758"><ele>70.0</ele><time>2026-04-18T10:43:43.973Z</time></trkpt><trkpt lat="16.2167306" lon="-61.4523689"><ele>71.0</ele><time>2026-04-18T10:43:45.002Z</time></trkpt><trkpt lat="16.2168322" lon="-61.4524549"><ele>72.0</ele><time>2026-04-18T10:43:46.006Z</time></trkpt><trkpt lat="16.2169493" lon="-61.4525413"><ele>72.0</ele><time>2026-04-18T10:43:46.993Z</time></trkpt><trkpt lat="16.217075" lon="-61.4526256"><ele>72.0</ele><time>2026-04-18T10:43:48.036Z</time></trkpt><trkpt lat="16.2172014" lon="-61.4527074"><ele>72.0</ele><time>2026-04-18T10:43:48.987Z</time></trkpt><trkpt lat="16.2173183" lon="-61.4527895"><ele>72.0</ele><time>2026-04-18T10:43:49.989Z</time></trkpt><trkpt lat="16.2174281" lon="-61.4528755"><ele>70.5</ele><time>2026-04-18T10:43:50.981Z</time></trkpt><trkpt lat="16.2175363" lon="-61.4529726"><ele>69.0</ele><time>2026-04-18T10:43:51.976Z</time></trkpt><trkpt lat="16.2176455" lon="-61.453077"><ele>67.5</ele><time>2026-04-18T10:43:52.992Z</time></trkpt><trkpt lat="16.2177447" lon="-61.4531874"><ele>66.0</ele><time>2026-04-18T10:43:54.062Z</time></trkpt><trkpt lat="16.2178285" lon="-61.4532989"><ele>66.0</ele><time>2026-04-18T10:43:54.984Z</time></trkpt><trkpt lat="16.2179111" lon="-61.453401"><ele>66.0</ele><time>2026-04-18T10:43:56.001Z</time></trkpt><trkpt lat="16.2179897" lon="-61.4535028"><ele>66.0</ele><time>2026-04-18T10:43:57.002Z</time></trkpt><trkpt lat="16.2180492" lon="-61.4536014"><ele>66.0</ele><time>2026-04-18T10:43:58.043Z</time></trkpt><trkpt lat="16.2180896" lon="-61.4536737"><ele>66.0</ele><time>2026-04-18T10:43:59.045Z</time></trkpt><trkpt lat="16.2181555" lon="-61.4536755"><ele>65.83333333333333</ele><time>2026-04-18T10:44:02.041Z</time></trkpt><trkpt lat="16.2181807" lon="-61.4535901"><ele>65.66666666666667</ele><time>2026-04-18T10:44:03.062Z</time></trkpt><trkpt lat="16.2182356" lon="-61.4535256"><ele>65.5</ele><time>2026-04-18T10:44:03.982Z</time></trkpt><trkpt lat="16.2182866" lon="-61.4534626"><ele>65.33333333333334</ele><time>2026-04-18T10:44:04.97Z</time></trkpt><trkpt lat="16.2183536" lon="-61.4534015"><ele>65.16666666666667</ele><time>2026-04-18T10:44:05.99Z</time></trkpt><trkpt lat="16.2184402" lon="-61.4533568"><ele>65.0</ele><time>2026-04-18T10:44:06.975Z</time></trkpt><trkpt lat="16.2185506" lon="-61.4533443"><ele>65.0</ele><time>2026-04-18T10:44:07.984Z</time></trkpt><trkpt lat="16.2186609" lon="-61.4533168"><ele>65.0</ele><time>2026-04-18T10:44:08.971Z</time></trkpt><trkpt lat="16.2187632" lon="-61.4532813"><ele>65.0</ele><time>2026-04-18T10:44:09.975Z</time></trkpt><trkpt lat="16.2188823" lon="-61.4532437"><ele>65.0</ele><time>2026-04-18T10:44:10.987Z</time></trkpt><trkpt lat="16.2189918" lon="-61.4532024"><ele>63.4</ele><time>2026-04-18T10:44:11.985Z</time></trkpt><trkpt lat="16.219101" lon="-61.4531661"><ele>61.8</ele><time>2026-04-18T10:44:12.986Z</time></trkpt><trkpt lat="16.2192044" lon="-61.4531472"><ele>60.2</ele><time>2026-04-18T10:44:14.063Z</time></trkpt><trkpt lat="16.2193045" lon="-61.453132"><ele>58.6</ele><time>2026-04-18T10:44:14.983Z</time></trkpt><trkpt lat="16.2194001" lon="-61.4531334"><ele>57.0</ele><time>2026-04-18T10:44:16.03Z</time></trkpt><trkpt lat="16.2194978" lon="-61.4531838"><ele>57.0</ele><time>2026-04-18T10:44:17.051Z</time></trkpt><trkpt lat="16.2195827" lon="-61.4532776"><ele>57.0</ele><time>2026-04-18T10:44:18.044Z</time></trkpt><trkpt lat="16.2196673" lon="-61.4533807"><ele>57.0</ele><time>2026-04-18T10:44:18.973Z</time></trkpt><trkpt lat="16.2197671" lon="-61.4534852"><ele>57.0</ele><time>2026-04-18T10:44:19.991Z</time></trkpt><trkpt lat="16.2198676" lon="-61.4535938"><ele>57.25</ele><time>2026-04-18T10:44:20.994Z</time></trkpt><trkpt lat="16.219964" lon="-61.4536906"><ele>57.5</ele><time>2026-04-18T10:44:21.968Z</time></trkpt><trkpt lat="16.2200539" lon="-61.4537968"><ele>57.75</ele><time>2026-04-18T10:44:22.973Z</time></trkpt><trkpt lat="16.2201447" lon="-61.453909"><ele>58.0</ele><time>2026-04-18T10:44:23.99Z</time></trkpt><trkpt lat="16.2202391" lon="-61.4539975"><ele>56.75</ele><time>2026-04-18T10:44:24.992Z</time></trkpt><trkpt lat="16.2203264" lon="-61.4540995"><ele>55.5</ele><time>2026-04-18T10:44:25.999Z</time></trkpt><trkpt lat="16.2204265" lon="-61.4541917"><ele>54.25</ele><time>2026-04-18T10:44:27.031Z</time></trkpt><trkpt lat="16.2205272" lon="-61.4542771"><ele>53.0</ele><time>2026-04-18T10:44:27.996Z</time></trkpt><trkpt lat="16.2206309" lon="-61.454356"><ele>52.25</ele><time>2026-04-18T10:44:29.045Z</time></trkpt><trkpt lat="16.2207412" lon="-61.4544222"><ele>51.5</ele><time>2026-04-18T10:44:29.979Z</time></trkpt><trkpt lat="16.2208617" lon="-61.4544635"><ele>50.75</ele><time>2026-04-18T10:44:30.98Z</time></trkpt><trkpt lat="16.2209788" lon="-61.4544896"><ele>50.0</ele><time>2026-04-18T10:44:31.983Z</time></trkpt><trkpt lat="16.2211014" lon="-61.4545116"><ele>50.0</ele><time>2026-04-18T10:44:32.977Z</time></trkpt><trkpt lat="16.2212176" lon="-61.4545426"><ele>50.0</ele><time>2026-04-18T10:44:33.981Z</time></trkpt><trkpt lat="16.2213215" lon="-61.4545784"><ele>50.0</ele><time>2026-04-18T10:44:34.975Z</time></trkpt><trkpt lat="16.2214105" lon="-61.4546289"><ele>50.0</ele><time>2026-04-18T10:44:35.95Z</time></trkpt><trkpt lat="16.2214916" lon="-61.4547168"><ele>50.0</ele><time>2026-04-18T10:44:36.97Z</time></trkpt><trkpt lat="16.221571" lon="-61.4548313"><ele>47.75</ele><time>2026-04-18T10:44:37.984Z</time></trkpt><trkpt lat="16.2216401" lon="-61.4549647"><ele>45.5</ele><time>2026-04-18T10:44:38.975Z</time></trkpt><trkpt lat="16.221712" lon="-61.4550927"><ele>43.25</ele><time>2026-04-18T10:44:39.979Z</time></trkpt><trkpt lat="16.2217858" lon="-61.4552106"><ele>41.0</ele><time>2026-04-18T10:44:40.989Z</time></trkpt><trkpt lat="16.2218672" lon="-61.4553171"><ele>41.0</ele><time>2026-04-18T10:44:41.979Z</time></trkpt><trkpt lat="16.2219614" lon="-61.4554138"><ele>41.0</ele><time>2026-04-18T10:44:42.974Z</time></trkpt><trkpt lat="16.222073" lon="-61.4555033"><ele>41.0</ele><time>2026-04-18T10:44:44.05Z</time></trkpt><trkpt lat="16.2221838" lon="-61.455581"><ele>41.0</ele><time>2026-04-18T10:44:44.99Z</time></trkpt><trkpt lat="16.2222977" lon="-61.4556558"><ele>40.25</ele><time>2026-04-18T10:44:45.996Z</time></trkpt><trkpt lat="16.2224079" lon="-61.4557312"><ele>39.5</ele><time>2026-04-18T10:44:46.993Z</time></trkpt><trkpt lat="16.2225107" lon="-61.4558007"><ele>38.75</ele><time>2026-04-18T10:44:48.053Z</time></trkpt><trkpt lat="16.2226096" lon="-61.4558694"><ele>38.0</ele><time>2026-04-18T10:44:49.029Z</time></trkpt><trkpt lat="16.222702" lon="-61.4559308"><ele>38.0</ele><time>2026-04-18T10:44:49.98Z</time></trkpt><trkpt lat="16.2227879" lon="-61.4559494"><ele>38.0</ele><time>2026-04-18T10:44:50.978Z</time></trkpt><trkpt lat="16.2228607" lon="-61.4559541"><ele>38.0</ele><time>2026-04-18T10:44:51.984Z</time></trkpt><trkpt lat="16.2229231" lon="-61.4559359"><ele>38.0</ele><time>2026-04-18T10:44:53.046Z</time></trkpt><trkpt lat="16.2228718" lon="-61.4559792"><ele>38.0</ele><time>2026-04-18T10:44:59.028Z</time></trkpt><trkpt lat="16.2228267" lon="-61.4560369"><ele>38.0</ele><time>2026-04-18T10:45:09.978Z</time></trkpt><trkpt lat="16.2228166" lon="-61.4561252"><ele>38.0</ele><time>2026-04-18T10:45:11.984Z</time></trkpt><trkpt lat="16.2228235" lon="-61.4562309"><ele>38.4</ele><time>2026-04-18T10:45:13.952Z</time></trkpt><trkpt lat="16.2228449" lon="-61.456345"><ele>38.8</ele><time>2026-04-18T10:45:15.977Z</time></trkpt><trkpt lat="16.2228676" lon="-61.4564284"><ele>39.2</ele><time>2026-04-18T10:45:17.983Z</time></trkpt><trkpt lat="16.2228905" lon="-61.4565273"><ele>39.6</ele><time>2026-04-18T10:45:20.986Z</time></trkpt><trkpt lat="16.2229032" lon="-61.4566357"><ele>40.0</ele><time>2026-04-18T10:45:22.981Z</time></trkpt><trkpt lat="16.2229107" lon="-61.456745"><ele>40.0</ele><time>2026-04-18T10:45:24.982Z</time></trkpt><trkpt lat="16.2229313" lon="-61.4568079"><ele>40.0</ele><time>2026-04-18T10:45:25.984Z</time></trkpt><trkpt lat="16.2229513" lon="-61.4568781"><ele>40.0</ele><time>2026-04-18T10:45:26.989Z</time></trkpt><trkpt lat="16.2229756" lon="-61.4569564"><ele>40.0</ele><time>2026-04-18T10:45:27.998Z</time></trkpt><trkpt lat="16.2229876" lon="-61.4570276"><ele>40.0</ele><time>2026-04-18T10:45:28.963Z</time></trkpt><trkpt lat="16.2229967" lon="-61.4571008"><ele>40.0</ele><time>2026-04-18T10:45:29.993Z</time></trkpt><trkpt lat="16.2229993" lon="-61.45718"><ele>40.0</ele><time>2026-04-18T10:45:30.991Z</time></trkpt><trkpt lat="16.2229958" lon="-61.4573008"><ele>40.8</ele><time>2026-04-18T10:45:32.996Z</time></trkpt><trkpt lat="16.2229936" lon="-61.4573745"><ele>41.6</ele><time>2026-04-18T10:45:34.956Z</time></trkpt><trkpt lat="16.2230069" lon="-61.45747"><ele>42.400000000000006</ele><time>2026-04-18T10:45:36.986Z</time></trkpt><trkpt lat="16.2230336" lon="-61.4575868"><ele>43.2</ele><time>2026-04-18T10:45:38.976Z</time></trkpt><trkpt lat="16.2230467" lon="-61.4576838"><ele>44.0</ele><time>2026-04-18T10:45:40.975Z</time></trkpt><trkpt lat="16.2230633" lon="-61.4577678"><ele>44.0</ele><time>2026-04-18T10:45:43.995Z</time></trkpt><trkpt lat="16.2230815" lon="-61.4578468"><ele>44.0</ele><time>2026-04-18T10:45:45.983Z</time></trkpt><trkpt lat="16.2231043" lon="-61.4579167"><ele>44.0</ele><time>2026-04-18T10:45:47.988Z</time></trkpt><trkpt lat="16.2231262" lon="-61.4579919"><ele>44.0</ele><time>2026-04-18T10:45:49.973Z</time></trkpt><trkpt lat="16.2231452" lon="-61.4580587"><ele>44.0</ele><time>2026-04-18T10:45:54.969Z</time></trkpt><trkpt lat="16.2231451" lon="-61.4581364"><ele>44.0</ele><time>2026-04-18T10:45:56.977Z</time></trkpt><trkpt lat="16.2231202" lon="-61.4582487"><ele>43.5</ele><time>2026-04-18T10:45:58.979Z</time></trkpt><trkpt lat="16.2230984" lon="-61.4583377"><ele>43.0</ele><time>2026-04-18T10:46:00.969Z</time></trkpt><trkpt lat="16.2230895" lon="-61.458403"><ele>42.5</ele><time>2026-04-18T10:46:05.979Z</time></trkpt><trkpt lat="16.2231054" lon="-61.4583256"><ele>42.0</ele><time>2026-04-18T10:46:22.981Z</time></trkpt><trkpt lat="16.2231348" lon="-61.4582546"><ele>41.5</ele><time>2026-04-18T10:46:24.984Z</time></trkpt><trkpt lat="16.2231489" lon="-61.458151"><ele>41.0</ele><time>2026-04-18T10:46:26.985Z</time></trkpt><trkpt lat="16.2231598" lon="-61.4580299"><ele>41.0</ele><time>2026-04-18T10:46:28.992Z</time></trkpt><trkpt lat="16.2231458" lon="-61.4579639"><ele>41.0</ele><time>2026-04-18T10:46:29.984Z</time></trkpt><trkpt lat="16.2230935" lon="-61.4578599"><ele>41.0</ele><time>2026-04-18T10:46:31.983Z</time></trkpt><trkpt lat="16.2230443" lon="-61.4577619"><ele>41.0</ele><time>2026-04-18T10:46:33.975Z</time></trkpt><trkpt lat="16.2230111" lon="-61.4576669"><ele>41.0</ele><time>2026-04-18T10:46:35.99Z</time></trkpt><trkpt lat="16.2230013" lon="-61.4575429"><ele>40.8</ele><time>2026-04-18T10:46:37.982Z</time></trkpt><trkpt lat="16.222999" lon="-61.4574369"><ele>40.599999999999994</ele><time>2026-04-18T10:46:39.987Z</time></trkpt><trkpt lat="16.2229909" lon="-61.4573376"><ele>40.4</ele><time>2026-04-18T10:46:41.959Z</time></trkpt><trkpt lat="16.2229838" lon="-61.4572391"><ele>40.2</ele><time>2026-04-18T10:46:43.995Z</time></trkpt><trkpt lat="16.222972" lon="-61.4571276"><ele>40.0</ele><time>2026-04-18T10:46:45.97Z</time></trkpt><trkpt lat="16.2229413" lon="-61.4570506"><ele>40.0</ele><time>2026-04-18T10:46:47.966Z</time></trkpt><trkpt lat="16.2229127" lon="-61.4569817"><ele>40.0</ele><time>2026-04-18T10:46:49.989Z</time></trkpt><trkpt lat="16.222884" lon="-61.4569117"><ele>40.0</ele><time>2026-04-18T10:46:51.985Z</time></trkpt><trkpt lat="16.2228767" lon="-61.4568256"><ele>40.0</ele><time>2026-04-18T10:46:54.053Z</time></trkpt><trkpt lat="16.2228857" lon="-61.4567398"><ele>40.0</ele><time>2026-04-18T10:46:56.046Z</time></trkpt><trkpt lat="16.2228899" lon="-61.4566551"><ele>40.0</ele><time>2026-04-18T10:46:57.983Z</time></trkpt><trkpt lat="16.2228801" lon="-61.4565424"><ele>40.0</ele><time>2026-04-18T10:47:00.025Z</time></trkpt><trkpt lat="16.2228587" lon="-61.4564394"><ele>40.0</ele><time>2026-04-18T10:47:01.994Z</time></trkpt><trkpt lat="16.2228255" lon="-61.4563581"><ele>40.0</ele><time>2026-04-18T10:47:03.974Z</time></trkpt><trkpt lat="16.2228148" lon="-61.4562762"><ele>40.0</ele><time>2026-04-18T10:47:06.032Z</time></trkpt><trkpt lat="16.222832" lon="-61.4561555"><ele>40.0</ele><time>2026-04-18T10:47:07.984Z</time></trkpt><trkpt lat="16.2228635" lon="-61.4560493"><ele>39.6</ele><time>2026-04-18T10:47:10.06Z</time></trkpt><trkpt lat="16.2228756" lon="-61.4559816"><ele>39.2</ele><time>2026-04-18T10:47:11.973Z</time></trkpt><trkpt lat="16.2229273" lon="-61.4558896"><ele>38.8</ele><time>2026-04-18T10:47:13.98Z</time></trkpt><trkpt lat="16.2229966" lon="-61.4558326"><ele>38.4</ele><time>2026-04-18T10:47:14.983Z</time></trkpt><trkpt lat="16.223096" lon="-61.4557518"><ele>38.0</ele><time>2026-04-18T10:47:15.982Z</time></trkpt><trkpt lat="16.2232159" lon="-61.455653"><ele>36.75</ele><time>2026-04-18T10:47:16.984Z</time></trkpt><trkpt lat="16.223335" lon="-61.4555391"><ele>35.5</ele><time>2026-04-18T10:47:17.982Z</time></trkpt><trkpt lat="16.2234278" lon="-61.4554361"><ele>34.25</ele><time>2026-04-18T10:47:18.998Z</time></trkpt><trkpt lat="16.2234987" lon="-61.4553676"><ele>33.0</ele><time>2026-04-18T10:47:19.994Z</time></trkpt><trkpt lat="16.2235584" lon="-61.4553115"><ele>33.0</ele><time>2026-04-18T10:47:21.023Z</time></trkpt><trkpt lat="16.2236682" lon="-61.4552847"><ele>33.0</ele><time>2026-04-18T10:47:22.992Z</time></trkpt><trkpt lat="16.2237477" lon="-61.4553186"><ele>33.0</ele><time>2026-04-18T10:47:23.981Z</time></trkpt><trkpt lat="16.2238061" lon="-61.4553539"><ele>33.0</ele><time>2026-04-18T10:47:24.995Z</time></trkpt><trkpt lat="16.2239018" lon="-61.4553982"><ele>33.0</ele><time>2026-04-18T10:47:26.982Z</time></trkpt><trkpt lat="16.2240168" lon="-61.4554312"><ele>33.166666666666664</ele><time>2026-04-18T10:47:28.97Z</time></trkpt><trkpt lat="16.2240837" lon="-61.4554516"><ele>33.333333333333336</ele><time>2026-04-18T10:47:29.981Z</time></trkpt><trkpt lat="16.2241544" lon="-61.4554763"><ele>33.5</ele><time>2026-04-18T10:47:30.997Z</time></trkpt><trkpt lat="16.2242269" lon="-61.4554926"><ele>33.66666666666667</ele><time>2026-04-18T10:47:31.977Z</time></trkpt><trkpt lat="16.2243015" lon="-61.4555133"><ele>33.833333333333336</ele><time>2026-04-18T10:47:33.002Z</time></trkpt><trkpt lat="16.2243744" lon="-61.4555495"><ele>34.0</ele><time>2026-04-18T10:47:33.999Z</time></trkpt><trkpt lat="16.2244518" lon="-61.4555805"><ele>34.0</ele><time>2026-04-18T10:47:34.989Z</time></trkpt><trkpt lat="16.2245239" lon="-61.4556182"><ele>34.0</ele><time>2026-04-18T10:47:36.002Z</time></trkpt><trkpt lat="16.2245931" lon="-61.4556534"><ele>34.0</ele><time>2026-04-18T10:47:36.998Z</time></trkpt><trkpt lat="16.2246637" lon="-61.4556996"><ele>34.0</ele><time>2026-04-18T10:47:37.998Z</time></trkpt><trkpt lat="16.2247328" lon="-61.4557513"><ele>34.0</ele><time>2026-04-18T10:47:39.001Z</time></trkpt><trkpt lat="16.2248071" lon="-61.4558052"><ele>34.0</ele><time>2026-04-18T10:47:39.988Z</time></trkpt><trkpt lat="16.2248845" lon="-61.455861"><ele>33.8</ele><time>2026-04-18T10:47:41.023Z</time></trkpt><trkpt lat="16.2249638" lon="-61.4559198"><ele>33.599999999999994</ele><time>2026-04-18T10:47:41.993Z</time></trkpt><trkpt lat="16.2250461" lon="-61.4559934"><ele>33.4</ele><time>2026-04-18T10:47:42.999Z</time></trkpt><trkpt lat="16.2251267" lon="-61.4560739"><ele>33.199999999999996</ele><time>2026-04-18T10:47:43.986Z</time></trkpt><trkpt lat="16.2252015" lon="-61.4561518"><ele>33.0</ele><time>2026-04-18T10:47:45.014Z</time></trkpt><trkpt lat="16.2252723" lon="-61.4562379"><ele>37.25</ele><time>2026-04-18T10:47:45.992Z</time></trkpt><trkpt lat="16.2253487" lon="-61.4563294"><ele>41.5</ele><time>2026-04-18T10:47:46.987Z</time></trkpt><trkpt lat="16.2254296" lon="-61.4564134"><ele>45.75</ele><time>2026-04-18T10:47:47.991Z</time></trkpt><trkpt lat="16.2255065" lon="-61.4564958"><ele>50.0</ele><time>2026-04-18T10:47:48.995Z</time></trkpt><trkpt lat="16.2255898" lon="-61.4565855"><ele>48.0</ele><time>2026-04-18T10:47:49.992Z</time></trkpt><trkpt lat="16.2256783" lon="-61.4566753"><ele>46.0</ele><time>2026-04-18T10:47:50.999Z</time></trkpt><trkpt lat="16.2257676" lon="-61.4567635"><ele>44.0</ele><time>2026-04-18T10:47:51.991Z</time></trkpt><trkpt lat="16.2258581" lon="-61.4568484"><ele>42.0</ele><time>2026-04-18T10:47:52.99Z</time></trkpt><trkpt lat="16.2259549" lon="-61.4569244"><ele>42.0</ele><time>2026-04-18T10:47:53.984Z</time></trkpt><trkpt lat="16.2260503" lon="-61.4569801"><ele>42.0</ele><time>2026-04-18T10:47:54.99Z</time></trkpt><trkpt lat="16.2261578" lon="-61.4570165"><ele>42.0</ele><time>2026-04-18T10:47:55.978Z</time></trkpt><trkpt lat="16.2262696" lon="-61.4570318"><ele>42.0</ele><time>2026-04-18T10:47:56.988Z</time></trkpt><trkpt lat="16.2264029" lon="-61.4570361"><ele>44.25</ele><time>2026-04-18T10:47:58.039Z</time></trkpt><trkpt lat="16.2265434" lon="-61.4570495"><ele>46.5</ele><time>2026-04-18T10:47:59.02Z</time></trkpt><trkpt lat="16.2266823" lon="-61.4570753"><ele>48.75</ele><time>2026-04-18T10:48:00.033Z</time></trkpt><trkpt lat="16.2268269" lon="-61.457109"><ele>51.0</ele><time>2026-04-18T10:48:01.031Z</time></trkpt><trkpt lat="16.2269743" lon="-61.4571432"><ele>51.0</ele><time>2026-04-18T10:48:01.982Z</time></trkpt><trkpt lat="16.227119" lon="-61.4571596"><ele>51.0</ele><time>2026-04-18T10:48:02.995Z</time></trkpt><trkpt lat="16.2272645" lon="-61.4571621"><ele>51.0</ele><time>2026-04-18T10:48:03.975Z</time></trkpt><trkpt lat="16.2274028" lon="-61.4571441"><ele>51.0</ele><time>2026-04-18T10:48:04.986Z</time></trkpt><trkpt lat="16.2275433" lon="-61.4571275"><ele>51.75</ele><time>2026-04-18T10:48:05.981Z</time></trkpt><trkpt lat="16.2276744" lon="-61.4571035"><ele>52.5</ele><time>2026-04-18T10:48:06.974Z</time></trkpt><trkpt lat="16.2278043" lon="-61.457087"><ele>53.25</ele><time>2026-04-18T10:48:08.061Z</time></trkpt><trkpt lat="16.2279404" lon="-61.4570805"><ele>54.0</ele><time>2026-04-18T10:48:08.987Z</time></trkpt><trkpt lat="16.2280658" lon="-61.4570737"><ele>56.75</ele><time>2026-04-18T10:48:10.018Z</time></trkpt><trkpt lat="16.2281964" lon="-61.4570675"><ele>59.5</ele><time>2026-04-18T10:48:11.032Z</time></trkpt><trkpt lat="16.228319" lon="-61.4570628"><ele>62.25</ele><time>2026-04-18T10:48:11.981Z</time></trkpt><trkpt lat="16.2284412" lon="-61.4570618"><ele>65.0</ele><time>2026-04-18T10:48:12.994Z</time></trkpt><trkpt lat="16.2285643" lon="-61.4570631"><ele>65.0</ele><time>2026-04-18T10:48:13.954Z</time></trkpt><trkpt lat="16.2286923" lon="-61.4570785"><ele>65.0</ele><time>2026-04-18T10:48:14.988Z</time></trkpt><trkpt lat="16.2288242" lon="-61.4571024"><ele>65.0</ele><time>2026-04-18T10:48:15.975Z</time></trkpt><trkpt lat="16.2289625" lon="-61.4571263"><ele>65.0</ele><time>2026-04-18T10:48:16.989Z</time></trkpt><trkpt lat="16.2291" lon="-61.4571413"><ele>68.25</ele><time>2026-04-18T10:48:17.994Z</time></trkpt><trkpt lat="16.2292426" lon="-61.4571679"><ele>71.5</ele><time>2026-04-18T10:48:18.971Z</time></trkpt><trkpt lat="16.2293814" lon="-61.4571952"><ele>74.75</ele><time>2026-04-18T10:48:19.955Z</time></trkpt><trkpt lat="16.2295103" lon="-61.457225"><ele>78.0</ele><time>2026-04-18T10:48:20.978Z</time></trkpt><trkpt lat="16.2296347" lon="-61.4572413"><ele>78.0</ele><time>2026-04-18T10:48:21.975Z</time></trkpt><trkpt lat="16.2297598" lon="-61.4572479"><ele>78.0</ele><time>2026-04-18T10:48:22.985Z</time></trkpt><trkpt lat="16.2298891" lon="-61.4572411"><ele>78.0</ele><time>2026-04-18T10:48:23.99Z</time></trkpt><trkpt lat="16.230019" lon="-61.4572434"><ele>78.0</ele><time>2026-04-18T10:48:24.985Z</time></trkpt><trkpt lat="16.2301519" lon="-61.4572672"><ele>80.0</ele><time>2026-04-18T10:48:25.985Z</time></trkpt><trkpt lat="16.2302914" lon="-61.4572949"><ele>82.0</ele><time>2026-04-18T10:48:26.983Z</time></trkpt><trkpt lat="16.2304182" lon="-61.4573223"><ele>84.0</ele><time>2026-04-18T10:48:27.989Z</time></trkpt><trkpt lat="16.2305466" lon="-61.4573366"><ele>86.0</ele><time>2026-04-18T10:48:28.996Z</time></trkpt><trkpt lat="16.2306418" lon="-61.4573071"><ele>85.6</ele><time>2026-04-18T10:48:29.982Z</time></trkpt><trkpt lat="16.230723" lon="-61.4572462"><ele>85.19999999999999</ele><time>2026-04-18T10:48:30.968Z</time></trkpt><trkpt lat="16.2307996" lon="-61.4571784"><ele>84.80000000000001</ele><time>2026-04-18T10:48:31.972Z</time></trkpt><trkpt lat="16.2308529" lon="-61.4570747"><ele>84.4</ele><time>2026-04-18T10:48:32.951Z</time></trkpt><trkpt lat="16.2309051" lon="-61.4569708"><ele>84.0</ele><time>2026-04-18T10:48:33.992Z</time></trkpt><trkpt lat="16.2309566" lon="-61.4568766"><ele>84.0</ele><time>2026-04-18T10:48:34.979Z</time></trkpt><trkpt lat="16.2310142" lon="-61.4568205"><ele>84.0</ele><time>2026-04-18T10:48:35.989Z</time></trkpt><trkpt lat="16.2310705" lon="-61.4567532"><ele>84.0</ele><time>2026-04-18T10:48:37.963Z</time></trkpt><trkpt lat="16.2310913" lon="-61.4566635"><ele>84.0</ele><time>2026-04-18T10:48:39.997Z</time></trkpt><trkpt lat="16.2311206" lon="-61.4566039"><ele>84.0</ele><time>2026-04-18T10:48:41.003Z</time></trkpt><trkpt lat="16.2311618" lon="-61.4565479"><ele>84.0</ele><time>2026-04-18T10:48:41.991Z</time></trkpt><trkpt lat="16.2312499" lon="-61.456475"><ele>84.0</ele><time>2026-04-18T10:48:43.993Z</time></trkpt><trkpt lat="16.2313283" lon="-61.4565666"><ele>84.0</ele><time>2026-04-18T10:48:45.998Z</time></trkpt><trkpt lat="16.2313613" lon="-61.4566595"><ele>84.0</ele><time>2026-04-18T10:48:46.982Z</time></trkpt><trkpt lat="16.2313908" lon="-61.4567533"><ele>84.0</ele><time>2026-04-18T10:48:47.98Z</time></trkpt><trkpt lat="16.2314444" lon="-61.4568523"><ele>84.0</ele><time>2026-04-18T10:48:48.983Z</time></trkpt><trkpt lat="16.2315174" lon="-61.456929"><ele>84.0</ele><time>2026-04-18T10:48:49.986Z</time></trkpt><trkpt lat="16.2316056" lon="-61.4569847"><ele>84.0</ele><time>2026-04-18T10:48:50.984Z</time></trkpt><trkpt lat="16.2317049" lon="-61.4570321"><ele>84.0</ele><time>2026-04-18T10:48:51.999Z</time></trkpt><trkpt lat="16.2318108" lon="-61.4570739"><ele>84.0</ele><time>2026-04-18T10:48:52.985Z</time></trkpt><trkpt lat="16.23192" lon="-61.4571211"><ele>84.0</ele><time>2026-04-18T10:48:53.995Z</time></trkpt><trkpt lat="16.2320151" lon="-61.4571873"><ele>84.0</ele><time>2026-04-18T10:48:54.982Z</time></trkpt><trkpt lat="16.2321153" lon="-61.4572682"><ele>84.0</ele><time>2026-04-18T10:48:55.994Z</time></trkpt><trkpt lat="16.2322111" lon="-61.4573625"><ele>84.0</ele><time>2026-04-18T10:48:56.995Z</time></trkpt><trkpt lat="16.2322969" lon="-61.4574495"><ele>84.0</ele><time>2026-04-18T10:48:57.993Z</time></trkpt><trkpt lat="16.2323573" lon="-61.4575427"><ele>78.8</ele><time>2026-04-18T10:48:58.974Z</time></trkpt><trkpt lat="16.2324173" lon="-61.4576516"><ele>73.60000000000001</ele><time>2026-04-18T10:48:59.989Z</time></trkpt><trkpt lat="16.2324757" lon="-61.4577601"><ele>68.4</ele><time>2026-04-18T10:49:00.989Z</time></trkpt><trkpt lat="16.2325135" lon="-61.457868"><ele>63.2</ele><time>2026-04-18T10:49:01.989Z</time></trkpt><trkpt lat="16.2325531" lon="-61.4579616"><ele>58.0</ele><time>2026-04-18T10:49:02.984Z</time></trkpt><trkpt lat="16.2325766" lon="-61.4580367"><ele>57.83333333333333</ele><time>2026-04-18T10:49:03.979Z</time></trkpt><trkpt lat="16.2326027" lon="-61.4581015"><ele>57.666666666666664</ele><time>2026-04-18T10:49:04.991Z</time></trkpt><trkpt lat="16.2326467" lon="-61.4581498"><ele>57.5</ele><time>2026-04-18T10:49:05.979Z</time></trkpt><trkpt lat="16.2327212" lon="-61.4581692"><ele>57.33333333333333</ele><time>2026-04-18T10:49:07.003Z</time></trkpt><trkpt lat="16.232801" lon="-61.4581809"><ele>57.166666666666664</ele><time>2026-04-18T10:49:07.979Z</time></trkpt><trkpt lat="16.2328737" lon="-61.4581777"><ele>57.0</ele><time>2026-04-18T10:49:08.987Z</time></trkpt><trkpt lat="16.2329437" lon="-61.4580841"><ele>57.0</ele><time>2026-04-18T10:49:11.004Z</time></trkpt><trkpt lat="16.2329717" lon="-61.4580116"><ele>57.0</ele><time>2026-04-18T10:49:11.986Z</time></trkpt><trkpt lat="16.2330124" lon="-61.4579442"><ele>57.0</ele><time>2026-04-18T10:49:12.982Z</time></trkpt><trkpt lat="16.2330626" lon="-61.4578758"><ele>57.0</ele><time>2026-04-18T10:49:13.984Z</time></trkpt><trkpt lat="16.2331291" lon="-61.4578163"><ele>57.0</ele><time>2026-04-18T10:49:14.956Z</time></trkpt><trkpt lat="16.2332159" lon="-61.4577813"><ele>57.0</ele><time>2026-04-18T10:49:15.992Z</time></trkpt><trkpt lat="16.2333081" lon="-61.4577608"><ele>55.8</ele><time>2026-04-18T10:49:16.979Z</time></trkpt><trkpt lat="16.2333975" lon="-61.4577334"><ele>54.6</ele><time>2026-04-18T10:49:17.99Z</time></trkpt><trkpt lat="16.2334851" lon="-61.4576983"><ele>53.4</ele><time>2026-04-18T10:49:18.992Z</time></trkpt><trkpt lat="16.2335752" lon="-61.4576571"><ele>52.199999999999996</ele><time>2026-04-18T10:49:19.988Z</time></trkpt><trkpt lat="16.233662" lon="-61.4576154"><ele>51.0</ele><time>2026-04-18T10:49:20.997Z</time></trkpt><trkpt lat="16.2337446" lon="-61.4575609"><ele>51.0</ele><time>2026-04-18T10:49:21.987Z</time></trkpt><trkpt lat="16.2338222" lon="-61.4575002"><ele>51.0</ele><time>2026-04-18T10:49:22.982Z</time></trkpt><trkpt lat="16.2338817" lon="-61.4574314"><ele>51.0</ele><time>2026-04-18T10:49:23.99Z</time></trkpt><trkpt lat="16.2339144" lon="-61.457356"><ele>51.0</ele><time>2026-04-18T10:49:24.995Z</time></trkpt><trkpt lat="16.233934" lon="-61.4572656"><ele>51.0</ele><time>2026-04-18T10:49:25.995Z</time></trkpt><trkpt lat="16.2339533" lon="-61.4571678"><ele>53.4</ele><time>2026-04-18T10:49:26.96Z</time></trkpt><trkpt lat="16.233986" lon="-61.4570813"><ele>55.8</ele><time>2026-04-18T10:49:27.991Z</time></trkpt><trkpt lat="16.2340404" lon="-61.457004"><ele>58.199999999999996</ele><time>2026-04-18T10:49:29.034Z</time></trkpt><trkpt lat="16.2341212" lon="-61.4569392"><ele>60.599999999999994</ele><time>2026-04-18T10:49:30.023Z</time></trkpt><trkpt lat="16.2341952" lon="-61.4568605"><ele>63.0</ele><time>2026-04-18T10:49:31.051Z</time></trkpt><trkpt lat="16.23427" lon="-61.4567763"><ele>63.0</ele><time>2026-04-18T10:49:31.988Z</time></trkpt><trkpt lat="16.2343401" lon="-61.4566906"><ele>63.0</ele><time>2026-04-18T10:49:32.988Z</time></trkpt><trkpt lat="16.2344187" lon="-61.4565979"><ele>63.0</ele><time>2026-04-18T10:49:33.972Z</time></trkpt><trkpt lat="16.2344826" lon="-61.4565093"><ele>63.0</ele><time>2026-04-18T10:49:35.032Z</time></trkpt><trkpt lat="16.2345426" lon="-61.4564344"><ele>63.0</ele><time>2026-04-18T10:49:35.975Z</time></trkpt><trkpt lat="16.2346006" lon="-61.4563796"><ele>63.0</ele><time>2026-04-18T10:49:36.984Z</time></trkpt><trkpt lat="16.234659" lon="-61.4563429"><ele>63.0</ele><time>2026-04-18T10:49:37.984Z</time></trkpt><trkpt lat="16.2347256" lon="-61.4563163"><ele>63.0</ele><time>2026-04-18T10:49:38.976Z</time></trkpt><trkpt lat="16.2347932" lon="-61.4563025"><ele>63.0</ele><time>2026-04-18T10:49:39.983Z</time></trkpt><trkpt lat="16.234862" lon="-61.4562923"><ele>63.0</ele><time>2026-04-18T10:49:41.046Z</time></trkpt><trkpt lat="16.2349285" lon="-61.4562769"><ele>63.0</ele><time>2026-04-18T10:49:41.968Z</time></trkpt><trkpt lat="16.2350112" lon="-61.4562659"><ele>63.0</ele><time>2026-04-18T10:49:43.981Z</time></trkpt><trkpt lat="16.2350621" lon="-61.4561421"><ele>63.0</ele><time>2026-04-18T10:49:46.98Z</time></trkpt><trkpt lat="16.2350773" lon="-61.4560651"><ele>63.0</ele><time>2026-04-18T10:49:47.981Z</time></trkpt><trkpt lat="16.2350929" lon="-61.4559559"><ele>63.0</ele><time>2026-04-18T10:49:49.046Z</time></trkpt><trkpt lat="16.2351195" lon="-61.4558513"><ele>63.0</ele><time>2026-04-18T10:49:50.047Z</time></trkpt><trkpt lat="16.2351315" lon="-61.455756"><ele>63.0</ele><time>2026-04-18T10:49:51.053Z</time></trkpt><trkpt lat="16.2351528" lon="-61.4556698"><ele>63.0</ele><time>2026-04-18T10:49:51.976Z</time></trkpt><trkpt lat="16.2351806" lon="-61.4555876"><ele>63.0</ele><time>2026-04-18T10:49:52.984Z</time></trkpt><trkpt lat="16.2352241" lon="-61.4554971"><ele>63.0</ele><time>2026-04-18T10:49:53.98Z</time></trkpt><trkpt lat="16.2352822" lon="-61.4554065"><ele>63.0</ele><time>2026-04-18T10:49:54.974Z</time></trkpt><trkpt lat="16.2353434" lon="-61.4553281"><ele>63.0</ele><time>2026-04-18T10:49:55.985Z</time></trkpt><trkpt lat="16.2354027" lon="-61.4552496"><ele>64.83333333333333</ele><time>2026-04-18T10:49:56.975Z</time></trkpt><trkpt lat="16.2354599" lon="-61.4551739"><ele>66.66666666666667</ele><time>2026-04-18T10:49:58.038Z</time></trkpt><trkpt lat="16.23552" lon="-61.4550989"><ele>68.5</ele><time>2026-04-18T10:49:58.973Z</time></trkpt><trkpt lat="16.2355733" lon="-61.4550357"><ele>70.33333333333334</ele><time>2026-04-18T10:50:00.059Z</time></trkpt><trkpt lat="16.235612" lon="-61.4549799"><ele>72.16666666666667</ele><time>2026-04-18T10:50:00.973Z</time></trkpt><trkpt lat="16.2356506" lon="-61.4549254"><ele>74.0</ele><time>2026-04-18T10:50:01.981Z</time></trkpt><trkpt lat="16.2356896" lon="-61.4548637"><ele>74.0</ele><time>2026-04-18T10:50:02.98Z</time></trkpt><trkpt lat="16.2357301" lon="-61.4548039"><ele>74.0</ele><time>2026-04-18T10:50:03.982Z</time></trkpt><trkpt lat="16.2357746" lon="-61.4547453"><ele>74.0</ele><time>2026-04-18T10:50:04.975Z</time></trkpt><trkpt lat="16.2358387" lon="-61.4546657"><ele>74.0</ele><time>2026-04-18T10:50:06.968Z</time></trkpt><trkpt lat="16.2358804" lon="-61.4545902"><ele>74.0</ele><time>2026-04-18T10:50:09.007Z</time></trkpt><trkpt lat="16.235959" lon="-61.4545395"><ele>74.0</ele><time>2026-04-18T10:50:10.975Z</time></trkpt><trkpt lat="16.2360377" lon="-61.4544958"><ele>74.33333333333334</ele><time>2026-04-18T10:50:12.983Z</time></trkpt><trkpt lat="16.2361325" lon="-61.4544272"><ele>74.66666666666667</ele><time>2026-04-18T10:50:14.975Z</time></trkpt><trkpt lat="16.2361922" lon="-61.4543951"><ele>75.0</ele><time>2026-04-18T10:50:16.031Z</time></trkpt><trkpt lat="16.2362525" lon="-61.45437"><ele>75.33333333333333</ele><time>2026-04-18T10:50:16.977Z</time></trkpt><trkpt lat="16.2363293" lon="-61.4543585"><ele>75.66666666666666</ele><time>2026-04-18T10:50:17.988Z</time></trkpt><trkpt lat="16.236409" lon="-61.4543504"><ele>76.0</ele><time>2026-04-18T10:50:18.979Z</time></trkpt><trkpt lat="16.2364924" lon="-61.4543296"><ele>76.0</ele><time>2026-04-18T10:50:19.974Z</time></trkpt><trkpt lat="16.2365879" lon="-61.4543099"><ele>76.0</ele><time>2026-04-18T10:50:20.99Z</time></trkpt><trkpt lat="16.2366998" lon="-61.4542943"><ele>76.0</ele><time>2026-04-18T10:50:21.982Z</time></trkpt><trkpt lat="16.2368084" lon="-61.4542632"><ele>76.0</ele><time>2026-04-18T10:50:23.048Z</time></trkpt><trkpt lat="16.2369055" lon="-61.4542258"><ele>76.0</ele><time>2026-04-18T10:50:24.044Z</time></trkpt><trkpt lat="16.2369996" lon="-61.4541918"><ele>76.0</ele><time>2026-04-18T10:50:24.981Z</time></trkpt><trkpt lat="16.237078" lon="-61.4541595"><ele>76.0</ele><time>2026-04-18T10:50:25.982Z</time></trkpt><trkpt lat="16.237145" lon="-61.4541248"><ele>76.0</ele><time>2026-04-18T10:50:26.991Z</time></trkpt><trkpt lat="16.2372374" lon="-61.454075"><ele>76.0</ele><time>2026-04-18T10:50:28.993Z</time></trkpt><trkpt lat="16.2373155" lon="-61.4540555"><ele>76.0</ele><time>2026-04-18T10:50:31.05Z</time></trkpt><trkpt lat="16.2373918" lon="-61.454026"><ele>76.0</ele><time>2026-04-18T10:50:32.992Z</time></trkpt><trkpt lat="16.2374917" lon="-61.4539736"><ele>75.8</ele><time>2026-04-18T10:50:34.982Z</time></trkpt><trkpt lat="16.2375474" lon="-61.4539406"><ele>75.6</ele><time>2026-04-18T10:50:36.994Z</time></trkpt><trkpt lat="16.2375752" lon="-61.4538773"><ele>75.4</ele><time>2026-04-18T10:50:39.009Z</time></trkpt><trkpt lat="16.2376035" lon="-61.4537769"><ele>75.2</ele><time>2026-04-18T10:50:41.05Z</time></trkpt><trkpt lat="16.237647" lon="-61.4536342"><ele>75.0</ele><time>2026-04-18T10:50:42.988Z</time></trkpt><trkpt lat="16.2376835" lon="-61.4535503"><ele>75.0</ele><time>2026-04-18T10:50:43.976Z</time></trkpt><trkpt lat="16.2377186" lon="-61.4534629"><ele>75.0</ele><time>2026-04-18T10:50:44.991Z</time></trkpt><trkpt lat="16.2377571" lon="-61.4533769"><ele>75.0</ele><time>2026-04-18T10:50:45.978Z</time></trkpt><trkpt lat="16.2377913" lon="-61.4532949"><ele>75.0</ele><time>2026-04-18T10:50:46.986Z</time></trkpt><trkpt lat="16.2378229" lon="-61.4532278"><ele>75.0</ele><time>2026-04-18T10:50:47.979Z</time></trkpt><trkpt lat="16.2378879" lon="-61.4531328"><ele>75.0</ele><time>2026-04-18T10:50:50.02Z</time></trkpt><trkpt lat="16.2379685" lon="-61.4530482"><ele>75.0</ele><time>2026-04-18T10:50:51.985Z</time></trkpt><trkpt lat="16.238026" lon="-61.4529467"><ele>75.0</ele><time>2026-04-18T10:50:53.988Z</time></trkpt><trkpt lat="16.2380761" lon="-61.4528575"><ele>75.0</ele><time>2026-04-18T10:50:56.034Z</time></trkpt><trkpt lat="16.238107" lon="-61.4527765"><ele>75.0</ele><time>2026-04-18T10:50:58.982Z</time></trkpt><trkpt lat="16.2381596" lon="-61.4527367"><ele>74.33333333333333</ele><time>2026-04-18T10:51:01.99Z</time></trkpt><trkpt lat="16.2381649" lon="-61.4526616"><ele>73.66666666666667</ele><time>2026-04-18T10:51:05.056Z</time></trkpt><trkpt lat="16.2382167" lon="-61.4526149"><ele>73.0</ele><time>2026-04-18T10:51:09.997Z</time></trkpt><trkpt lat="16.2383013" lon="-61.4525607"><ele>72.33333333333334</ele><time>2026-04-18T10:51:20.978Z</time></trkpt><trkpt lat="16.2383769" lon="-61.452513"><ele>71.66666666666667</ele><time>2026-04-18T10:51:22.979Z</time></trkpt><trkpt lat="16.2384672" lon="-61.4524714"><ele>71.0</ele><time>2026-04-18T10:51:24.977Z</time></trkpt><trkpt lat="16.2385446" lon="-61.4524222"><ele>71.0</ele><time>2026-04-18T10:51:26.977Z</time></trkpt><trkpt lat="16.2386071" lon="-61.4523819"><ele>71.0</ele><time>2026-04-18T10:51:28.998Z</time></trkpt><trkpt lat="16.2386721" lon="-61.4523396"><ele>71.0</ele><time>2026-04-18T10:51:31.981Z</time></trkpt><trkpt lat="16.2387331" lon="-61.4523096"><ele>71.0</ele><time>2026-04-18T10:51:36.065Z</time></trkpt><trkpt lat="16.2387907" lon="-61.4522551"><ele>71.0</ele><time>2026-04-18T10:51:39.97Z</time></trkpt><trkpt lat="16.2388529" lon="-61.4522259"><ele>71.0</ele><time>2026-04-18T10:51:42.989Z</time></trkpt><trkpt lat="16.2389197" lon="-61.4522069"><ele>71.0</ele><time>2026-04-18T10:51:44.975Z</time></trkpt><trkpt lat="16.2389974" lon="-61.4521609"><ele>72.8</ele><time>2026-04-18T10:51:46.988Z</time></trkpt><trkpt lat="16.2390949" lon="-61.4520887"><ele>74.6</ele><time>2026-04-18T10:51:48.982Z</time></trkpt><trkpt lat="16.2391881" lon="-61.4520026"><ele>76.4</ele><time>2026-04-18T10:51:50.978Z</time></trkpt><trkpt lat="16.2392705" lon="-61.4519213"><ele>78.2</ele><time>2026-04-18T10:51:52.979Z</time></trkpt><trkpt lat="16.2393468" lon="-61.4518723"><ele>80.0</ele><time>2026-04-18T10:51:54.976Z</time></trkpt><trkpt lat="16.2394187" lon="-61.4518427"><ele>80.0</ele><time>2026-04-18T10:51:56.976Z</time></trkpt><trkpt lat="16.2394821" lon="-61.451799"><ele>80.0</ele><time>2026-04-18T10:51:59.969Z</time></trkpt><trkpt lat="16.2395444" lon="-61.4517667"><ele>80.0</ele><time>2026-04-18T10:52:16.977Z</time></trkpt><trkpt lat="16.2395785" lon="-61.4517067"><ele>80.0</ele><time>2026-04-18T10:52:21.964Z</time></trkpt><trkpt lat="16.2395369" lon="-61.4516398"><ele>80.0</ele><time>2026-04-18T10:52:27.052Z</time></trkpt><trkpt lat="16.239525" lon="-61.4515634"><ele>80.0</ele><time>2026-04-18T10:52:32.98Z</time></trkpt><trkpt lat="16.2395783" lon="-61.4515082"><ele>80.0</ele><time>2026-04-18T10:52:36.045Z</time></trkpt><trkpt lat="16.2396037" lon="-61.4514425"><ele>80.0</ele><time>2026-04-18T10:52:39.998Z</time></trkpt><trkpt lat="16.2395768" lon="-61.4513813"><ele>80.0</ele><time>2026-04-18T10:52:42.985Z</time></trkpt><trkpt lat="16.2395185" lon="-61.451338"><ele>80.0</ele><time>2026-04-18T10:52:46.985Z</time></trkpt><trkpt lat="16.2394878" lon="-61.4512653"><ele>80.0</ele><time>2026-04-18T10:52:51.982Z</time></trkpt><trkpt lat="16.2394639" lon="-61.4511961"><ele>80.0</ele><time>2026-04-18T10:52:54.969Z</time></trkpt><trkpt lat="16.2394582" lon="-61.4511253"><ele>80.0</ele><time>2026-04-18T10:52:58.976Z</time></trkpt><trkpt lat="16.2393961" lon="-61.4511"><ele>80.0</ele><time>2026-04-18T10:53:03.977Z</time></trkpt><trkpt lat="16.2393297" lon="-61.4510961"><ele>80.0</ele><time>2026-04-18T10:53:17.989Z</time></trkpt><trkpt lat="16.2392595" lon="-61.4511244"><ele>80.0</ele><time>2026-04-18T10:53:32.961Z</time></trkpt><trkpt lat="16.2392831" lon="-61.4511934"><ele>80.0</ele><time>2026-04-18T10:53:57.982Z</time></trkpt><trkpt lat="16.2393569" lon="-61.4511988"><ele>80.0</ele><time>2026-04-18T10:54:00.981Z</time></trkpt><trkpt lat="16.2394245" lon="-61.4512015"><ele>80.0</ele><time>2026-04-18T10:54:05.97Z</time></trkpt><trkpt lat="16.2394668" lon="-61.4512751"><ele>80.0</ele><time>2026-04-18T10:54:11.066Z</time></trkpt><trkpt lat="16.2395142" lon="-61.4513343"><ele>80.0</ele><time>2026-04-18T10:54:13.998Z</time></trkpt><trkpt lat="16.2395735" lon="-61.4513701"><ele>80.0</ele><time>2026-04-18T10:54:18.035Z</time></trkpt><trkpt lat="16.2396455" lon="-61.4513964"><ele>80.0</ele><time>2026-04-18T10:54:21.971Z</time></trkpt><trkpt lat="16.2396973" lon="-61.451342"><ele>80.0</ele><time>2026-04-18T10:54:28.99Z</time></trkpt><trkpt lat="16.2397445" lon="-61.4512831"><ele>80.0</ele><time>2026-04-18T10:54:41.962Z</time></trkpt><trkpt lat="16.2397695" lon="-61.4512057"><ele>80.0</ele><time>2026-04-18T10:54:45.981Z</time></trkpt><trkpt lat="16.23983" lon="-61.4511617"><ele>80.0</ele><time>2026-04-18T10:54:52.973Z</time></trkpt><trkpt lat="16.2398768" lon="-61.4510917"><ele>80.5</ele><time>2026-04-18T10:54:55.995Z</time></trkpt><trkpt lat="16.2399136" lon="-61.4510239"><ele>81.0</ele><time>2026-04-18T10:54:57.982Z</time></trkpt><trkpt lat="16.2399477" lon="-61.4509511"><ele>81.5</ele><time>2026-04-18T10:54:59.977Z</time></trkpt><trkpt lat="16.239987" lon="-61.4508765"><ele>82.0</ele><time>2026-04-18T10:55:02.986Z</time></trkpt><trkpt lat="16.240024" lon="-61.4508007"><ele>82.5</ele><time>2026-04-18T10:55:04.996Z</time></trkpt><trkpt lat="16.2400538" lon="-61.450722"><ele>83.0</ele><time>2026-04-18T10:55:06.975Z</time></trkpt><trkpt lat="16.240099" lon="-61.4506758"><ele>83.0</ele><time>2026-04-18T10:55:08.978Z</time></trkpt><trkpt lat="16.2401362" lon="-61.4506077"><ele>83.0</ele><time>2026-04-18T10:55:13.967Z</time></trkpt><trkpt lat="16.2401598" lon="-61.4505344"><ele>83.0</ele><time>2026-04-18T10:55:16.986Z</time></trkpt><trkpt lat="16.2401896" lon="-61.4504736"><ele>83.0</ele><time>2026-04-18T10:55:18.983Z</time></trkpt><trkpt lat="16.2402267" lon="-61.4504088"><ele>83.0</ele><time>2026-04-18T10:55:20.974Z</time></trkpt><trkpt lat="16.2402776" lon="-61.4503262"><ele>83.0</ele><time>2026-04-18T10:55:22.978Z</time></trkpt><trkpt lat="16.2403875" lon="-61.4502183"><ele>83.66666666666667</ele><time>2026-04-18T10:55:25.041Z</time></trkpt><trkpt lat="16.2404441" lon="-61.4501724"><ele>84.33333333333334</ele><time>2026-04-18T10:55:25.982Z</time></trkpt><trkpt lat="16.2405137" lon="-61.4501302"><ele>85.0</ele><time>2026-04-18T10:55:27.969Z</time></trkpt><trkpt lat="16.2405907" lon="-61.4500605"><ele>85.66666666666667</ele><time>2026-04-18T10:55:40.989Z</time></trkpt><trkpt lat="16.2406681" lon="-61.4500154"><ele>86.33333333333333</ele><time>2026-04-18T10:55:42.981Z</time></trkpt><trkpt lat="16.2407449" lon="-61.4499472"><ele>87.0</ele><time>2026-04-18T10:55:44.972Z</time></trkpt><trkpt lat="16.2408074" lon="-61.4498741"><ele>87.0</ele><time>2026-04-18T10:55:47.989Z</time></trkpt><trkpt lat="16.2408322" lon="-61.4497754"><ele>87.0</ele><time>2026-04-18T10:55:50.023Z</time></trkpt><trkpt lat="16.2408517" lon="-61.4496896"><ele>87.0</ele><time>2026-04-18T10:55:52.006Z</time></trkpt><trkpt lat="16.2408718" lon="-61.4495949"><ele>87.0</ele><time>2026-04-18T10:55:53.967Z</time></trkpt><trkpt lat="16.2408836" lon="-61.449511"><ele>87.0</ele><time>2026-04-18T10:55:55.967Z</time></trkpt><trkpt lat="16.2408886" lon="-61.4494302"><ele>87.0</ele><time>2026-04-18T10:55:57.999Z</time></trkpt><trkpt lat="16.2408688" lon="-61.4493353"><ele>87.33333333333333</ele><time>2026-04-18T10:55:59.991Z</time></trkpt><trkpt lat="16.2408506" lon="-61.4492449"><ele>87.66666666666667</ele><time>2026-04-18T10:56:01.985Z</time></trkpt><trkpt lat="16.2408538" lon="-61.449165"><ele>88.0</ele><time>2026-04-18T10:56:03.988Z</time></trkpt><trkpt lat="16.2408616" lon="-61.4490832"><ele>88.33333333333334</ele><time>2026-04-18T10:56:05.982Z</time></trkpt><trkpt lat="16.2408517" lon="-61.4490137"><ele>88.66666666666667</ele><time>2026-04-18T10:56:07.975Z</time></trkpt><trkpt lat="16.2408149" lon="-61.4489481"><ele>89.0</ele><time>2026-04-18T10:56:12.982Z</time></trkpt><trkpt lat="16.2408173" lon="-61.4490425"><ele>89.0</ele><time>2026-04-18T10:56:34.975Z</time></trkpt><trkpt lat="16.2408232" lon="-61.4491271"><ele>89.0</ele><time>2026-04-18T10:56:36.995Z</time></trkpt><trkpt lat="16.240854" lon="-61.4492436"><ele>89.0</ele><time>2026-04-18T10:56:38.99Z</time></trkpt><trkpt lat="16.2408727" lon="-61.4493617"><ele>89.0</ele><time>2026-04-18T10:56:41.054Z</time></trkpt><trkpt lat="16.2408809" lon="-61.4494273"><ele>89.0</ele><time>2026-04-18T10:56:42.048Z</time></trkpt><trkpt lat="16.2408912" lon="-61.4494941"><ele>89.0</ele><time>2026-04-18T10:56:42.993Z</time></trkpt><trkpt lat="16.2408882" lon="-61.4496092"><ele>88.66666666666667</ele><time>2026-04-18T10:56:44.977Z</time></trkpt><trkpt lat="16.2408669" lon="-61.449695"><ele>88.33333333333334</ele><time>2026-04-18T10:56:46.987Z</time></trkpt><trkpt lat="16.2407866" lon="-61.449713"><ele>88.0</ele><time>2026-04-18T10:56:49.98Z</time></trkpt><trkpt lat="16.2407137" lon="-61.4496664"><ele>87.66666666666667</ele><time>2026-04-18T10:56:52.991Z</time></trkpt><trkpt lat="16.2406437" lon="-61.4496259"><ele>87.33333333333333</ele><time>2026-04-18T10:56:55.99Z</time></trkpt><trkpt lat="16.2405534" lon="-61.4496015"><ele>87.0</ele><time>2026-04-18T10:57:01.976Z</time></trkpt><trkpt lat="16.240574" lon="-61.4496638"><ele>87.0</ele><time>2026-04-18T10:57:12.001Z</time></trkpt><trkpt lat="16.2406321" lon="-61.4496912"><ele>87.0</ele><time>2026-04-18T10:57:13.99Z</time></trkpt><trkpt lat="16.2406924" lon="-61.4497296"><ele>87.0</ele><time>2026-04-18T10:57:16.977Z</time></trkpt><trkpt lat="16.2407416" lon="-61.4497771"><ele>87.0</ele><time>2026-04-18T10:57:19.974Z</time></trkpt><trkpt lat="16.2407933" lon="-61.4498223"><ele>87.0</ele><time>2026-04-18T10:57:22.987Z</time></trkpt><trkpt lat="16.2408675" lon="-61.4498487"><ele>87.0</ele><time>2026-04-18T10:57:28.999Z</time></trkpt><trkpt lat="16.2409578" lon="-61.4498838"><ele>87.0</ele><time>2026-04-18T10:57:31.996Z</time></trkpt><trkpt lat="16.2410275" lon="-61.4499101"><ele>87.0</ele><time>2026-04-18T10:57:33.99Z</time></trkpt><trkpt lat="16.241113" lon="-61.4499354"><ele>87.0</ele><time>2026-04-18T10:57:36.993Z</time></trkpt><trkpt lat="16.241177" lon="-61.4499697"><ele>87.0</ele><time>2026-04-18T10:57:39.992Z</time></trkpt><trkpt lat="16.2412603" lon="-61.4500015"><ele>87.0</ele><time>2026-04-18T10:57:42.982Z</time></trkpt><trkpt lat="16.2413265" lon="-61.4500249"><ele>87.0</ele><time>2026-04-18T10:57:44.99Z</time></trkpt><trkpt lat="16.2414019" lon="-61.450022"><ele>87.0</ele><time>2026-04-18T10:57:48.001Z</time></trkpt><trkpt lat="16.2414771" lon="-61.4500465"><ele>88.42857142857143</ele><time>2026-04-18T10:57:50.989Z</time></trkpt><trkpt lat="16.2415348" lon="-61.4500752"><ele>89.85714285714286</ele><time>2026-04-18T10:57:53.01Z</time></trkpt><trkpt lat="16.2415953" lon="-61.4501076"><ele>91.28571428571428</ele><time>2026-04-18T10:57:54.998Z</time></trkpt><trkpt lat="16.2416572" lon="-61.4501236"><ele>92.71428571428572</ele><time>2026-04-18T10:57:56.973Z</time></trkpt><trkpt lat="16.2417222" lon="-61.450116"><ele>94.14285714285715</ele><time>2026-04-18T10:57:59.982Z</time></trkpt><trkpt lat="16.2417877" lon="-61.4500918"><ele>95.57142857142857</ele><time>2026-04-18T10:58:08.989Z</time></trkpt><trkpt lat="16.2418576" lon="-61.4501132"><ele>97.0</ele><time>2026-04-18T10:58:14.995Z</time></trkpt><trkpt lat="16.241933" lon="-61.4501376"><ele>97.0</ele><time>2026-04-18T10:58:19.983Z</time></trkpt><trkpt lat="16.2420064" lon="-61.450106"><ele>97.0</ele><time>2026-04-18T10:58:24.01Z</time></trkpt><trkpt lat="16.242099" lon="-61.4500119"><ele>97.0</ele><time>2026-04-18T10:58:26.002Z</time></trkpt><trkpt lat="16.2421388" lon="-61.4499402"><ele>97.0</ele><time>2026-04-18T10:58:27.001Z</time></trkpt><trkpt lat="16.2421605" lon="-61.4498528"><ele>97.0</ele><time>2026-04-18T10:58:27.989Z</time></trkpt><trkpt lat="16.2421704" lon="-61.4497669"><ele>97.0</ele><time>2026-04-18T10:58:28.999Z</time></trkpt><trkpt lat="16.2421592" lon="-61.4496651"><ele>97.0</ele><time>2026-04-18T10:58:29.996Z</time></trkpt><trkpt lat="16.2421279" lon="-61.4495621"><ele>97.0</ele><time>2026-04-18T10:58:30.999Z</time></trkpt><trkpt lat="16.2420897" lon="-61.449455"><ele>97.0</ele><time>2026-04-18T10:58:32.002Z</time></trkpt><trkpt lat="16.242048" lon="-61.4493551"><ele>97.0</ele><time>2026-04-18T10:58:32.983Z</time></trkpt><trkpt lat="16.2419911" lon="-61.4492675"><ele>98.33333333333334</ele><time>2026-04-18T10:58:33.994Z</time></trkpt><trkpt lat="16.2419354" lon="-61.4491924"><ele>99.66666666666667</ele><time>2026-04-18T10:58:34.976Z</time></trkpt><trkpt lat="16.2418779" lon="-61.4491286"><ele>101.0</ele><time>2026-04-18T10:58:35.993Z</time></trkpt><trkpt lat="16.2418054" lon="-61.4490783"><ele>102.33333333333334</ele><time>2026-04-18T10:58:36.999Z</time></trkpt><trkpt lat="16.2417392" lon="-61.4490266"><ele>103.66666666666667</ele><time>2026-04-18T10:58:38.003Z</time></trkpt><trkpt lat="16.2416694" lon="-61.4489666"><ele>105.0</ele><time>2026-04-18T10:58:38.997Z</time></trkpt><trkpt lat="16.2416031" lon="-61.4489006"><ele>105.0</ele><time>2026-04-18T10:58:39.995Z</time></trkpt><trkpt lat="16.2415431" lon="-61.4488211"><ele>105.0</ele><time>2026-04-18T10:58:41.001Z</time></trkpt><trkpt lat="16.2415001" lon="-61.4487292"><ele>105.0</ele><time>2026-04-18T10:58:41.996Z</time></trkpt><trkpt lat="16.2414549" lon="-61.4486302"><ele>105.0</ele><time>2026-04-18T10:58:42.972Z</time></trkpt><trkpt lat="16.2414167" lon="-61.4485339"><ele>105.0</ele><time>2026-04-18T10:58:44.004Z</time></trkpt><trkpt lat="16.2413743" lon="-61.4484398"><ele>105.4</ele><time>2026-04-18T10:58:44.986Z</time></trkpt><trkpt lat="16.2413303" lon="-61.4483518"><ele>105.8</ele><time>2026-04-18T10:58:45.993Z</time></trkpt><trkpt lat="16.2412778" lon="-61.4482693"><ele>106.19999999999999</ele><time>2026-04-18T10:58:46.997Z</time></trkpt><trkpt lat="16.2412114" lon="-61.4481953"><ele>106.6</ele><time>2026-04-18T10:58:47.997Z</time></trkpt><trkpt lat="16.2411266" lon="-61.4481365"><ele>107.0</ele><time>2026-04-18T10:58:48.999Z</time></trkpt><trkpt lat="16.241038" lon="-61.4481039"><ele>107.0</ele><time>2026-04-18T10:58:49.986Z</time></trkpt><trkpt lat="16.2409404" lon="-61.4480761"><ele>106.99999999999999</ele><time>2026-04-18T10:58:51.009Z</time></trkpt><trkpt lat="16.2408347" lon="-61.4480591"><ele>106.99999999999999</ele><time>2026-04-18T10:58:51.994Z</time></trkpt><trkpt lat="16.2407266" lon="-61.4480502"><ele>107.0</ele><time>2026-04-18T10:58:52.993Z</time></trkpt><trkpt lat="16.240618" lon="-61.4480411"><ele>107.0</ele><time>2026-04-18T10:58:53.955Z</time></trkpt><trkpt lat="16.2405175" lon="-61.4480257"><ele>106.49999999999999</ele><time>2026-04-18T10:58:54.992Z</time></trkpt><trkpt lat="16.2404199" lon="-61.4480153"><ele>106.0</ele><time>2026-04-18T10:58:56.001Z</time></trkpt><trkpt lat="16.2403224" lon="-61.4480064"><ele>105.5</ele><time>2026-04-18T10:58:56.993Z</time></trkpt><trkpt lat="16.2402294" lon="-61.4479893"><ele>105.0</ele><time>2026-04-18T10:58:58Z</time></trkpt><trkpt lat="16.2401575" lon="-61.4479743"><ele>104.49999999999999</ele><time>2026-04-18T10:58:59.052Z</time></trkpt><trkpt lat="16.2400882" lon="-61.4479367"><ele>104.0</ele><time>2026-04-18T10:59:00.985Z</time></trkpt><trkpt lat="16.2401229" lon="-61.4480025"><ele>103.99999999999999</ele><time>2026-04-18T10:59:11.989Z</time></trkpt><trkpt lat="16.2401579" lon="-61.4480616"><ele>104.0</ele><time>2026-04-18T10:59:13.97Z</time></trkpt><trkpt lat="16.24022" lon="-61.4481761"><ele>104.0</ele><time>2026-04-18T10:59:15.985Z</time></trkpt><trkpt lat="16.240253" lon="-61.4482499"><ele>104.0</ele><time>2026-04-18T10:59:17.035Z</time></trkpt><trkpt lat="16.2402871" lon="-61.4483314"><ele>103.99999999999999</ele><time>2026-04-18T10:59:18.035Z</time></trkpt><trkpt lat="16.2403078" lon="-61.4484195"><ele>104.0</ele><time>2026-04-18T10:59:18.98Z</time></trkpt><trkpt lat="16.2403166" lon="-61.4485079"><ele>103.99999999999999</ele><time>2026-04-18T10:59:19.997Z</time></trkpt><trkpt lat="16.2403083" lon="-61.4485993"><ele>104.0</ele><time>2026-04-18T10:59:20.983Z</time></trkpt><trkpt lat="16.2402864" lon="-61.4486942"><ele>104.0</ele><time>2026-04-18T10:59:21.993Z</time></trkpt><trkpt lat="16.2402565" lon="-61.4487752"><ele>104.0</ele><time>2026-04-18T10:59:23.002Z</time></trkpt><trkpt lat="16.2402395" lon="-61.4488474"><ele>103.99999999999999</ele><time>2026-04-18T10:59:23.99Z</time></trkpt><trkpt lat="16.2402083" lon="-61.4489239"><ele>104.0</ele><time>2026-04-18T10:59:25.972Z</time></trkpt><trkpt lat="16.2402355" lon="-61.4487662"><ele>104.0</ele><time>2026-04-18T10:59:28.988Z</time></trkpt><trkpt lat="16.2402746" lon="-61.4486466"><ele>104.0</ele><time>2026-04-18T10:59:29.99Z</time></trkpt><trkpt lat="16.2402956" lon="-61.4485316"><ele>104.0</ele><time>2026-04-18T10:59:30.993Z</time></trkpt><trkpt lat="16.2403054" lon="-61.4484087"><ele>104.0</ele><time>2026-04-18T10:59:31.998Z</time></trkpt><trkpt lat="16.2402989" lon="-61.4482873"><ele>104.0</ele><time>2026-04-18T10:59:32.978Z</time></trkpt><trkpt lat="16.2402701" lon="-61.4481616"><ele>104.0</ele><time>2026-04-18T10:59:33.986Z</time></trkpt><trkpt lat="16.2402241" lon="-61.4480406"><ele>104.0</ele><time>2026-04-18T10:59:34.981Z</time></trkpt><trkpt lat="16.2401665" lon="-61.4479167"><ele>104.0</ele><time>2026-04-18T10:59:35.982Z</time></trkpt><trkpt lat="16.2400868" lon="-61.4478178"><ele>103.6</ele><time>2026-04-18T10:59:36.997Z</time></trkpt><trkpt lat="16.2399971" lon="-61.4477342"><ele>103.2</ele><time>2026-04-18T10:59:37.998Z</time></trkpt><trkpt lat="16.2399244" lon="-61.4476461"><ele>102.8</ele><time>2026-04-18T10:59:38.967Z</time></trkpt><trkpt lat="16.2398687" lon="-61.447551"><ele>102.39999999999999</ele><time>2026-04-18T10:59:39.989Z</time></trkpt><trkpt lat="16.2398274" lon="-61.4474552"><ele>102.0</ele><time>2026-04-18T10:59:40.988Z</time></trkpt><trkpt lat="16.2397996" lon="-61.4473283"><ele>100.75</ele><time>2026-04-18T10:59:41.994Z</time></trkpt><trkpt lat="16.2397836" lon="-61.4472059"><ele>99.5</ele><time>2026-04-18T10:59:42.983Z</time></trkpt><trkpt lat="16.2397607" lon="-61.4470813"><ele>98.25</ele><time>2026-04-18T10:59:43.999Z</time></trkpt><trkpt lat="16.239729" lon="-61.4469635"><ele>97.0</ele><time>2026-04-18T10:59:45.001Z</time></trkpt><trkpt lat="16.2397054" lon="-61.446853"><ele>99.19999999999999</ele><time>2026-04-18T10:59:45.954Z</time></trkpt><trkpt lat="16.2396729" lon="-61.4467409"><ele>101.4</ele><time>2026-04-18T10:59:47.035Z</time></trkpt><trkpt lat="16.239637" lon="-61.4466322"><ele>103.60000000000001</ele><time>2026-04-18T10:59:48.037Z</time></trkpt><trkpt lat="16.2395947" lon="-61.4465207"><ele>105.80000000000001</ele><time>2026-04-18T10:59:49.018Z</time></trkpt><trkpt lat="16.2395796" lon="-61.4464157"><ele>108.0</ele><time>2026-04-18T10:59:49.987Z</time></trkpt><trkpt lat="16.2395978" lon="-61.4463242"><ele>107.4</ele><time>2026-04-18T10:59:50.999Z</time></trkpt><trkpt lat="16.2396326" lon="-61.4462451"><ele>106.80000000000001</ele><time>2026-04-18T10:59:52.071Z</time></trkpt><trkpt lat="16.2396781" lon="-61.4461619"><ele>106.2</ele><time>2026-04-18T10:59:53.001Z</time></trkpt><trkpt lat="16.239719" lon="-61.4460655"><ele>105.6</ele><time>2026-04-18T10:59:54.026Z</time></trkpt><trkpt lat="16.2397491" lon="-61.4459643"><ele>105.0</ele><time>2026-04-18T10:59:54.975Z</time></trkpt><trkpt lat="16.2397596" lon="-61.4458638"><ele>105.0</ele><time>2026-04-18T10:59:55.985Z</time></trkpt><trkpt lat="16.2397436" lon="-61.4457627"><ele>105.0</ele><time>2026-04-18T10:59:56.992Z</time></trkpt><trkpt lat="16.2396942" lon="-61.4456531"><ele>105.0</ele><time>2026-04-18T10:59:57.961Z</time></trkpt><trkpt lat="16.2396317" lon="-61.445539"><ele>105.0</ele><time>2026-04-18T10:59:59.037Z</time></trkpt><trkpt lat="16.239566" lon="-61.4454292"><ele>107.6</ele><time>2026-04-18T10:59:59.993Z</time></trkpt><trkpt lat="16.2395357" lon="-61.445314"><ele>110.2</ele><time>2026-04-18T11:00:00.995Z</time></trkpt><trkpt lat="16.2395238" lon="-61.445195"><ele>112.80000000000001</ele><time>2026-04-18T11:00:01.986Z</time></trkpt><trkpt lat="16.2395411" lon="-61.4450908"><ele>115.4</ele><time>2026-04-18T11:00:03.033Z</time></trkpt><trkpt lat="16.2395708" lon="-61.4449857"><ele>118.0</ele><time>2026-04-18T11:00:04.031Z</time></trkpt><trkpt lat="16.2396101" lon="-61.4448765"><ele>118.0</ele><time>2026-04-18T11:00:04.994Z</time></trkpt><trkpt lat="16.2396584" lon="-61.4447873"><ele>118.00000000000001</ele><time>2026-04-18T11:00:06.004Z</time></trkpt><trkpt lat="16.2397195" lon="-61.4447326"><ele>118.00000000000001</ele><time>2026-04-18T11:00:07.07Z</time></trkpt><trkpt lat="16.239792" lon="-61.4446912"><ele>118.0</ele><time>2026-04-18T11:00:08.03Z</time></trkpt><trkpt lat="16.2398822" lon="-61.4446546"><ele>118.0</ele><time>2026-04-18T11:00:09.023Z</time></trkpt><trkpt lat="16.2399949" lon="-61.444628"><ele>116.5</ele><time>2026-04-18T11:00:09.989Z</time></trkpt><trkpt lat="16.2401203" lon="-61.4446006"><ele>115.0</ele><time>2026-04-18T11:00:10.997Z</time></trkpt><trkpt lat="16.24025" lon="-61.4445733"><ele>113.5</ele><time>2026-04-18T11:00:12.004Z</time></trkpt><trkpt lat="16.2403727" lon="-61.4445306"><ele>112.0</ele><time>2026-04-18T11:00:12.985Z</time></trkpt><trkpt lat="16.240489" lon="-61.4444874"><ele>112.0</ele><time>2026-04-18T11:00:14.002Z</time></trkpt><trkpt lat="16.2405969" lon="-61.4444401"><ele>112.0</ele><time>2026-04-18T11:00:14.991Z</time></trkpt><trkpt lat="16.2406956" lon="-61.4443743"><ele>112.0</ele><time>2026-04-18T11:00:15.974Z</time></trkpt><trkpt lat="16.2407827" lon="-61.4442858"><ele>112.0</ele><time>2026-04-18T11:00:16.988Z</time></trkpt><trkpt lat="16.2408571" lon="-61.4441956"><ele>113.25</ele><time>2026-04-18T11:00:17.982Z</time></trkpt><trkpt lat="16.2409289" lon="-61.4440974"><ele>114.5</ele><time>2026-04-18T11:00:18.958Z</time></trkpt><trkpt lat="16.240994" lon="-61.4440008"><ele>115.75</ele><time>2026-04-18T11:00:19.954Z</time></trkpt><trkpt lat="16.2410512" lon="-61.4438932"><ele>117.0</ele><time>2026-04-18T11:00:20.979Z</time></trkpt><trkpt lat="16.2411104" lon="-61.4437876"><ele>114.25</ele><time>2026-04-18T11:00:21.992Z</time></trkpt><trkpt lat="16.2411679" lon="-61.4436849"><ele>111.5</ele><time>2026-04-18T11:00:22.989Z</time></trkpt><trkpt lat="16.2412269" lon="-61.4435751"><ele>108.75</ele><time>2026-04-18T11:00:23.966Z</time></trkpt><trkpt lat="16.2412771" lon="-61.443467"><ele>106.0</ele><time>2026-04-18T11:00:24.96Z</time></trkpt><trkpt lat="16.241338" lon="-61.4433617"><ele>106.0</ele><time>2026-04-18T11:00:26Z</time></trkpt><trkpt lat="16.2413868" lon="-61.4432543"><ele>106.0</ele><time>2026-04-18T11:00:26.991Z</time></trkpt><trkpt lat="16.2414191" lon="-61.4431346"><ele>106.0</ele><time>2026-04-18T11:00:27.986Z</time></trkpt><trkpt lat="16.241432" lon="-61.4430162"><ele>106.0</ele><time>2026-04-18T11:00:28.995Z</time></trkpt><trkpt lat="16.2414343" lon="-61.4428949"><ele>108.0</ele><time>2026-04-18T11:00:30.003Z</time></trkpt><trkpt lat="16.2414278" lon="-61.4427782"><ele>110.0</ele><time>2026-04-18T11:00:30.996Z</time></trkpt><trkpt lat="16.2414116" lon="-61.4426624"><ele>112.0</ele><time>2026-04-18T11:00:31.993Z</time></trkpt><trkpt lat="16.2413805" lon="-61.4425519"><ele>114.0</ele><time>2026-04-18T11:00:32.993Z</time></trkpt><trkpt lat="16.241337" lon="-61.4424447"><ele>116.0</ele><time>2026-04-18T11:00:33.992Z</time></trkpt><trkpt lat="16.2412819" lon="-61.4423573"><ele>116.00000000000001</ele><time>2026-04-18T11:00:34.989Z</time></trkpt><trkpt lat="16.241247" lon="-61.4422978"><ele>116.0</ele><time>2026-04-18T11:00:35.986Z</time></trkpt><trkpt lat="16.2412427" lon="-61.4422201"><ele>116.00000000000001</ele><time>2026-04-18T11:00:40.967Z</time></trkpt><trkpt lat="16.2412819" lon="-61.4421558"><ele>116.00000000000001</ele><time>2026-04-18T11:00:46.973Z</time></trkpt><trkpt lat="16.2413283" lon="-61.4420947"><ele>116.0</ele><time>2026-04-18T11:00:50.984Z</time></trkpt><trkpt lat="16.24137" lon="-61.4420418"><ele>116.00000000000001</ele><time>2026-04-18T11:00:54.993Z</time></trkpt><trkpt lat="16.2414008" lon="-61.4419704"><ele>116.00000000000001</ele><time>2026-04-18T11:00:58.987Z</time></trkpt><trkpt lat="16.241431" lon="-61.4419117"><ele>116.2857142857143</ele><time>2026-04-18T11:01:01.982Z</time></trkpt><trkpt lat="16.2414601" lon="-61.4418466"><ele>116.57142857142858</ele><time>2026-04-18T11:01:05.985Z</time></trkpt><trkpt lat="16.2415112" lon="-61.4417965"><ele>116.85714285714286</ele><time>2026-04-18T11:01:09.98Z</time></trkpt><trkpt lat="16.2415673" lon="-61.4417662"><ele>117.14285714285715</ele><time>2026-04-18T11:01:12.969Z</time></trkpt><trkpt lat="16.2416326" lon="-61.4417187"><ele>117.42857142857144</ele><time>2026-04-18T11:01:16.979Z</time></trkpt><trkpt lat="16.2416917" lon="-61.4416693"><ele>117.71428571428571</ele><time>2026-04-18T11:01:20.979Z</time></trkpt><trkpt lat="16.2417422" lon="-61.4416044"><ele>118.0</ele><time>2026-04-18T11:01:24.974Z</time></trkpt><trkpt lat="16.2417926" lon="-61.4415646"><ele>115.16666666666667</ele><time>2026-04-18T11:01:29.992Z</time></trkpt><trkpt lat="16.2418575" lon="-61.4415606"><ele>112.33333333333334</ele><time>2026-04-18T11:01:33.989Z</time></trkpt><trkpt lat="16.2419099" lon="-61.4415177"><ele>109.5</ele><time>2026-04-18T11:01:35.983Z</time></trkpt><trkpt lat="16.2419664" lon="-61.441473"><ele>106.66666666666666</ele><time>2026-04-18T11:01:37.98Z</time></trkpt><trkpt lat="16.2420144" lon="-61.4414291"><ele>103.83333333333333</ele><time>2026-04-18T11:01:39.968Z</time></trkpt><trkpt lat="16.2420843" lon="-61.441375"><ele>101.0</ele><time>2026-04-18T11:01:41.988Z</time></trkpt><trkpt lat="16.2421609" lon="-61.4413135"><ele>101.8</ele><time>2026-04-18T11:01:42.99Z</time></trkpt><trkpt lat="16.2422322" lon="-61.4412656"><ele>102.6</ele><time>2026-04-18T11:01:43.989Z</time></trkpt><trkpt lat="16.2423351" lon="-61.4412368"><ele>103.4</ele><time>2026-04-18T11:01:44.991Z</time></trkpt><trkpt lat="16.2424355" lon="-61.4412073"><ele>104.2</ele><time>2026-04-18T11:01:45.99Z</time></trkpt><trkpt lat="16.2425259" lon="-61.4412011"><ele>105.0</ele><time>2026-04-18T11:01:47.043Z</time></trkpt><trkpt lat="16.2426151" lon="-61.4411912"><ele>102.33333333333333</ele><time>2026-04-18T11:01:48.057Z</time></trkpt><trkpt lat="16.2427038" lon="-61.4411871"><ele>99.66666666666667</ele><time>2026-04-18T11:01:48.979Z</time></trkpt><trkpt lat="16.2427876" lon="-61.4411752"><ele>97.0</ele><time>2026-04-18T11:01:49.988Z</time></trkpt><trkpt lat="16.2428763" lon="-61.4411659"><ele>94.33333333333334</ele><time>2026-04-18T11:01:50.98Z</time></trkpt><trkpt lat="16.2429609" lon="-61.4411795"><ele>91.66666666666667</ele><time>2026-04-18T11:01:51.992Z</time></trkpt><trkpt lat="16.2430407" lon="-61.4411954"><ele>89.0</ele><time>2026-04-18T11:01:52.988Z</time></trkpt><trkpt lat="16.2431142" lon="-61.4412177"><ele>88.2</ele><time>2026-04-18T11:01:53.976Z</time></trkpt><trkpt lat="16.2431806" lon="-61.4412331"><ele>87.4</ele><time>2026-04-18T11:01:54.985Z</time></trkpt><trkpt lat="16.2432847" lon="-61.4412881"><ele>86.6</ele><time>2026-04-18T11:01:57.042Z</time></trkpt><trkpt lat="16.2433742" lon="-61.4413751"><ele>85.8</ele><time>2026-04-18T11:01:58.983Z</time></trkpt><trkpt lat="16.2434516" lon="-61.4414501"><ele>85.0</ele><time>2026-04-18T11:02:00.985Z</time></trkpt><trkpt lat="16.2435084" lon="-61.4415031"><ele>87.0</ele><time>2026-04-18T11:02:01.975Z</time></trkpt><trkpt lat="16.2435888" lon="-61.4415444"><ele>89.0</ele><time>2026-04-18T11:02:02.996Z</time></trkpt><trkpt lat="16.2436753" lon="-61.4415943"><ele>91.0</ele><time>2026-04-18T11:02:04.063Z</time></trkpt><trkpt lat="16.2437751" lon="-61.4416436"><ele>93.0</ele><time>2026-04-18T11:02:04.985Z</time></trkpt><trkpt lat="16.2438699" lon="-61.4417033"><ele>95.0</ele><time>2026-04-18T11:02:05.987Z</time></trkpt><trkpt lat="16.2439617" lon="-61.4417516"><ele>93.66666666666667</ele><time>2026-04-18T11:02:06.986Z</time></trkpt><trkpt lat="16.2440395" lon="-61.4418009"><ele>92.33333333333334</ele><time>2026-04-18T11:02:07.987Z</time></trkpt><trkpt lat="16.2441116" lon="-61.4418539"><ele>91.0</ele><time>2026-04-18T11:02:08.988Z</time></trkpt><trkpt lat="16.2441796" lon="-61.4419134"><ele>89.66666666666667</ele><time>2026-04-18T11:02:09.987Z</time></trkpt><trkpt lat="16.2442465" lon="-61.4419772"><ele>88.33333333333333</ele><time>2026-04-18T11:02:10.98Z</time></trkpt><trkpt lat="16.2443056" lon="-61.4420287"><ele>87.0</ele><time>2026-04-18T11:02:11.977Z</time></trkpt><trkpt lat="16.244357" lon="-61.4420755"><ele>87.0</ele><time>2026-04-18T11:02:13.04Z</time></trkpt><trkpt lat="16.2444039" lon="-61.442123"><ele>87.0</ele><time>2026-04-18T11:02:14.046Z</time></trkpt><trkpt lat="16.2444544" lon="-61.4421739"><ele>87.0</ele><time>2026-04-18T11:02:14.976Z</time></trkpt><trkpt lat="16.2445065" lon="-61.4422242"><ele>87.0</ele><time>2026-04-18T11:02:15.982Z</time></trkpt><trkpt lat="16.2445614" lon="-61.4422685"><ele>87.0</ele><time>2026-04-18T11:02:16.984Z</time></trkpt><trkpt lat="16.2446238" lon="-61.4423136"><ele>87.0</ele><time>2026-04-18T11:02:18.049Z</time></trkpt><trkpt lat="16.2446943" lon="-61.442351"><ele>87.0</ele><time>2026-04-18T11:02:19.045Z</time></trkpt><trkpt lat="16.2447688" lon="-61.4423871"><ele>85.28571428571428</ele><time>2026-04-18T11:02:19.97Z</time></trkpt><trkpt lat="16.2448371" lon="-61.4424255"><ele>83.57142857142857</ele><time>2026-04-18T11:02:20.977Z</time></trkpt><trkpt lat="16.2448993" lon="-61.4424663"><ele>81.85714285714286</ele><time>2026-04-18T11:02:21.979Z</time></trkpt><trkpt lat="16.2449555" lon="-61.4424979"><ele>80.14285714285714</ele><time>2026-04-18T11:02:23.067Z</time></trkpt><trkpt lat="16.2450367" lon="-61.4425362"><ele>78.42857142857143</ele><time>2026-04-18T11:02:24.974Z</time></trkpt><trkpt lat="16.245088" lon="-61.4425832"><ele>76.71428571428571</ele><time>2026-04-18T11:02:27.992Z</time></trkpt><trkpt lat="16.245143" lon="-61.4425427"><ele>75.0</ele><time>2026-04-18T11:02:35.967Z</time></trkpt><trkpt lat="16.245198" lon="-61.4424461"><ele>75.0</ele><time>2026-04-18T11:02:37.975Z</time></trkpt><trkpt lat="16.2452238" lon="-61.4423818"><ele>75.0</ele><time>2026-04-18T11:02:38.964Z</time></trkpt><trkpt lat="16.245259" lon="-61.4423115"><ele>75.0</ele><time>2026-04-18T11:02:39.989Z</time></trkpt><trkpt lat="16.245294" lon="-61.4422495"><ele>75.0</ele><time>2026-04-18T11:02:40.996Z</time></trkpt><trkpt lat="16.2453545" lon="-61.442153"><ele>75.0</ele><time>2026-04-18T11:02:42.981Z</time></trkpt><trkpt lat="16.2454026" lon="-61.4420648"><ele>75.0</ele><time>2026-04-18T11:02:44.99Z</time></trkpt><trkpt lat="16.2454354" lon="-61.4419754"><ele>76.8</ele><time>2026-04-18T11:02:46.995Z</time></trkpt><trkpt lat="16.2454603" lon="-61.4419018"><ele>78.6</ele><time>2026-04-18T11:02:48.978Z</time></trkpt><trkpt lat="16.2454808" lon="-61.4418346"><ele>80.4</ele><time>2026-04-18T11:02:50.988Z</time></trkpt><trkpt lat="16.2454945" lon="-61.4417584"><ele>82.2</ele><time>2026-04-18T11:02:52.976Z</time></trkpt><trkpt lat="16.2455061" lon="-61.4416404"><ele>84.0</ele><time>2026-04-18T11:02:54.98Z</time></trkpt><trkpt lat="16.2455041" lon="-61.4415155"><ele>84.0</ele><time>2026-04-18T11:02:56.992Z</time></trkpt><trkpt lat="16.245491" lon="-61.441415"><ele>84.0</ele><time>2026-04-18T11:02:58.995Z</time></trkpt><trkpt lat="16.2455358" lon="-61.4413624"><ele>84.0</ele><time>2026-04-18T11:03:01.974Z</time></trkpt><trkpt lat="16.2456323" lon="-61.4413555"><ele>84.0</ele><time>2026-04-18T11:03:04.052Z</time></trkpt><trkpt lat="16.2457011" lon="-61.4413619"><ele>84.0</ele><time>2026-04-18T11:03:04.972Z</time></trkpt><trkpt lat="16.2457629" lon="-61.4413771"><ele>84.0</ele><time>2026-04-18T11:03:05.989Z</time></trkpt><trkpt lat="16.2458296" lon="-61.4413959"><ele>82.4</ele><time>2026-04-18T11:03:06.999Z</time></trkpt><trkpt lat="16.2458943" lon="-61.4414086"><ele>80.80000000000001</ele><time>2026-04-18T11:03:07.982Z</time></trkpt><trkpt lat="16.2459995" lon="-61.4413905"><ele>79.19999999999999</ele><time>2026-04-18T11:03:09.987Z</time></trkpt><trkpt lat="16.2460877" lon="-61.4413739"><ele>77.6</ele><time>2026-04-18T11:03:11.977Z</time></trkpt><trkpt lat="16.2461833" lon="-61.4413557"><ele>76.0</ele><time>2026-04-18T11:03:14.052Z</time></trkpt><trkpt lat="16.246272" lon="-61.4413083"><ele>77.0</ele><time>2026-04-18T11:03:15.987Z</time></trkpt><trkpt lat="16.246366" lon="-61.4412414"><ele>78.0</ele><time>2026-04-18T11:03:17.985Z</time></trkpt><trkpt lat="16.2464223" lon="-61.4412099"><ele>79.0</ele><time>2026-04-18T11:03:18.991Z</time></trkpt><trkpt lat="16.2464876" lon="-61.4411778"><ele>80.0</ele><time>2026-04-18T11:03:19.997Z</time></trkpt><trkpt lat="16.2465522" lon="-61.44115"><ele>81.0</ele><time>2026-04-18T11:03:20.964Z</time></trkpt><trkpt lat="16.2466346" lon="-61.4411056"><ele>82.0</ele><time>2026-04-18T11:03:23.035Z</time></trkpt><trkpt lat="16.2467016" lon="-61.441081"><ele>82.83333333333333</ele><time>2026-04-18T11:03:25.984Z</time></trkpt><trkpt lat="16.2467813" lon="-61.4410863"><ele>83.66666666666666</ele><time>2026-04-18T11:03:36.974Z</time></trkpt><trkpt lat="16.2468699" lon="-61.441064"><ele>84.5</ele><time>2026-04-18T11:03:38.986Z</time></trkpt><trkpt lat="16.2469682" lon="-61.4410498"><ele>85.33333333333333</ele><time>2026-04-18T11:03:40.991Z</time></trkpt><trkpt lat="16.2470448" lon="-61.441044"><ele>86.16666666666667</ele><time>2026-04-18T11:03:43.065Z</time></trkpt><trkpt lat="16.2471302" lon="-61.4410338"><ele>87.0</ele><time>2026-04-18T11:03:46.991Z</time></trkpt><trkpt lat="16.2471989" lon="-61.4410074"><ele>87.0</ele><time>2026-04-18T11:03:48.99Z</time></trkpt><trkpt lat="16.247161" lon="-61.4410639"><ele>87.0</ele><time>2026-04-18T11:04:07.028Z</time></trkpt><trkpt lat="16.2470866" lon="-61.4410922"><ele>87.0</ele><time>2026-04-18T11:04:09.973Z</time></trkpt><trkpt lat="16.2470128" lon="-61.4410898"><ele>87.0</ele><time>2026-04-18T11:04:22.981Z</time></trkpt><trkpt lat="16.2469466" lon="-61.4410681"><ele>87.0</ele><time>2026-04-18T11:04:25.975Z</time></trkpt><trkpt lat="16.2468658" lon="-61.4410732"><ele>87.0</ele><time>2026-04-18T11:04:28.987Z</time></trkpt><trkpt lat="16.2467772" lon="-61.4411103"><ele>87.0</ele><time>2026-04-18T11:04:31.984Z</time></trkpt><trkpt lat="16.2466957" lon="-61.4411381"><ele>87.0</ele><time>2026-04-18T11:04:33.977Z</time></trkpt><trkpt lat="16.246616" lon="-61.4411694"><ele>87.0</ele><time>2026-04-18T11:04:35.979Z</time></trkpt><trkpt lat="16.2464986" lon="-61.4412187"><ele>87.0</ele><time>2026-04-18T11:04:37.989Z</time></trkpt><trkpt lat="16.2464355" lon="-61.4412496"><ele>87.0</ele><time>2026-04-18T11:04:38.989Z</time></trkpt><trkpt lat="16.2463765" lon="-61.4412757"><ele>87.0</ele><time>2026-04-18T11:04:39.981Z</time></trkpt><trkpt lat="16.2462752" lon="-61.4413247"><ele>84.8</ele><time>2026-04-18T11:04:41.986Z</time></trkpt><trkpt lat="16.2461908" lon="-61.4413594"><ele>82.6</ele><time>2026-04-18T11:04:44.042Z</time></trkpt><trkpt lat="16.2461033" lon="-61.4413819"><ele>80.39999999999999</ele><time>2026-04-18T11:04:45.964Z</time></trkpt><trkpt lat="16.246011" lon="-61.4413844"><ele>78.19999999999999</ele><time>2026-04-18T11:04:47.979Z</time></trkpt><trkpt lat="16.2458982" lon="-61.441372"><ele>76.0</ele><time>2026-04-18T11:04:49.962Z</time></trkpt><trkpt lat="16.2457884" lon="-61.4413389"><ele>76.0</ele><time>2026-04-18T11:04:51.982Z</time></trkpt><trkpt lat="16.2456916" lon="-61.4413176"><ele>76.0</ele><time>2026-04-18T11:04:53.958Z</time></trkpt><trkpt lat="16.2455843" lon="-61.4413056"><ele>76.0</ele><time>2026-04-18T11:04:56.095Z</time></trkpt><trkpt lat="16.2455062" lon="-61.4413341"><ele>76.0</ele><time>2026-04-18T11:04:57.994Z</time></trkpt><trkpt lat="16.2454898" lon="-61.441448"><ele>76.0</ele><time>2026-04-18T11:05:00.981Z</time></trkpt><trkpt lat="16.2454975" lon="-61.4415674"><ele>77.33333333333333</ele><time>2026-04-18T11:05:02.994Z</time></trkpt><trkpt lat="16.2455058" lon="-61.4416363"><ele>78.66666666666666</ele><time>2026-04-18T11:05:04.975Z</time></trkpt><trkpt lat="16.2454991" lon="-61.4417118"><ele>80.0</ele><time>2026-04-18T11:06:11.972Z</time></trkpt><trkpt lat="16.2454951" lon="-61.4417845"><ele>81.33333333333333</ele><time>2026-04-18T11:06:13.955Z</time></trkpt><trkpt lat="16.2454654" lon="-61.4418745"><ele>82.66666666666667</ele><time>2026-04-18T11:06:15.98Z</time></trkpt><trkpt lat="16.2454353" lon="-61.441968"><ele>84.0</ele><time>2026-04-18T11:06:17.951Z</time></trkpt><trkpt lat="16.2454124" lon="-61.4420573"><ele>82.5</ele><time>2026-04-18T11:06:19.99Z</time></trkpt><trkpt lat="16.2453879" lon="-61.4421396"><ele>81.0</ele><time>2026-04-18T11:06:22.058Z</time></trkpt><trkpt lat="16.2453607" lon="-61.4422003"><ele>79.5</ele><time>2026-04-18T11:06:24.982Z</time></trkpt><trkpt lat="16.2453421" lon="-61.4422729"><ele>78.0</ele><time>2026-04-18T11:06:26.973Z</time></trkpt><trkpt lat="16.2452923" lon="-61.4423681"><ele>76.5</ele><time>2026-04-18T11:06:28.999Z</time></trkpt><trkpt lat="16.2452249" lon="-61.4424651"><ele>75.0</ele><time>2026-04-18T11:06:30.978Z</time></trkpt><trkpt lat="16.2451989" lon="-61.4425563"><ele>75.0</ele><time>2026-04-18T11:06:32.983Z</time></trkpt><trkpt lat="16.2452229" lon="-61.4426452"><ele>75.0</ele><time>2026-04-18T11:06:34.981Z</time></trkpt><trkpt lat="16.2452676" lon="-61.4427437"><ele>75.0</ele><time>2026-04-18T11:06:36.99Z</time></trkpt><trkpt lat="16.2452933" lon="-61.4428159"><ele>75.0</ele><time>2026-04-18T11:06:38.005Z</time></trkpt><trkpt lat="16.2453078" lon="-61.4429055"><ele>75.0</ele><time>2026-04-18T11:06:38.997Z</time></trkpt><trkpt lat="16.2453253" lon="-61.4429856"><ele>75.0</ele><time>2026-04-18T11:06:39.978Z</time></trkpt><trkpt lat="16.245339" lon="-61.443078"><ele>75.5</ele><time>2026-04-18T11:06:40.979Z</time></trkpt><trkpt lat="16.2453535" lon="-61.4431735"><ele>76.0</ele><time>2026-04-18T11:06:41.986Z</time></trkpt><trkpt lat="16.2453744" lon="-61.4432649"><ele>76.5</ele><time>2026-04-18T11:06:42.984Z</time></trkpt><trkpt lat="16.2453965" lon="-61.4433453"><ele>77.0</ele><time>2026-04-18T11:06:43.984Z</time></trkpt><trkpt lat="16.245411" lon="-61.4434524"><ele>77.5</ele><time>2026-04-18T11:06:45.999Z</time></trkpt><trkpt lat="16.2454297" lon="-61.4435218"><ele>78.0</ele><time>2026-04-18T11:06:47.985Z</time></trkpt><trkpt lat="16.2454615" lon="-61.4435835"><ele>78.0</ele><time>2026-04-18T11:06:50.981Z</time></trkpt><trkpt lat="16.2454685" lon="-61.4436713"><ele>78.0</ele><time>2026-04-18T11:06:52.979Z</time></trkpt><trkpt lat="16.2454847" lon="-61.4437623"><ele>78.0</ele><time>2026-04-18T11:06:54.995Z</time></trkpt><trkpt lat="16.2455018" lon="-61.4439009"><ele>78.0</ele><time>2026-04-18T11:06:56.997Z</time></trkpt><trkpt lat="16.2454986" lon="-61.4439968"><ele>78.0</ele><time>2026-04-18T11:06:58.037Z</time></trkpt><trkpt lat="16.2454796" lon="-61.4441303"><ele>80.33333333333333</ele><time>2026-04-18T11:06:59.034Z</time></trkpt><trkpt lat="16.2454526" lon="-61.4442999"><ele>82.66666666666666</ele><time>2026-04-18T11:06:59.98Z</time></trkpt><trkpt lat="16.2454316" lon="-61.4444599"><ele>85.0</ele><time>2026-04-18T11:07:00.983Z</time></trkpt><trkpt lat="16.2454131" lon="-61.444598"><ele>84.8</ele><time>2026-04-18T11:07:01.99Z</time></trkpt><trkpt lat="16.2454144" lon="-61.444721"><ele>84.6</ele><time>2026-04-18T11:07:02.985Z</time></trkpt><trkpt lat="16.2454327" lon="-61.444824"><ele>84.4</ele><time>2026-04-18T11:07:03.985Z</time></trkpt><trkpt lat="16.2454548" lon="-61.4449265"><ele>84.2</ele><time>2026-04-18T11:07:04.985Z</time></trkpt><trkpt lat="16.2454808" lon="-61.4450248"><ele>84.0</ele><time>2026-04-18T11:07:06.048Z</time></trkpt><trkpt lat="16.2455169" lon="-61.4451223"><ele>84.0</ele><time>2026-04-18T11:07:07.03Z</time></trkpt><trkpt lat="16.2455573" lon="-61.4452223"><ele>84.0</ele><time>2026-04-18T11:07:07.983Z</time></trkpt><trkpt lat="16.2456086" lon="-61.4453189"><ele>84.0</ele><time>2026-04-18T11:07:08.977Z</time></trkpt><trkpt lat="16.2456669" lon="-61.4454245"><ele>84.0</ele><time>2026-04-18T11:07:09.971Z</time></trkpt><trkpt lat="16.2457601" lon="-61.4455693"><ele>79.66666666666667</ele><time>2026-04-18T11:07:10.981Z</time></trkpt><trkpt lat="16.2458529" lon="-61.4457256"><ele>75.33333333333334</ele><time>2026-04-18T11:07:11.978Z</time></trkpt><trkpt lat="16.2459393" lon="-61.4458755"><ele>71.0</ele><time>2026-04-18T11:07:12.99Z</time></trkpt><trkpt lat="16.2460237" lon="-61.4459923"><ele>71.0</ele><time>2026-04-18T11:07:14.055Z</time></trkpt><trkpt lat="16.2460809" lon="-61.4460792"><ele>71.0</ele><time>2026-04-18T11:07:14.98Z</time></trkpt><trkpt lat="16.2461238" lon="-61.4461387"><ele>71.0</ele><time>2026-04-18T11:07:15.973Z</time></trkpt><trkpt lat="16.2461726" lon="-61.4462412"><ele>71.0</ele><time>2026-04-18T11:07:18.028Z</time></trkpt><trkpt lat="16.246196" lon="-61.446332"><ele>71.0</ele><time>2026-04-18T11:07:19.977Z</time></trkpt><trkpt lat="16.2462093" lon="-61.4464216"><ele>71.0</ele><time>2026-04-18T11:07:21.98Z</time></trkpt><trkpt lat="16.2462074" lon="-61.4465479"><ele>71.0</ele><time>2026-04-18T11:07:24.06Z</time></trkpt><trkpt lat="16.2461838" lon="-61.4466166"><ele>71.0</ele><time>2026-04-18T11:07:24.98Z</time></trkpt><trkpt lat="16.2461605" lon="-61.4466941"><ele>71.0</ele><time>2026-04-18T11:07:25.988Z</time></trkpt><trkpt lat="16.246135" lon="-61.4467749"><ele>71.0</ele><time>2026-04-18T11:07:27.001Z</time></trkpt><trkpt lat="16.2461002" lon="-61.4468589"><ele>71.0</ele><time>2026-04-18T11:07:28.059Z</time></trkpt><trkpt lat="16.2460526" lon="-61.4469439"><ele>71.0</ele><time>2026-04-18T11:07:29.039Z</time></trkpt><trkpt lat="16.2460012" lon="-61.4470411"><ele>71.0</ele><time>2026-04-18T11:07:29.98Z</time></trkpt><trkpt lat="16.2459396" lon="-61.4471398"><ele>71.0</ele><time>2026-04-18T11:07:30.987Z</time></trkpt><trkpt lat="16.2458753" lon="-61.4472294"><ele>71.0</ele><time>2026-04-18T11:07:31.998Z</time></trkpt><trkpt lat="16.2458152" lon="-61.4473143"><ele>71.0</ele><time>2026-04-18T11:07:33.043Z</time></trkpt><trkpt lat="16.2457566" lon="-61.4474058"><ele>70.39999999999999</ele><time>2026-04-18T11:07:33.964Z</time></trkpt><trkpt lat="16.2457" lon="-61.4475048"><ele>69.8</ele><time>2026-04-18T11:07:34.995Z</time></trkpt><trkpt lat="16.2456451" lon="-61.4476034"><ele>69.19999999999999</ele><time>2026-04-18T11:07:35.987Z</time></trkpt><trkpt lat="16.2455922" lon="-61.4476995"><ele>68.6</ele><time>2026-04-18T11:07:36.994Z</time></trkpt><trkpt lat="16.2455492" lon="-61.4477979"><ele>68.0</ele><time>2026-04-18T11:07:38.045Z</time></trkpt><trkpt lat="16.2455084" lon="-61.4478979"><ele>69.2</ele><time>2026-04-18T11:07:39.049Z</time></trkpt><trkpt lat="16.24547" lon="-61.4479881"><ele>70.4</ele><time>2026-04-18T11:07:39.997Z</time></trkpt><trkpt lat="16.2454297" lon="-61.4480792"><ele>71.60000000000001</ele><time>2026-04-18T11:07:40.994Z</time></trkpt><trkpt lat="16.2453937" lon="-61.4481583"><ele>72.8</ele><time>2026-04-18T11:07:41.98Z</time></trkpt><trkpt lat="16.245355" lon="-61.4482333"><ele>74.0</ele><time>2026-04-18T11:07:42.979Z</time></trkpt><trkpt lat="16.2452871" lon="-61.4483173"><ele>74.0</ele><time>2026-04-18T11:07:44.961Z</time></trkpt><trkpt lat="16.2452133" lon="-61.4483263"><ele>74.0</ele><time>2026-04-18T11:07:53.052Z</time></trkpt><trkpt lat="16.2452167" lon="-61.4484071"><ele>74.0</ele><time>2026-04-18T11:08:01.051Z</time></trkpt><trkpt lat="16.2452484" lon="-61.4484729"><ele>74.0</ele><time>2026-04-18T11:08:03.98Z</time></trkpt><trkpt lat="16.2452805" lon="-61.4485377"><ele>74.0</ele><time>2026-04-18T11:08:06.979Z</time></trkpt><trkpt lat="16.2453408" lon="-61.4486151"><ele>74.0</ele><time>2026-04-18T11:08:09.994Z</time></trkpt><trkpt lat="16.2454092" lon="-61.4486701"><ele>74.0</ele><time>2026-04-18T11:08:11.997Z</time></trkpt><trkpt lat="16.2454627" lon="-61.4487288"><ele>74.0</ele><time>2026-04-18T11:08:13.977Z</time></trkpt><trkpt lat="16.245511" lon="-61.4487889"><ele>74.0</ele><time>2026-04-18T11:08:15.989Z</time></trkpt><trkpt lat="16.2455629" lon="-61.44886"><ele>74.0</ele><time>2026-04-18T11:08:18.041Z</time></trkpt><trkpt lat="16.2456256" lon="-61.448935"><ele>74.0</ele><time>2026-04-18T11:08:19.978Z</time></trkpt><trkpt lat="16.2456819" lon="-61.448974"><ele>74.0</ele><time>2026-04-18T11:08:23.975Z</time></trkpt><trkpt lat="16.2456364" lon="-61.4490223"><ele>77.66666666666667</ele><time>2026-04-18T11:08:53.986Z</time></trkpt><trkpt lat="16.2455752" lon="-61.4490852"><ele>81.33333333333334</ele><time>2026-04-18T11:08:56.993Z</time></trkpt><trkpt lat="16.2455187" lon="-61.4491287"><ele>85.0</ele><time>2026-04-18T11:08:59.045Z</time></trkpt><trkpt lat="16.2454523" lon="-61.4491813"><ele>88.66666666666667</ele><time>2026-04-18T11:09:00.977Z</time></trkpt><trkpt lat="16.2453955" lon="-61.4492274"><ele>92.33333333333333</ele><time>2026-04-18T11:09:03.001Z</time></trkpt><trkpt lat="16.2454673" lon="-61.4492591"><ele>96.0</ele><time>2026-04-18T11:10:03.977Z</time></trkpt><trkpt lat="16.2455334" lon="-61.4492772"><ele>96.0</ele><time>2026-04-18T11:10:06.987Z</time></trkpt><trkpt lat="16.2456016" lon="-61.4492649"><ele>96.0</ele><time>2026-04-18T11:10:08.822Z</time></trkpt><trkpt lat="16.2456675" lon="-61.4493248"><ele>96.0</ele><time>2026-04-18T11:10:10.972Z</time></trkpt><trkpt lat="16.2457092" lon="-61.4493977"><ele>96.0</ele><time>2026-04-18T11:10:12.885Z</time></trkpt><trkpt lat="16.2457435" lon="-61.4494626"><ele>96.0</ele><time>2026-04-18T11:10:15.975Z</time></trkpt><trkpt lat="16.2457459" lon="-61.449542"><ele>96.0</ele><time>2026-04-18T11:10:29.985Z</time></trkpt><trkpt lat="16.245703" lon="-61.4496086"><ele>97.16666666666667</ele><time>2026-04-18T11:10:32.973Z</time></trkpt><trkpt lat="16.2456393" lon="-61.4496755"><ele>98.33333333333334</ele><time>2026-04-18T11:10:35.987Z</time></trkpt><trkpt lat="16.2455832" lon="-61.4497393"><ele>99.5</ele><time>2026-04-18T11:10:37.994Z</time></trkpt><trkpt lat="16.245548" lon="-61.4498199"><ele>100.66666666666667</ele><time>2026-04-18T11:10:39.907Z</time></trkpt><trkpt lat="16.2455068" lon="-61.4499206"><ele>101.83333333333334</ele><time>2026-04-18T11:10:41.972Z</time></trkpt><trkpt lat="16.2454574" lon="-61.4499814"><ele>103.0</ele><time>2026-04-18T11:10:43.905Z</time></trkpt><trkpt lat="16.2453628" lon="-61.4499847"><ele>103.00000000000001</ele><time>2026-04-18T11:10:45.99Z</time></trkpt><trkpt lat="16.2452431" lon="-61.4499195"><ele>103.0</ele><time>2026-04-18T11:10:47.992Z</time></trkpt><trkpt lat="16.2451674" lon="-61.449882"><ele>103.0</ele><time>2026-04-18T11:10:49.005Z</time></trkpt><trkpt lat="16.245101" lon="-61.4498477"><ele>103.0</ele><time>2026-04-18T11:10:50.004Z</time></trkpt><trkpt lat="16.2450325" lon="-61.4498183"><ele>103.00000000000001</ele><time>2026-04-18T11:10:50.996Z</time></trkpt><trkpt lat="16.244959" lon="-61.4497899"><ele>103.0</ele><time>2026-04-18T11:10:51.995Z</time></trkpt><trkpt lat="16.2448853" lon="-61.449763"><ele>103.0</ele><time>2026-04-18T11:10:53.007Z</time></trkpt><trkpt lat="16.2448172" lon="-61.4497426"><ele>103.0</ele><time>2026-04-18T11:10:53.982Z</time></trkpt><trkpt lat="16.2447517" lon="-61.4497248"><ele>103.0</ele><time>2026-04-18T11:10:54.994Z</time></trkpt><trkpt lat="16.2446402" lon="-61.4497226"><ele>103.0</ele><time>2026-04-18T11:10:56.997Z</time></trkpt><trkpt lat="16.2445264" lon="-61.4497462"><ele>103.0</ele><time>2026-04-18T11:10:59.003Z</time></trkpt><trkpt lat="16.2444302" lon="-61.4497874"><ele>104.16666666666667</ele><time>2026-04-18T11:11:01.002Z</time></trkpt><trkpt lat="16.2443339" lon="-61.4498429"><ele>105.33333333333334</ele><time>2026-04-18T11:11:03.004Z</time></trkpt><trkpt lat="16.2442464" lon="-61.4498826"><ele>106.5</ele><time>2026-04-18T11:11:04.995Z</time></trkpt><trkpt lat="16.2441833" lon="-61.4499305"><ele>107.66666666666666</ele><time>2026-04-18T11:11:06.998Z</time></trkpt><trkpt lat="16.2441379" lon="-61.4499917"><ele>108.83333333333333</ele><time>2026-04-18T11:11:10.01Z</time></trkpt><trkpt lat="16.2440745" lon="-61.4499808"><ele>110.0</ele><time>2026-04-18T11:11:15.006Z</time></trkpt><trkpt lat="16.2440779" lon="-61.4499042"><ele>109.99999999999999</ele><time>2026-04-18T11:11:19.009Z</time></trkpt><trkpt lat="16.2440005" lon="-61.4499162"><ele>110.0</ele><time>2026-04-18T11:11:55.995Z</time></trkpt><trkpt lat="16.2439267" lon="-61.4498696"><ele>110.0</ele><time>2026-04-18T11:11:58.999Z</time></trkpt><trkpt lat="16.2438649" lon="-61.4498565"><ele>110.0</ele><time>2026-04-18T11:12:01.003Z</time></trkpt><trkpt lat="16.2438059" lon="-61.4498168"><ele>109.99999999999999</ele><time>2026-04-18T11:12:04.02Z</time></trkpt><trkpt lat="16.2437476" lon="-61.4497889"><ele>110.0</ele><time>2026-04-18T11:12:05.971Z</time></trkpt><trkpt lat="16.2436672" lon="-61.4497462"><ele>109.33333333333333</ele><time>2026-04-18T11:12:09.011Z</time></trkpt><trkpt lat="16.2436081" lon="-61.4497094"><ele>108.66666666666666</ele><time>2026-04-18T11:12:10.997Z</time></trkpt><trkpt lat="16.2435494" lon="-61.4496576"><ele>108.0</ele><time>2026-04-18T11:12:13.999Z</time></trkpt><trkpt lat="16.2435057" lon="-61.4495868"><ele>107.33333333333334</ele><time>2026-04-18T11:12:17.991Z</time></trkpt><trkpt lat="16.2435098" lon="-61.4495091"><ele>106.66666666666667</ele><time>2026-04-18T11:12:21.998Z</time></trkpt><trkpt lat="16.2435039" lon="-61.4494109"><ele>106.0</ele><time>2026-04-18T11:12:24.98Z</time></trkpt><trkpt lat="16.2434958" lon="-61.4493433"><ele>106.00000000000001</ele><time>2026-04-18T11:12:27.977Z</time></trkpt><trkpt lat="16.2435669" lon="-61.4494191"><ele>106.0</ele><time>2026-04-18T11:12:38.97Z</time></trkpt><trkpt lat="16.2436167" lon="-61.4494903"><ele>106.0</ele><time>2026-04-18T11:12:42.005Z</time></trkpt><trkpt lat="16.2436617" lon="-61.4495623"><ele>106.0</ele><time>2026-04-18T11:12:44.985Z</time></trkpt><trkpt lat="16.2437199" lon="-61.4496153"><ele>106.00000000000001</ele><time>2026-04-18T11:12:48.983Z</time></trkpt><trkpt lat="16.2437918" lon="-61.4496478"><ele>106.0</ele><time>2026-04-18T11:12:51.999Z</time></trkpt><trkpt lat="16.2438729" lon="-61.4496816"><ele>106.0</ele><time>2026-04-18T11:12:54.986Z</time></trkpt><trkpt lat="16.2439363" lon="-61.4496902"><ele>106.0</ele><time>2026-04-18T11:12:57.992Z</time></trkpt><trkpt lat="16.2438724" lon="-61.449648"><ele>106.0</ele><time>2026-04-18T11:13:32.983Z</time></trkpt><trkpt lat="16.2438052" lon="-61.4496182"><ele>106.0</ele><time>2026-04-18T11:13:34.986Z</time></trkpt><trkpt lat="16.2437436" lon="-61.4495959"><ele>106.0</ele><time>2026-04-18T11:13:36.991Z</time></trkpt><trkpt lat="16.243674" lon="-61.4495567"><ele>106.0</ele><time>2026-04-18T11:13:40.994Z</time></trkpt><trkpt lat="16.2436245" lon="-61.4494897"><ele>106.0</ele><time>2026-04-18T11:13:43.968Z</time></trkpt><trkpt lat="16.2435859" lon="-61.4494349"><ele>106.00000000000001</ele><time>2026-04-18T11:13:45.999Z</time></trkpt><trkpt lat="16.2435546" lon="-61.4493719"><ele>106.0</ele><time>2026-04-18T11:13:47.996Z</time></trkpt><trkpt lat="16.2435404" lon="-61.4494569"><ele>106.0</ele><time>2026-04-18T11:13:57.973Z</time></trkpt><trkpt lat="16.2435334" lon="-61.4495435"><ele>106.0</ele><time>2026-04-18T11:14:00.994Z</time></trkpt><trkpt lat="16.2435746" lon="-61.4496327"><ele>106.00000000000001</ele><time>2026-04-18T11:14:03.992Z</time></trkpt><trkpt lat="16.2436215" lon="-61.4496874"><ele>106.0</ele><time>2026-04-18T11:14:05.99Z</time></trkpt><trkpt lat="16.2436627" lon="-61.4497376"><ele>106.00000000000001</ele><time>2026-04-18T11:14:08.01Z</time></trkpt><trkpt lat="16.2437423" lon="-61.4497853"><ele>106.0</ele><time>2026-04-18T11:14:10.979Z</time></trkpt><trkpt lat="16.2438036" lon="-61.4498135"><ele>106.0</ele><time>2026-04-18T11:14:13.975Z</time></trkpt><trkpt lat="16.2438648" lon="-61.4498539"><ele>106.0</ele><time>2026-04-18T11:14:15.995Z</time></trkpt><trkpt lat="16.2439495" lon="-61.4499026"><ele>106.00000000000001</ele><time>2026-04-18T11:14:17.975Z</time></trkpt><trkpt lat="16.2440123" lon="-61.4499199"><ele>106.0</ele><time>2026-04-18T11:14:19.968Z</time></trkpt><trkpt lat="16.2440996" lon="-61.4499413"><ele>106.66666666666667</ele><time>2026-04-18T11:14:22.992Z</time></trkpt><trkpt lat="16.2441545" lon="-61.4499903"><ele>107.33333333333334</ele><time>2026-04-18T11:14:27.99Z</time></trkpt><trkpt lat="16.244193" lon="-61.4499316"><ele>108.0</ele><time>2026-04-18T11:14:43.948Z</time></trkpt><trkpt lat="16.2442555" lon="-61.4498776"><ele>108.66666666666666</ele><time>2026-04-18T11:14:46.964Z</time></trkpt><trkpt lat="16.2443166" lon="-61.449841"><ele>109.33333333333333</ele><time>2026-04-18T11:14:47.981Z</time></trkpt><trkpt lat="16.2443923" lon="-61.449812"><ele>110.0</ele><time>2026-04-18T11:14:48.965Z</time></trkpt><trkpt lat="16.2444849" lon="-61.4497728"><ele>109.99999999999999</ele><time>2026-04-18T11:14:49.998Z</time></trkpt><trkpt lat="16.2445887" lon="-61.4497274"><ele>110.0</ele><time>2026-04-18T11:14:50.976Z</time></trkpt><trkpt lat="16.244672" lon="-61.4496835"><ele>110.0</ele><time>2026-04-18T11:14:51.989Z</time></trkpt><trkpt lat="16.244761" lon="-61.4496426"><ele>110.0</ele><time>2026-04-18T11:14:53.979Z</time></trkpt><trkpt lat="16.2448214" lon="-61.4496661"><ele>109.99999999999999</ele><time>2026-04-18T11:15:00.982Z</time></trkpt><trkpt lat="16.2447652" lon="-61.4496968"><ele>110.0</ele><time>2026-04-18T11:15:03.983Z</time></trkpt><trkpt lat="16.2446716" lon="-61.4497087"><ele>110.0</ele><time>2026-04-18T11:15:04.998Z</time></trkpt><trkpt lat="16.2445655" lon="-61.449713"><ele>110.0</ele><time>2026-04-18T11:15:05.999Z</time></trkpt><trkpt lat="16.2444645" lon="-61.4497361"><ele>110.0</ele><time>2026-04-18T11:15:06.955Z</time></trkpt><trkpt lat="16.2443647" lon="-61.4497855"><ele>110.0</ele><time>2026-04-18T11:15:08.008Z</time></trkpt><trkpt lat="16.2442628" lon="-61.449851"><ele>110.0</ele><time>2026-04-18T11:15:08.985Z</time></trkpt><trkpt lat="16.2441742" lon="-61.4498974"><ele>110.0</ele><time>2026-04-18T11:15:09.978Z</time></trkpt><trkpt lat="16.2441171" lon="-61.4499251"><ele>110.0</ele><time>2026-04-18T11:15:11.001Z</time></trkpt><trkpt lat="16.2442389" lon="-61.4498778"><ele>110.0</ele><time>2026-04-18T11:15:19.979Z</time></trkpt><trkpt lat="16.2443237" lon="-61.4498456"><ele>110.0</ele><time>2026-04-18T11:15:20.996Z</time></trkpt><trkpt lat="16.2444386" lon="-61.4498045"><ele>110.0</ele><time>2026-04-18T11:15:21.986Z</time></trkpt><trkpt lat="16.2445653" lon="-61.4497618"><ele>109.99999999999999</ele><time>2026-04-18T11:15:22.997Z</time></trkpt><trkpt lat="16.2446686" lon="-61.4497292"><ele>110.0</ele><time>2026-04-18T11:15:23.996Z</time></trkpt><trkpt lat="16.2447365" lon="-61.449714"><ele>110.0</ele><time>2026-04-18T11:15:24.999Z</time></trkpt><trkpt lat="16.2448273" lon="-61.4496958"><ele>110.0</ele><time>2026-04-18T11:15:26.99Z</time></trkpt><trkpt lat="16.2448916" lon="-61.4497131"><ele>109.99999999999999</ele><time>2026-04-18T11:15:35.008Z</time></trkpt><trkpt lat="16.2449605" lon="-61.4497454"><ele>110.0</ele><time>2026-04-18T11:15:36.972Z</time></trkpt><trkpt lat="16.2450633" lon="-61.4497811"><ele>108.83333333333333</ele><time>2026-04-18T11:15:38.994Z</time></trkpt><trkpt lat="16.2451594" lon="-61.4498156"><ele>107.66666666666666</ele><time>2026-04-18T11:15:41Z</time></trkpt><trkpt lat="16.2452325" lon="-61.4498298"><ele>106.5</ele><time>2026-04-18T11:15:43.988Z</time></trkpt><trkpt lat="16.2453201" lon="-61.4498532"><ele>105.33333333333334</ele><time>2026-04-18T11:15:50.975Z</time></trkpt><trkpt lat="16.2453912" lon="-61.4498473"><ele>104.16666666666667</ele><time>2026-04-18T11:15:55.067Z</time></trkpt><trkpt lat="16.2453263" lon="-61.4498786"><ele>103.0</ele><time>2026-04-18T11:16:22.994Z</time></trkpt><trkpt lat="16.2453459" lon="-61.4499533"><ele>103.00000000000001</ele><time>2026-04-18T11:16:26.991Z</time></trkpt><trkpt lat="16.245417" lon="-61.4499293"><ele>103.0</ele><time>2026-04-18T11:16:29.981Z</time></trkpt><trkpt lat="16.2455044" lon="-61.4499132"><ele>103.0</ele><time>2026-04-18T11:16:32.997Z</time></trkpt><trkpt lat="16.2455481" lon="-61.4498451"><ele>103.0</ele><time>2026-04-18T11:16:35.983Z</time></trkpt><trkpt lat="16.2455821" lon="-61.4497726"><ele>103.00000000000001</ele><time>2026-04-18T11:16:38.993Z</time></trkpt><trkpt lat="16.2456217" lon="-61.4497141"><ele>103.0</ele><time>2026-04-18T11:16:41.989Z</time></trkpt><trkpt lat="16.2456518" lon="-61.4496481"><ele>101.83333333333334</ele><time>2026-04-18T11:16:44.974Z</time></trkpt><trkpt lat="16.2456873" lon="-61.4495789"><ele>100.66666666666667</ele><time>2026-04-18T11:16:47.99Z</time></trkpt><trkpt lat="16.2457067" lon="-61.4495125"><ele>99.5</ele><time>2026-04-18T11:16:50.973Z</time></trkpt><trkpt lat="16.2457214" lon="-61.449436"><ele>98.33333333333334</ele><time>2026-04-18T11:16:53.987Z</time></trkpt><trkpt lat="16.2456849" lon="-61.4493394"><ele>97.16666666666667</ele><time>2026-04-18T11:16:56.993Z</time></trkpt><trkpt lat="16.2456433" lon="-61.4492795"><ele>96.0</ele><time>2026-04-18T11:16:58.993Z</time></trkpt><trkpt lat="16.2455854" lon="-61.4492411"><ele>96.0</ele><time>2026-04-18T11:17:00.999Z</time></trkpt><trkpt lat="16.2455054" lon="-61.4492072"><ele>96.0</ele><time>2026-04-18T11:17:03.997Z</time></trkpt><trkpt lat="16.2454425" lon="-61.4491971"><ele>96.0</ele><time>2026-04-18T11:17:37.977Z</time></trkpt><trkpt lat="16.2455016" lon="-61.449136"><ele>96.0</ele><time>2026-04-18T11:17:46.978Z</time></trkpt><trkpt lat="16.245569" lon="-61.4490727"><ele>96.0</ele><time>2026-04-18T11:17:49.977Z</time></trkpt><trkpt lat="16.2456189" lon="-61.4490251"><ele>96.0</ele><time>2026-04-18T11:17:52.973Z</time></trkpt><trkpt lat="16.245621" lon="-61.4489435"><ele>96.0</ele><time>2026-04-18T11:17:57.054Z</time></trkpt><trkpt lat="16.2455723" lon="-61.4488652"><ele>96.0</ele><time>2026-04-18T11:17:59.981Z</time></trkpt><trkpt lat="16.2455241" lon="-61.4488099"><ele>96.0</ele><time>2026-04-18T11:18:02.995Z</time></trkpt><trkpt lat="16.2454858" lon="-61.4487403"><ele>96.0</ele><time>2026-04-18T11:18:06.987Z</time></trkpt><trkpt lat="16.2455326" lon="-61.4487932"><ele>96.0</ele><time>2026-04-18T11:18:16.99Z</time></trkpt><trkpt lat="16.2455635" lon="-61.4488721"><ele>96.0</ele><time>2026-04-18T11:18:19.972Z</time></trkpt><trkpt lat="16.2456127" lon="-61.4489201"><ele>96.0</ele><time>2026-04-18T11:18:21.981Z</time></trkpt><trkpt lat="16.2456363" lon="-61.4489868"><ele>96.0</ele><time>2026-04-18T11:18:47.998Z</time></trkpt><trkpt lat="16.245576" lon="-61.44904"><ele>96.0</ele><time>2026-04-18T11:18:55.983Z</time></trkpt><trkpt lat="16.24551" lon="-61.4490884"><ele>96.0</ele><time>2026-04-18T11:18:57.991Z</time></trkpt><trkpt lat="16.245455" lon="-61.4491289"><ele>96.0</ele><time>2026-04-18T11:18:59.073Z</time></trkpt><trkpt lat="16.2453736" lon="-61.4492129"><ele>96.0</ele><time>2026-04-18T11:19:00.98Z</time></trkpt><trkpt lat="16.2454462" lon="-61.4492468"><ele>96.0</ele><time>2026-04-18T11:19:29.992Z</time></trkpt><trkpt lat="16.2455262" lon="-61.449266"><ele>96.0</ele><time>2026-04-18T11:19:32.073Z</time></trkpt><trkpt lat="16.2456056" lon="-61.4492877"><ele>96.0</ele><time>2026-04-18T11:19:34.047Z</time></trkpt><trkpt lat="16.2456684" lon="-61.4493452"><ele>96.0</ele><time>2026-04-18T11:19:35.989Z</time></trkpt><trkpt lat="16.2457128" lon="-61.4494257"><ele>96.0</ele><time>2026-04-18T11:19:37.995Z</time></trkpt><trkpt lat="16.2457244" lon="-61.4494916"><ele>96.0</ele><time>2026-04-18T11:19:39.979Z</time></trkpt><trkpt lat="16.245701" lon="-61.4495798"><ele>97.4</ele><time>2026-04-18T11:19:44.969Z</time></trkpt><trkpt lat="16.2456555" lon="-61.4496416"><ele>98.8</ele><time>2026-04-18T11:19:46.982Z</time></trkpt><trkpt lat="16.2455906" lon="-61.4497326"><ele>100.2</ele><time>2026-04-18T11:19:48.998Z</time></trkpt><trkpt lat="16.2455429" lon="-61.4498487"><ele>101.60000000000001</ele><time>2026-04-18T11:19:50.996Z</time></trkpt><trkpt lat="16.2454772" lon="-61.4499528"><ele>103.0</ele><time>2026-04-18T11:19:52.993Z</time></trkpt><trkpt lat="16.2453946" lon="-61.4499871"><ele>103.0</ele><time>2026-04-18T11:19:54.981Z</time></trkpt><trkpt lat="16.2452835" lon="-61.449954"><ele>103.0</ele><time>2026-04-18T11:19:56.989Z</time></trkpt><trkpt lat="16.2452235" lon="-61.4499227"><ele>103.0</ele><time>2026-04-18T11:19:57.991Z</time></trkpt><trkpt lat="16.2451672" lon="-61.4498902"><ele>103.0</ele><time>2026-04-18T11:19:59.05Z</time></trkpt><trkpt lat="16.2450686" lon="-61.4498292"><ele>103.0</ele><time>2026-04-18T11:20:00.987Z</time></trkpt><trkpt lat="16.2449772" lon="-61.4497798"><ele>103.0</ele><time>2026-04-18T11:20:03.007Z</time></trkpt><trkpt lat="16.2448574" lon="-61.4497353"><ele>103.0</ele><time>2026-04-18T11:20:05.002Z</time></trkpt><trkpt lat="16.2447936" lon="-61.4497124"><ele>103.0</ele><time>2026-04-18T11:20:06.04Z</time></trkpt><trkpt lat="16.2447249" lon="-61.4497037"><ele>103.0</ele><time>2026-04-18T11:20:06.982Z</time></trkpt><trkpt lat="16.244566" lon="-61.44974"><ele>103.0</ele><time>2026-04-18T11:20:08.984Z</time></trkpt><trkpt lat="16.244488" lon="-61.4497627"><ele>104.16666666666667</ele><time>2026-04-18T11:20:09.997Z</time></trkpt><trkpt lat="16.2444185" lon="-61.4497855"><ele>105.33333333333334</ele><time>2026-04-18T11:20:11.001Z</time></trkpt><trkpt lat="16.2443519" lon="-61.449809"><ele>106.5</ele><time>2026-04-18T11:20:12.001Z</time></trkpt><trkpt lat="16.244292" lon="-61.4498344"><ele>107.66666666666666</ele><time>2026-04-18T11:20:12.999Z</time></trkpt><trkpt lat="16.2441936" lon="-61.4498943"><ele>108.83333333333333</ele><time>2026-04-18T11:20:14.986Z</time></trkpt><trkpt lat="16.2441436" lon="-61.4499601"><ele>110.0</ele><time>2026-04-18T11:20:16.983Z</time></trkpt><trkpt lat="16.2440847" lon="-61.4500029"><ele>109.99999999999999</ele><time>2026-04-18T11:20:19.982Z</time></trkpt><trkpt lat="16.2440314" lon="-61.4499311"><ele>110.0</ele><time>2026-04-18T11:20:23.987Z</time></trkpt><trkpt lat="16.2440016" lon="-61.4499987"><ele>110.0</ele><time>2026-04-18T11:20:29.057Z</time></trkpt><trkpt lat="16.2440608" lon="-61.4500364"><ele>110.0</ele><time>2026-04-18T11:20:32.985Z</time></trkpt><trkpt lat="16.2441389" lon="-61.4499907"><ele>109.99999999999999</ele><time>2026-04-18T11:20:35.992Z</time></trkpt><trkpt lat="16.244219" lon="-61.4499361"><ele>110.0</ele><time>2026-04-18T11:20:37.064Z</time></trkpt><trkpt lat="16.2443073" lon="-61.4498786"><ele>110.0</ele><time>2026-04-18T11:20:37.994Z</time></trkpt><trkpt lat="16.244404" lon="-61.449816"><ele>110.0</ele><time>2026-04-18T11:20:38.995Z</time></trkpt><trkpt lat="16.244504" lon="-61.4497653"><ele>110.0</ele><time>2026-04-18T11:20:39.992Z</time></trkpt><trkpt lat="16.244609" lon="-61.4497364"><ele>110.0</ele><time>2026-04-18T11:20:41.008Z</time></trkpt><trkpt lat="16.2447069" lon="-61.44972"><ele>110.0</ele><time>2026-04-18T11:20:41.997Z</time></trkpt><trkpt lat="16.2447989" lon="-61.4497051"><ele>108.6</ele><time>2026-04-18T11:20:43.024Z</time></trkpt><trkpt lat="16.2448872" lon="-61.4497181"><ele>107.2</ele><time>2026-04-18T11:20:44.057Z</time></trkpt><trkpt lat="16.2449821" lon="-61.4497563"><ele>105.80000000000001</ele><time>2026-04-18T11:20:44.993Z</time></trkpt><trkpt lat="16.2450825" lon="-61.4498108"><ele>104.4</ele><time>2026-04-18T11:20:46.001Z</time></trkpt><trkpt lat="16.2451736" lon="-61.4498457"><ele>103.0</ele><time>2026-04-18T11:20:46.979Z</time></trkpt><trkpt lat="16.2452496" lon="-61.4498838"><ele>103.00000000000001</ele><time>2026-04-18T11:20:48.038Z</time></trkpt><trkpt lat="16.2453247" lon="-61.4499158"><ele>103.0</ele><time>2026-04-18T11:20:49.988Z</time></trkpt><trkpt lat="16.2453855" lon="-61.4499495"><ele>103.0</ele><time>2026-04-18T11:21:06.003Z</time></trkpt><trkpt lat="16.2454792" lon="-61.4499484"><ele>103.0</ele><time>2026-04-18T11:21:08.985Z</time></trkpt><trkpt lat="16.245539" lon="-61.4498966"><ele>103.00000000000001</ele><time>2026-04-18T11:21:10.982Z</time></trkpt><trkpt lat="16.2455713" lon="-61.4498103"><ele>103.0</ele><time>2026-04-18T11:21:13.984Z</time></trkpt><trkpt lat="16.2455942" lon="-61.4497377"><ele>101.83333333333334</ele><time>2026-04-18T11:21:17.003Z</time></trkpt><trkpt lat="16.2456317" lon="-61.4496652"><ele>100.66666666666667</ele><time>2026-04-18T11:21:19.976Z</time></trkpt><trkpt lat="16.2456688" lon="-61.4496056"><ele>99.5</ele><time>2026-04-18T11:21:23.069Z</time></trkpt><trkpt lat="16.2457013" lon="-61.4495243"><ele>98.33333333333334</ele><time>2026-04-18T11:21:28.001Z</time></trkpt><trkpt lat="16.2456867" lon="-61.4494284"><ele>97.16666666666667</ele><time>2026-04-18T11:21:31.004Z</time></trkpt><trkpt lat="16.2456476" lon="-61.4493643"><ele>96.0</ele><time>2026-04-18T11:21:33.005Z</time></trkpt><trkpt lat="16.245582" lon="-61.4493168"><ele>96.0</ele><time>2026-04-18T11:21:34.979Z</time></trkpt><trkpt lat="16.2455011" lon="-61.449275"><ele>96.0</ele><time>2026-04-18T11:21:36.987Z</time></trkpt><trkpt lat="16.2454295" lon="-61.449248"><ele>96.0</ele><time>2026-04-18T11:21:38.986Z</time></trkpt><trkpt lat="16.2454541" lon="-61.4491861"><ele>96.0</ele><time>2026-04-18T11:21:42.08Z</time></trkpt><trkpt lat="16.2455047" lon="-61.4491192"><ele>96.0</ele><time>2026-04-18T11:21:43.971Z</time></trkpt><trkpt lat="16.2455641" lon="-61.4490646"><ele>96.0</ele><time>2026-04-18T11:21:45.997Z</time></trkpt><trkpt lat="16.2456174" lon="-61.4490076"><ele>95.99999999999999</ele><time>2026-04-18T11:21:47.98Z</time></trkpt><trkpt lat="16.2456044" lon="-61.4489252"><ele>96.0</ele><time>2026-04-18T11:21:51.985Z</time></trkpt><trkpt lat="16.2455651" lon="-61.4488697"><ele>96.0</ele><time>2026-04-18T11:21:53.998Z</time></trkpt><trkpt lat="16.2455182" lon="-61.4488162"><ele>96.0</ele><time>2026-04-18T11:21:56.993Z</time></trkpt><trkpt lat="16.2454606" lon="-61.4487557"><ele>96.0</ele><time>2026-04-18T11:21:59.988Z</time></trkpt><trkpt lat="16.245414" lon="-61.4486958"><ele>95.99999999999999</ele><time>2026-04-18T11:22:54.976Z</time></trkpt><trkpt lat="16.245465" lon="-61.4487516"><ele>96.0</ele><time>2026-04-18T11:23:04.988Z</time></trkpt><trkpt lat="16.2455178" lon="-61.4488284"><ele>96.0</ele><time>2026-04-18T11:23:07.976Z</time></trkpt><trkpt lat="16.2455864" lon="-61.4488951"><ele>96.0</ele><time>2026-04-18T11:23:09.974Z</time></trkpt><trkpt lat="16.2456208" lon="-61.4489712"><ele>96.0</ele><time>2026-04-18T11:23:13.063Z</time></trkpt><trkpt lat="16.2455592" lon="-61.4490417"><ele>96.0</ele><time>2026-04-18T11:23:15.978Z</time></trkpt><trkpt lat="16.2454883" lon="-61.449101"><ele>96.0</ele><time>2026-04-18T11:23:17.978Z</time></trkpt><trkpt lat="16.2454192" lon="-61.4491498"><ele>96.0</ele><time>2026-04-18T11:23:19.975Z</time></trkpt><trkpt lat="16.2453878" lon="-61.4492209"><ele>96.0</ele><time>2026-04-18T11:23:22.976Z</time></trkpt><trkpt lat="16.2454683" lon="-61.4492519"><ele>96.0</ele><time>2026-04-18T11:23:25.985Z</time></trkpt><trkpt lat="16.2455542" lon="-61.4492618"><ele>96.0</ele><time>2026-04-18T11:23:27.972Z</time></trkpt><trkpt lat="16.2456247" lon="-61.4493069"><ele>96.0</ele><time>2026-04-18T11:23:29.984Z</time></trkpt><trkpt lat="16.2456859" lon="-61.4493755"><ele>96.0</ele><time>2026-04-18T11:23:31.99Z</time></trkpt><trkpt lat="16.2457027" lon="-61.4494446"><ele>96.0</ele><time>2026-04-18T11:23:34.071Z</time></trkpt><trkpt lat="16.2457054" lon="-61.4495245"><ele>97.16666666666667</ele><time>2026-04-18T11:23:36.983Z</time></trkpt><trkpt lat="16.2456554" lon="-61.4495743"><ele>98.33333333333334</ele><time>2026-04-18T11:24:04.973Z</time></trkpt><trkpt lat="16.2456254" lon="-61.4496389"><ele>99.5</ele><time>2026-04-18T11:24:20.983Z</time></trkpt><trkpt lat="16.2455913" lon="-61.4497177"><ele>100.66666666666667</ele><time>2026-04-18T11:24:22.974Z</time></trkpt><trkpt lat="16.2455428" lon="-61.4498139"><ele>101.83333333333334</ele><time>2026-04-18T11:24:24.975Z</time></trkpt><trkpt lat="16.2454911" lon="-61.4499285"><ele>103.0</ele><time>2026-04-18T11:24:26.974Z</time></trkpt><trkpt lat="16.245425" lon="-61.4499953"><ele>103.0</ele><time>2026-04-18T11:24:28.99Z</time></trkpt><trkpt lat="16.2453282" lon="-61.4499902"><ele>103.0</ele><time>2026-04-18T11:24:30.996Z</time></trkpt><trkpt lat="16.245227" lon="-61.449924"><ele>103.0</ele><time>2026-04-18T11:24:32.977Z</time></trkpt><trkpt lat="16.2451219" lon="-61.449864"><ele>103.0</ele><time>2026-04-18T11:24:35Z</time></trkpt><trkpt lat="16.2450246" lon="-61.4498049"><ele>103.0</ele><time>2026-04-18T11:24:36.99Z</time></trkpt><trkpt lat="16.2449146" lon="-61.4497599"><ele>103.00000000000001</ele><time>2026-04-18T11:24:38.991Z</time></trkpt><trkpt lat="16.2448475" lon="-61.449739"><ele>103.0</ele><time>2026-04-18T11:24:40.007Z</time></trkpt><trkpt lat="16.2447815" lon="-61.4497282"><ele>103.0</ele><time>2026-04-18T11:24:40.991Z</time></trkpt><trkpt lat="16.244672" lon="-61.4497299"><ele>103.0</ele><time>2026-04-18T11:24:43.002Z</time></trkpt><trkpt lat="16.2447017" lon="-61.4496471"><ele>103.00000000000001</ele><time>2026-04-18T11:28:20.998Z</time></trkpt><trkpt lat="16.2447824" lon="-61.4496647"><ele>103.0</ele><time>2026-04-18T11:28:24.98Z</time></trkpt><trkpt lat="16.2448766" lon="-61.449734"><ele>103.0</ele><time>2026-04-18T11:28:26.981Z</time></trkpt><trkpt lat="16.2449874" lon="-61.4497834"><ele>103.0</ele><time>2026-04-18T11:28:28.988Z</time></trkpt><trkpt lat="16.2450502" lon="-61.4498035"><ele>103.0</ele><time>2026-04-18T11:28:30Z</time></trkpt><trkpt lat="16.2451596" lon="-61.449854"><ele>103.0</ele><time>2026-04-18T11:28:31.988Z</time></trkpt><trkpt lat="16.2452545" lon="-61.4499203"><ele>103.0</ele><time>2026-04-18T11:28:34.007Z</time></trkpt><trkpt lat="16.2453252" lon="-61.4499454"><ele>103.00000000000001</ele><time>2026-04-18T11:28:35.994Z</time></trkpt><trkpt lat="16.2454233" lon="-61.4499564"><ele>103.0</ele><time>2026-04-18T11:28:39Z</time></trkpt><trkpt lat="16.2455059" lon="-61.4499384"><ele>103.0</ele><time>2026-04-18T11:28:40.993Z</time></trkpt><trkpt lat="16.2455438" lon="-61.4498679"><ele>103.0</ele><time>2026-04-18T11:28:42.958Z</time></trkpt><trkpt lat="16.2455683" lon="-61.4497796"><ele>103.00000000000001</ele><time>2026-04-18T11:28:44.999Z</time></trkpt><trkpt lat="16.2455908" lon="-61.4497182"><ele>103.0</ele><time>2026-04-18T11:28:47.005Z</time></trkpt><trkpt lat="16.2456293" lon="-61.4496396"><ele>101.83333333333334</ele><time>2026-04-18T11:28:50.002Z</time></trkpt><trkpt lat="16.2456646" lon="-61.449556"><ele>100.66666666666667</ele><time>2026-04-18T11:28:52.989Z</time></trkpt><trkpt lat="16.2456903" lon="-61.4494752"><ele>99.5</ele><time>2026-04-18T11:28:55.995Z</time></trkpt><trkpt lat="16.2456781" lon="-61.4493992"><ele>98.33333333333334</ele><time>2026-04-18T11:28:58.984Z</time></trkpt><trkpt lat="16.2456355" lon="-61.4493254"><ele>97.16666666666667</ele><time>2026-04-18T11:29:01.061Z</time></trkpt><trkpt lat="16.2455838" lon="-61.4492818"><ele>96.0</ele><time>2026-04-18T11:29:02.985Z</time></trkpt><trkpt lat="16.2455221" lon="-61.4492572"><ele>96.0</ele><time>2026-04-18T11:29:04.968Z</time></trkpt><trkpt lat="16.2454616" lon="-61.4492317"><ele>96.0</ele><time>2026-04-18T11:29:06.976Z</time></trkpt><trkpt lat="16.2454749" lon="-61.4491425"><ele>96.0</ele><time>2026-04-18T11:29:11.986Z</time></trkpt><trkpt lat="16.2455306" lon="-61.44908"><ele>96.0</ele><time>2026-04-18T11:29:13.993Z</time></trkpt><trkpt lat="16.2455934" lon="-61.449017"><ele>96.0</ele><time>2026-04-18T11:29:15.978Z</time></trkpt><trkpt lat="16.2456398" lon="-61.4489654"><ele>96.0</ele><time>2026-04-18T11:29:19.056Z</time></trkpt><trkpt lat="16.2455853" lon="-61.4488849"><ele>96.0</ele><time>2026-04-18T11:29:21.982Z</time></trkpt><trkpt lat="16.2455328" lon="-61.4488259"><ele>96.0</ele><time>2026-04-18T11:29:23.974Z</time></trkpt><trkpt lat="16.2454479" lon="-61.448851"><ele>96.0</ele><time>2026-04-18T11:29:27.984Z</time></trkpt><trkpt lat="16.2453847" lon="-61.4488821"><ele>96.0</ele><time>2026-04-18T11:29:29.982Z</time></trkpt><trkpt lat="16.2452896" lon="-61.4488814"><ele>96.0</ele><time>2026-04-18T11:29:31.99Z</time></trkpt><trkpt lat="16.2451892" lon="-61.448856"><ele>96.0</ele><time>2026-04-18T11:29:33.986Z</time></trkpt><trkpt lat="16.245085" lon="-61.448836"><ele>96.0</ele><time>2026-04-18T11:29:36.075Z</time></trkpt><trkpt lat="16.2449891" lon="-61.4488077"><ele>96.0</ele><time>2026-04-18T11:29:37.989Z</time></trkpt><trkpt lat="16.2448992" lon="-61.4487969"><ele>96.0</ele><time>2026-04-18T11:29:40.052Z</time></trkpt><trkpt lat="16.2448362" lon="-61.4488053"><ele>96.0</ele><time>2026-04-18T11:29:41.973Z</time></trkpt><trkpt lat="16.2447541" lon="-61.4488321"><ele>96.0</ele><time>2026-04-18T11:29:45.052Z</time></trkpt><trkpt lat="16.244686" lon="-61.4488379"><ele>96.0</ele><time>2026-04-18T11:29:46.981Z</time></trkpt><trkpt lat="16.2446041" lon="-61.4488135"><ele>96.33333333333333</ele><time>2026-04-18T11:29:48.978Z</time></trkpt><trkpt lat="16.2445273" lon="-61.4488081"><ele>96.66666666666666</ele><time>2026-04-18T11:29:51.997Z</time></trkpt><trkpt lat="16.2444867" lon="-61.4488893"><ele>97.0</ele><time>2026-04-18T11:29:57.981Z</time></trkpt><trkpt lat="16.2444871" lon="-61.4489697"><ele>97.33333333333333</ele><time>2026-04-18T11:30:00.99Z</time></trkpt><trkpt lat="16.2444952" lon="-61.4490397"><ele>97.66666666666666</ele><time>2026-04-18T11:30:05.987Z</time></trkpt><trkpt lat="16.2444094" lon="-61.4490914"><ele>98.0</ele><time>2026-04-18T11:30:08.952Z</time></trkpt><trkpt lat="16.2443509" lon="-61.4491735"><ele>97.99999999999999</ele><time>2026-04-18T11:30:10.961Z</time></trkpt><trkpt lat="16.2443105" lon="-61.4492262"><ele>98.0</ele><time>2026-04-18T11:30:12.945Z</time></trkpt><trkpt lat="16.2442382" lon="-61.4492293"><ele>98.0</ele><time>2026-04-18T11:30:15.951Z</time></trkpt><trkpt lat="16.2441977" lon="-61.4491002"><ele>98.0</ele><time>2026-04-18T11:30:18.955Z</time></trkpt><trkpt lat="16.2441875" lon="-61.4490333"><ele>97.99999999999999</ele><time>2026-04-18T11:30:20.955Z</time></trkpt><trkpt lat="16.2441954" lon="-61.4489281"><ele>98.0</ele><time>2026-04-18T11:30:23.951Z</time></trkpt><trkpt lat="16.2441886" lon="-61.4488455"><ele>97.99999999999999</ele><time>2026-04-18T11:30:25.955Z</time></trkpt><trkpt lat="16.2441755" lon="-61.4487692"><ele>98.0</ele><time>2026-04-18T11:30:28.955Z</time></trkpt><trkpt lat="16.2440993" lon="-61.4487599"><ele>98.0</ele><time>2026-04-18T11:30:36.956Z</time></trkpt><trkpt lat="16.2440019" lon="-61.4488168"><ele>98.0</ele><time>2026-04-18T11:30:38.959Z</time></trkpt><trkpt lat="16.2439342" lon="-61.4488527"><ele>97.99999999999999</ele><time>2026-04-18T11:30:42.988Z</time></trkpt><trkpt lat="16.244" lon="-61.4488293"><ele>98.0</ele><time>2026-04-18T11:31:10.991Z</time></trkpt><trkpt lat="16.2440713" lon="-61.4488092"><ele>94.0</ele><time>2026-04-18T11:31:12.983Z</time></trkpt><trkpt lat="16.244156" lon="-61.4487704"><ele>90.0</ele><time>2026-04-18T11:31:13.983Z</time></trkpt><trkpt lat="16.2442623" lon="-61.4486987"><ele>86.0</ele><time>2026-04-18T11:31:14.989Z</time></trkpt><trkpt lat="16.2443762" lon="-61.4486197"><ele>82.0</ele><time>2026-04-18T11:31:15.985Z</time></trkpt><trkpt lat="16.2444757" lon="-61.4485495"><ele>82.0</ele><time>2026-04-18T11:31:16.967Z</time></trkpt><trkpt lat="16.2445552" lon="-61.4485027"><ele>82.0</ele><time>2026-04-18T11:31:17.975Z</time></trkpt><trkpt lat="16.2446271" lon="-61.4484583"><ele>82.0</ele><time>2026-04-18T11:31:19.979Z</time></trkpt><trkpt lat="16.2446162" lon="-61.4483682"><ele>82.0</ele><time>2026-04-18T11:31:24.964Z</time></trkpt><trkpt lat="16.2445919" lon="-61.4483036"><ele>82.0</ele><time>2026-04-18T11:31:41.005Z</time></trkpt><trkpt lat="16.2445233" lon="-61.4483143"><ele>82.0</ele><time>2026-04-18T11:31:44.979Z</time></trkpt><trkpt lat="16.2445028" lon="-61.4483861"><ele>81.99999999999999</ele><time>2026-04-18T11:31:49.979Z</time></trkpt><trkpt lat="16.2445525" lon="-61.4484409"><ele>82.0</ele><time>2026-04-18T11:31:52.981Z</time></trkpt><trkpt lat="16.244612" lon="-61.4484741"><ele>82.0</ele><time>2026-04-18T11:31:54.983Z</time></trkpt><trkpt lat="16.2446811" lon="-61.4485366"><ele>82.0</ele><time>2026-04-18T11:31:57.985Z</time></trkpt><trkpt lat="16.2447059" lon="-61.4486011"><ele>82.0</ele><time>2026-04-18T11:32:00.968Z</time></trkpt><trkpt lat="16.2446508" lon="-61.4485537"><ele>81.99999999999999</ele><time>2026-04-18T11:32:06.98Z</time></trkpt><trkpt lat="16.2446561" lon="-61.4484735"><ele>82.0</ele><time>2026-04-18T11:32:09.991Z</time></trkpt><trkpt lat="16.2447336" lon="-61.448448"><ele>80.39999999999999</ele><time>2026-04-18T11:32:12.987Z</time></trkpt><trkpt lat="16.2448724" lon="-61.4484227"><ele>78.8</ele><time>2026-04-18T11:32:14.987Z</time></trkpt><trkpt lat="16.2449543" lon="-61.44841"><ele>77.2</ele><time>2026-04-18T11:32:15.993Z</time></trkpt><trkpt lat="16.2450204" lon="-61.4483962"><ele>75.6</ele><time>2026-04-18T11:32:16.988Z</time></trkpt><trkpt lat="16.245094" lon="-61.4483731"><ele>74.0</ele><time>2026-04-18T11:32:18.977Z</time></trkpt><trkpt lat="16.2451264" lon="-61.4484544"><ele>74.0</ele><time>2026-04-18T11:32:25.983Z</time></trkpt><trkpt lat="16.2451078" lon="-61.4485204"><ele>74.0</ele><time>2026-04-18T11:32:28.98Z</time></trkpt><trkpt lat="16.2450375" lon="-61.4485242"><ele>74.0</ele><time>2026-04-18T11:32:31.99Z</time></trkpt><trkpt lat="16.2449507" lon="-61.4485623"><ele>74.0</ele><time>2026-04-18T11:32:34.988Z</time></trkpt><trkpt lat="16.2448776" lon="-61.4485409"><ele>74.0</ele><time>2026-04-18T11:32:37.986Z</time></trkpt><trkpt lat="16.2448704" lon="-61.4484648"><ele>74.0</ele><time>2026-04-18T11:32:41.976Z</time></trkpt><trkpt lat="16.2449305" lon="-61.4484214"><ele>74.0</ele><time>2026-04-18T11:32:45.991Z</time></trkpt><trkpt lat="16.2449935" lon="-61.4484107"><ele>74.0</ele><time>2026-04-18T11:32:48.977Z</time></trkpt><trkpt lat="16.2450567" lon="-61.448387"><ele>74.0</ele><time>2026-04-18T11:32:53.989Z</time></trkpt><trkpt lat="16.2451266" lon="-61.4483786"><ele>74.0</ele><time>2026-04-18T11:32:57.981Z</time></trkpt><trkpt lat="16.2452018" lon="-61.4483231"><ele>74.0</ele><time>2026-04-18T11:33:00.978Z</time></trkpt><trkpt lat="16.2452726" lon="-61.4482884"><ele>74.0</ele><time>2026-04-18T11:33:02.978Z</time></trkpt><trkpt lat="16.2453055" lon="-61.4482248"><ele>74.0</ele><time>2026-04-18T11:33:07.98Z</time></trkpt><trkpt lat="16.2453644" lon="-61.4481857"><ele>74.0</ele><time>2026-04-18T11:33:10.984Z</time></trkpt><trkpt lat="16.2454124" lon="-61.4481135"><ele>74.0</ele><time>2026-04-18T11:33:12.953Z</time></trkpt><trkpt lat="16.2454552" lon="-61.4480273"><ele>74.0</ele><time>2026-04-18T11:33:14.992Z</time></trkpt><trkpt lat="16.2454871" lon="-61.4479228"><ele>74.0</ele><time>2026-04-18T11:33:16.98Z</time></trkpt><trkpt lat="16.245528" lon="-61.447812"><ele>74.0</ele><time>2026-04-18T11:33:18.959Z</time></trkpt><trkpt lat="16.2455607" lon="-61.4477057"><ele>75.0</ele><time>2026-04-18T11:33:20.966Z</time></trkpt><trkpt lat="16.2456137" lon="-61.447609"><ele>76.0</ele><time>2026-04-18T11:33:22.988Z</time></trkpt><trkpt lat="16.2456634" lon="-61.4475093"><ele>77.0</ele><time>2026-04-18T11:33:24.989Z</time></trkpt><trkpt lat="16.2456924" lon="-61.4474022"><ele>78.0</ele><time>2026-04-18T11:33:26.999Z</time></trkpt><trkpt lat="16.245756" lon="-61.4472939"><ele>79.0</ele><time>2026-04-18T11:33:28.988Z</time></trkpt><trkpt lat="16.2458004" lon="-61.4472328"><ele>77.85714285714286</ele><time>2026-04-18T11:33:29.994Z</time></trkpt><trkpt lat="16.2458424" lon="-61.4471686"><ele>76.71428571428572</ele><time>2026-04-18T11:33:30.985Z</time></trkpt><trkpt lat="16.2458835" lon="-61.4471006"><ele>75.57142857142857</ele><time>2026-04-18T11:33:31.984Z</time></trkpt><trkpt lat="16.2459248" lon="-61.44703"><ele>74.42857142857143</ele><time>2026-04-18T11:33:32.999Z</time></trkpt><trkpt lat="16.245962" lon="-61.4469663"><ele>73.28571428571428</ele><time>2026-04-18T11:33:33.991Z</time></trkpt><trkpt lat="16.2459995" lon="-61.4469024"><ele>72.14285714285714</ele><time>2026-04-18T11:33:34.99Z</time></trkpt><trkpt lat="16.2460346" lon="-61.4468351"><ele>71.0</ele><time>2026-04-18T11:33:35.993Z</time></trkpt><trkpt lat="16.2460595" lon="-61.4467657"><ele>71.0</ele><time>2026-04-18T11:33:36.992Z</time></trkpt><trkpt lat="16.2460858" lon="-61.4466896"><ele>71.0</ele><time>2026-04-18T11:33:37.983Z</time></trkpt><trkpt lat="16.2461021" lon="-61.4466113"><ele>71.0</ele><time>2026-04-18T11:33:38.977Z</time></trkpt><trkpt lat="16.2461206" lon="-61.4465356"><ele>71.0</ele><time>2026-04-18T11:33:39.993Z</time></trkpt><trkpt lat="16.2461294" lon="-61.4464633"><ele>71.0</ele><time>2026-04-18T11:33:40.992Z</time></trkpt><trkpt lat="16.2461333" lon="-61.4463876"><ele>71.0</ele><time>2026-04-18T11:33:41.997Z</time></trkpt><trkpt lat="16.2461285" lon="-61.4463133"><ele>71.0</ele><time>2026-04-18T11:33:42.967Z</time></trkpt><trkpt lat="16.2461195" lon="-61.4462434"><ele>71.0</ele><time>2026-04-18T11:33:43.982Z</time></trkpt><trkpt lat="16.2460859" lon="-61.4461347"><ele>71.0</ele><time>2026-04-18T11:33:45.988Z</time></trkpt><trkpt lat="16.2460448" lon="-61.4460507"><ele>71.0</ele><time>2026-04-18T11:33:47.992Z</time></trkpt><trkpt lat="16.245973" lon="-61.4459497"><ele>71.0</ele><time>2026-04-18T11:33:49.995Z</time></trkpt><trkpt lat="16.2459261" lon="-61.4458912"><ele>71.0</ele><time>2026-04-18T11:33:50.989Z</time></trkpt><trkpt lat="16.2458751" lon="-61.4458192"><ele>71.0</ele><time>2026-04-18T11:33:51.998Z</time></trkpt><trkpt lat="16.2458177" lon="-61.4457346"><ele>71.0</ele><time>2026-04-18T11:33:52.996Z</time></trkpt><trkpt lat="16.2457504" lon="-61.445628"><ele>71.0</ele><time>2026-04-18T11:33:53.995Z</time></trkpt><trkpt lat="16.2456831" lon="-61.4455156"><ele>71.0</ele><time>2026-04-18T11:33:54.996Z</time></trkpt><trkpt lat="16.2456271" lon="-61.4454118"><ele>71.0</ele><time>2026-04-18T11:33:55.995Z</time></trkpt><trkpt lat="16.2455839" lon="-61.4453474"><ele>71.0</ele><time>2026-04-18T11:33:56.986Z</time></trkpt><trkpt lat="16.2455383" lon="-61.4452731"><ele>71.0</ele><time>2026-04-18T11:33:58.991Z</time></trkpt><trkpt lat="16.2455825" lon="-61.4453356"><ele>71.0</ele><time>2026-04-18T11:34:06.977Z</time></trkpt><trkpt lat="16.2456531" lon="-61.445444"><ele>71.0</ele><time>2026-04-18T11:34:08.99Z</time></trkpt><trkpt lat="16.2457198" lon="-61.4455188"><ele>71.0</ele><time>2026-04-18T11:34:10.953Z</time></trkpt><trkpt lat="16.2456678" lon="-61.445452"><ele>71.0</ele><time>2026-04-18T11:34:25.979Z</time></trkpt><trkpt lat="16.2457362" lon="-61.4455328"><ele>71.0</ele><time>2026-04-18T11:34:32.985Z</time></trkpt><trkpt lat="16.2457561" lon="-61.4456022"><ele>71.0</ele><time>2026-04-18T11:34:34.986Z</time></trkpt><trkpt lat="16.2456942" lon="-61.4456306"><ele>71.0</ele><time>2026-04-18T11:34:38.97Z</time></trkpt><trkpt lat="16.2456865" lon="-61.4455462"><ele>71.0</ele><time>2026-04-18T11:35:10.985Z</time></trkpt><trkpt lat="16.2456357" lon="-61.4454619"><ele>73.16666666666667</ele><time>2026-04-18T11:35:14.027Z</time></trkpt><trkpt lat="16.2455861" lon="-61.4453711"><ele>75.33333333333334</ele><time>2026-04-18T11:35:15.977Z</time></trkpt><trkpt lat="16.2455556" lon="-61.4453129"><ele>77.5</ele><time>2026-04-18T11:35:16.981Z</time></trkpt><trkpt lat="16.2455231" lon="-61.4452477"><ele>79.66666666666667</ele><time>2026-04-18T11:35:17.986Z</time></trkpt><trkpt lat="16.2454902" lon="-61.4451583"><ele>81.83333333333333</ele><time>2026-04-18T11:35:18.991Z</time></trkpt><trkpt lat="16.2454574" lon="-61.4450351"><ele>84.0</ele><time>2026-04-18T11:35:19.986Z</time></trkpt><trkpt lat="16.2454219" lon="-61.4449121"><ele>84.0</ele><time>2026-04-18T11:35:20.985Z</time></trkpt><trkpt lat="16.2453887" lon="-61.4447944"><ele>84.0</ele><time>2026-04-18T11:35:22.036Z</time></trkpt><trkpt lat="16.2453769" lon="-61.4446945"><ele>84.0</ele><time>2026-04-18T11:35:22.99Z</time></trkpt><trkpt lat="16.245374" lon="-61.4446138"><ele>84.0</ele><time>2026-04-18T11:35:23.997Z</time></trkpt><trkpt lat="16.2453684" lon="-61.4444984"><ele>84.0</ele><time>2026-04-18T11:35:26.056Z</time></trkpt><trkpt lat="16.245376" lon="-61.4444"><ele>84.16666666666667</ele><time>2026-04-18T11:35:27.989Z</time></trkpt><trkpt lat="16.2453833" lon="-61.4443139"><ele>84.33333333333333</ele><time>2026-04-18T11:35:29.979Z</time></trkpt><trkpt lat="16.2453934" lon="-61.4442447"><ele>84.5</ele><time>2026-04-18T11:35:33.015Z</time></trkpt><trkpt lat="16.2454138" lon="-61.4441597"><ele>84.66666666666666</ele><time>2026-04-18T11:35:39.031Z</time></trkpt><trkpt lat="16.2454274" lon="-61.4440854"><ele>84.83333333333333</ele><time>2026-04-18T11:35:41.062Z</time></trkpt><trkpt lat="16.2454278" lon="-61.4440196"><ele>85.0</ele><time>2026-04-18T11:35:42.974Z</time></trkpt><trkpt lat="16.2454479" lon="-61.4439312"><ele>85.0</ele><time>2026-04-18T11:35:45.974Z</time></trkpt><trkpt lat="16.2454713" lon="-61.4438493"><ele>85.0</ele><time>2026-04-18T11:35:47.971Z</time></trkpt><trkpt lat="16.2454972" lon="-61.4437543"><ele>85.0</ele><time>2026-04-18T11:35:49.981Z</time></trkpt><trkpt lat="16.2455141" lon="-61.443687"><ele>85.0</ele><time>2026-04-18T11:36:21.064Z</time></trkpt><trkpt lat="16.2455117" lon="-61.4436119"><ele>85.0</ele><time>2026-04-18T11:36:25.987Z</time></trkpt><trkpt lat="16.245568" lon="-61.4435703"><ele>85.0</ele><time>2026-04-18T11:36:28.976Z</time></trkpt><trkpt lat="16.245657" lon="-61.4435688"><ele>82.0</ele><time>2026-04-18T11:36:29.985Z</time></trkpt><trkpt lat="16.2457624" lon="-61.4435653"><ele>79.0</ele><time>2026-04-18T11:36:31.002Z</time></trkpt><trkpt lat="16.2458758" lon="-61.4435641"><ele>76.0</ele><time>2026-04-18T11:36:31.981Z</time></trkpt><trkpt lat="16.2459887" lon="-61.4435551"><ele>73.0</ele><time>2026-04-18T11:36:32.991Z</time></trkpt><trkpt lat="16.246119" lon="-61.4435338"><ele>73.0</ele><time>2026-04-18T11:36:33.997Z</time></trkpt><trkpt lat="16.24624" lon="-61.4435006"><ele>73.0</ele><time>2026-04-18T11:36:34.994Z</time></trkpt><trkpt lat="16.2463477" lon="-61.4434625"><ele>73.0</ele><time>2026-04-18T11:36:35.992Z</time></trkpt><trkpt lat="16.2464586" lon="-61.4434255"><ele>73.0</ele><time>2026-04-18T11:36:36.98Z</time></trkpt><trkpt lat="16.2465668" lon="-61.4433959"><ele>73.2</ele><time>2026-04-18T11:36:37.979Z</time></trkpt><trkpt lat="16.2466693" lon="-61.4433733"><ele>73.4</ele><time>2026-04-18T11:36:38.993Z</time></trkpt><trkpt lat="16.2467692" lon="-61.4433629"><ele>73.60000000000001</ele><time>2026-04-18T11:36:39.99Z</time></trkpt><trkpt lat="16.2468523" lon="-61.4433581"><ele>73.8</ele><time>2026-04-18T11:36:40.99Z</time></trkpt><trkpt lat="16.2469587" lon="-61.4433752"><ele>74.0</ele><time>2026-04-18T11:36:42.995Z</time></trkpt><trkpt lat="16.247038" lon="-61.4434226"><ele>74.0</ele><time>2026-04-18T11:36:45.046Z</time></trkpt><trkpt lat="16.2471181" lon="-61.4435135"><ele>74.0</ele><time>2026-04-18T11:36:46.983Z</time></trkpt><trkpt lat="16.2471547" lon="-61.4435752"><ele>74.0</ele><time>2026-04-18T11:36:47.976Z</time></trkpt><trkpt lat="16.2471868" lon="-61.4436467"><ele>74.0</ele><time>2026-04-18T11:36:48.989Z</time></trkpt><trkpt lat="16.2472241" lon="-61.4437301"><ele>74.0</ele><time>2026-04-18T11:36:50.052Z</time></trkpt><trkpt lat="16.2472556" lon="-61.4438179"><ele>74.0</ele><time>2026-04-18T11:36:51.058Z</time></trkpt><trkpt lat="16.2473007" lon="-61.4439106"><ele>75.75</ele><time>2026-04-18T11:36:51.966Z</time></trkpt><trkpt lat="16.2473524" lon="-61.4440131"><ele>77.5</ele><time>2026-04-18T11:36:52.988Z</time></trkpt><trkpt lat="16.2474114" lon="-61.4441149"><ele>79.25</ele><time>2026-04-18T11:36:53.983Z</time></trkpt><trkpt lat="16.247477" lon="-61.4442242"><ele>81.0</ele><time>2026-04-18T11:36:55.047Z</time></trkpt><trkpt lat="16.2475398" lon="-61.4443306"><ele>81.0</ele><time>2026-04-18T11:36:56.079Z</time></trkpt><trkpt lat="16.2476011" lon="-61.4444242"><ele>81.0</ele><time>2026-04-18T11:36:56.981Z</time></trkpt><trkpt lat="16.2476549" lon="-61.4445045"><ele>81.0</ele><time>2026-04-18T11:36:57.984Z</time></trkpt><trkpt lat="16.2477049" lon="-61.4445654"><ele>81.0</ele><time>2026-04-18T11:36:58.989Z</time></trkpt><trkpt lat="16.2477524" lon="-61.444619"><ele>81.0</ele><time>2026-04-18T11:37:00.068Z</time></trkpt><trkpt lat="16.2478292" lon="-61.4447117"><ele>82.75</ele><time>2026-04-18T11:37:01.976Z</time></trkpt><trkpt lat="16.2479083" lon="-61.4448109"><ele>84.5</ele><time>2026-04-18T11:37:03.992Z</time></trkpt><trkpt lat="16.2480091" lon="-61.4448869"><ele>86.25</ele><time>2026-04-18T11:37:05.982Z</time></trkpt><trkpt lat="16.2481159" lon="-61.4449618"><ele>88.0</ele><time>2026-04-18T11:37:07.99Z</time></trkpt><trkpt lat="16.2482115" lon="-61.4450678"><ele>88.0</ele><time>2026-04-18T11:37:09.98Z</time></trkpt><trkpt lat="16.2482649" lon="-61.4451442"><ele>88.0</ele><time>2026-04-18T11:37:11.065Z</time></trkpt><trkpt lat="16.2483087" lon="-61.4452232"><ele>88.0</ele><time>2026-04-18T11:37:12.037Z</time></trkpt><trkpt lat="16.2483548" lon="-61.4453081"><ele>88.0</ele><time>2026-04-18T11:37:12.983Z</time></trkpt><trkpt lat="16.2483974" lon="-61.4453727"><ele>88.0</ele><time>2026-04-18T11:37:13.986Z</time></trkpt><trkpt lat="16.2484604" lon="-61.4454058"><ele>88.0</ele><time>2026-04-18T11:37:20.988Z</time></trkpt><trkpt lat="16.2485214" lon="-61.4454373"><ele>88.0</ele><time>2026-04-18T11:37:28.968Z</time></trkpt><trkpt lat="16.2484452" lon="-61.4454145"><ele>88.0</ele><time>2026-04-18T11:37:42.968Z</time></trkpt><trkpt lat="16.2485159" lon="-61.4454602"><ele>88.0</ele><time>2026-04-18T11:37:51.994Z</time></trkpt><trkpt lat="16.2486147" lon="-61.4455045"><ele>88.0</ele><time>2026-04-18T11:37:53.999Z</time></trkpt><trkpt lat="16.2486905" lon="-61.4455527"><ele>88.0</ele><time>2026-04-18T11:37:54.99Z</time></trkpt><trkpt lat="16.2487713" lon="-61.4455886"><ele>88.0</ele><time>2026-04-18T11:37:55.993Z</time></trkpt><trkpt lat="16.2488484" lon="-61.4456029"><ele>89.16666666666666</ele><time>2026-04-18T11:37:57.001Z</time></trkpt><trkpt lat="16.2489459" lon="-61.4456175"><ele>90.33333333333333</ele><time>2026-04-18T11:37:58.003Z</time></trkpt><trkpt lat="16.2490452" lon="-61.4456449"><ele>91.5</ele><time>2026-04-18T11:37:58.984Z</time></trkpt><trkpt lat="16.2491177" lon="-61.4456653"><ele>92.66666666666667</ele><time>2026-04-18T11:37:59.99Z</time></trkpt><trkpt lat="16.2491944" lon="-61.44568"><ele>93.83333333333334</ele><time>2026-04-18T11:38:01.994Z</time></trkpt><trkpt lat="16.2492708" lon="-61.4457051"><ele>95.0</ele><time>2026-04-18T11:38:03.987Z</time></trkpt><trkpt lat="16.2493496" lon="-61.4457219"><ele>95.0</ele><time>2026-04-18T11:38:04.995Z</time></trkpt><trkpt lat="16.2494363" lon="-61.4457355"><ele>95.0</ele><time>2026-04-18T11:38:05.996Z</time></trkpt><trkpt lat="16.2495298" lon="-61.4457471"><ele>95.0</ele><time>2026-04-18T11:38:07.023Z</time></trkpt><trkpt lat="16.2496232" lon="-61.4457579"><ele>95.0</ele><time>2026-04-18T11:38:08.009Z</time></trkpt><trkpt lat="16.2497124" lon="-61.4457752"><ele>95.0</ele><time>2026-04-18T11:38:08.997Z</time></trkpt><trkpt lat="16.2498029" lon="-61.4457984"><ele>97.66666666666667</ele><time>2026-04-18T11:38:10.013Z</time></trkpt><trkpt lat="16.2498806" lon="-61.4458195"><ele>100.33333333333334</ele><time>2026-04-18T11:38:11.03Z</time></trkpt><trkpt lat="16.2499868" lon="-61.4458343"><ele>103.0</ele><time>2026-04-18T11:38:12.994Z</time></trkpt><trkpt lat="16.2500756" lon="-61.445862"><ele>105.66666666666667</ele><time>2026-04-18T11:38:16.049Z</time></trkpt><trkpt lat="16.2501377" lon="-61.4458753"><ele>108.33333333333333</ele><time>2026-04-18T11:38:22.993Z</time></trkpt><trkpt lat="16.2501415" lon="-61.44597"><ele>111.0</ele><time>2026-04-18T11:38:25.034Z</time></trkpt><trkpt lat="16.2501106" lon="-61.4460565"><ele>111.0</ele><time>2026-04-18T11:38:25.985Z</time></trkpt><trkpt lat="16.250075" lon="-61.4461906"><ele>111.0</ele><time>2026-04-18T11:38:26.989Z</time></trkpt><trkpt lat="16.2500424" lon="-61.446356"><ele>111.0</ele><time>2026-04-18T11:38:27.995Z</time></trkpt><trkpt lat="16.2500041" lon="-61.4465163"><ele>109.75</ele><time>2026-04-18T11:38:28.996Z</time></trkpt><trkpt lat="16.2499561" lon="-61.4466434"><ele>108.5</ele><time>2026-04-18T11:38:29.983Z</time></trkpt><trkpt lat="16.2498824" lon="-61.4467516"><ele>107.25</ele><time>2026-04-18T11:38:30.964Z</time></trkpt><trkpt lat="16.2498017" lon="-61.4468424"><ele>106.0</ele><time>2026-04-18T11:38:31.973Z</time></trkpt><trkpt lat="16.2497164" lon="-61.4469424"><ele>104.0</ele><time>2026-04-18T11:38:32.959Z</time></trkpt><trkpt lat="16.2496423" lon="-61.4470468"><ele>102.0</ele><time>2026-04-18T11:38:33.989Z</time></trkpt><trkpt lat="16.2495706" lon="-61.4471629"><ele>100.0</ele><time>2026-04-18T11:38:34.976Z</time></trkpt><trkpt lat="16.2495084" lon="-61.447295"><ele>98.0</ele><time>2026-04-18T11:38:35.975Z</time></trkpt><trkpt lat="16.2494561" lon="-61.4474298"><ele>98.0</ele><time>2026-04-18T11:38:36.986Z</time></trkpt><trkpt lat="16.2494238" lon="-61.447568"><ele>98.0</ele><time>2026-04-18T11:38:37.978Z</time></trkpt><trkpt lat="16.249388" lon="-61.4476945"><ele>98.0</ele><time>2026-04-18T11:38:38.99Z</time></trkpt><trkpt lat="16.2493437" lon="-61.4478034"><ele>98.0</ele><time>2026-04-18T11:38:40.006Z</time></trkpt><trkpt lat="16.2492808" lon="-61.447901"><ele>97.2</ele><time>2026-04-18T11:38:40.992Z</time></trkpt><trkpt lat="16.2492212" lon="-61.4479902"><ele>96.4</ele><time>2026-04-18T11:38:42Z</time></trkpt><trkpt lat="16.2491535" lon="-61.4480697"><ele>95.60000000000001</ele><time>2026-04-18T11:38:42.999Z</time></trkpt><trkpt lat="16.2490836" lon="-61.4481398"><ele>94.80000000000001</ele><time>2026-04-18T11:38:43.996Z</time></trkpt><trkpt lat="16.2490141" lon="-61.4482101"><ele>94.0</ele><time>2026-04-18T11:38:45.003Z</time></trkpt><trkpt lat="16.2489548" lon="-61.4482837"><ele>94.0</ele><time>2026-04-18T11:38:45.99Z</time></trkpt><trkpt lat="16.2489059" lon="-61.44835"><ele>94.0</ele><time>2026-04-18T11:38:46.986Z</time></trkpt><trkpt lat="16.2488666" lon="-61.4484082"><ele>94.0</ele><time>2026-04-18T11:38:47.99Z</time></trkpt><trkpt lat="16.2488299" lon="-61.4484811"><ele>94.0</ele><time>2026-04-18T11:38:48.949Z</time></trkpt><trkpt lat="16.2487902" lon="-61.4485635"><ele>94.0</ele><time>2026-04-18T11:38:49.953Z</time></trkpt><trkpt lat="16.2487439" lon="-61.4486527"><ele>94.0</ele><time>2026-04-18T11:38:50.991Z</time></trkpt><trkpt lat="16.2486975" lon="-61.4487519"><ele>95.4</ele><time>2026-04-18T11:38:51.996Z</time></trkpt><trkpt lat="16.2486436" lon="-61.4488432"><ele>96.80000000000001</ele><time>2026-04-18T11:38:52.976Z</time></trkpt><trkpt lat="16.248585" lon="-61.4489261"><ele>98.19999999999999</ele><time>2026-04-18T11:38:53.988Z</time></trkpt><trkpt lat="16.2485151" lon="-61.4490184"><ele>99.6</ele><time>2026-04-18T11:38:54.993Z</time></trkpt><trkpt lat="16.2484389" lon="-61.4491017"><ele>101.0</ele><time>2026-04-18T11:38:55.999Z</time></trkpt><trkpt lat="16.2483493" lon="-61.4491854"><ele>101.0</ele><time>2026-04-18T11:38:56.994Z</time></trkpt><trkpt lat="16.2482588" lon="-61.4492653"><ele>101.0</ele><time>2026-04-18T11:38:58.006Z</time></trkpt><trkpt lat="16.2481621" lon="-61.4493408"><ele>101.0</ele><time>2026-04-18T11:38:58.988Z</time></trkpt><trkpt lat="16.2480654" lon="-61.4494282"><ele>101.0</ele><time>2026-04-18T11:38:59.996Z</time></trkpt><trkpt lat="16.2479815" lon="-61.4495234"><ele>101.4</ele><time>2026-04-18T11:39:00.986Z</time></trkpt><trkpt lat="16.2479096" lon="-61.4496168"><ele>101.8</ele><time>2026-04-18T11:39:01.994Z</time></trkpt><trkpt lat="16.2478477" lon="-61.4497138"><ele>102.2</ele><time>2026-04-18T11:39:02.988Z</time></trkpt><trkpt lat="16.2477972" lon="-61.4498048"><ele>102.60000000000001</ele><time>2026-04-18T11:39:03.994Z</time></trkpt><trkpt lat="16.2477565" lon="-61.4498893"><ele>103.0</ele><time>2026-04-18T11:39:04.998Z</time></trkpt><trkpt lat="16.2477261" lon="-61.4499747"><ele>103.0</ele><time>2026-04-18T11:39:05.988Z</time></trkpt><trkpt lat="16.2477207" lon="-61.4500737"><ele>103.0</ele><time>2026-04-18T11:39:06.999Z</time></trkpt><trkpt lat="16.2477366" lon="-61.4501663"><ele>103.0</ele><time>2026-04-18T11:39:07.98Z</time></trkpt><trkpt lat="16.2477794" lon="-61.4502468"><ele>103.0</ele><time>2026-04-18T11:39:08.986Z</time></trkpt><trkpt lat="16.2478401" lon="-61.4503279"><ele>103.0</ele><time>2026-04-18T11:39:09.987Z</time></trkpt><trkpt lat="16.247887" lon="-61.4504058"><ele>102.33333333333334</ele><time>2026-04-18T11:39:10.983Z</time></trkpt><trkpt lat="16.2479305" lon="-61.4504724"><ele>101.66666666666667</ele><time>2026-04-18T11:39:11.975Z</time></trkpt><trkpt lat="16.247967" lon="-61.4505433"><ele>101.0</ele><time>2026-04-18T11:39:14.004Z</time></trkpt><trkpt lat="16.2479253" lon="-61.4506273"><ele>100.33333333333334</ele><time>2026-04-18T11:39:15.99Z</time></trkpt><trkpt lat="16.2478818" lon="-61.450683"><ele>99.66666666666667</ele><time>2026-04-18T11:39:16.989Z</time></trkpt><trkpt lat="16.2478435" lon="-61.450762"><ele>99.0</ele><time>2026-04-18T11:39:17.989Z</time></trkpt><trkpt lat="16.2478102" lon="-61.4508551"><ele>99.0</ele><time>2026-04-18T11:39:18.989Z</time></trkpt><trkpt lat="16.2477681" lon="-61.4509509"><ele>99.0</ele><time>2026-04-18T11:39:19.99Z</time></trkpt><trkpt lat="16.2477243" lon="-61.4510613"><ele>99.0</ele><time>2026-04-18T11:39:20.998Z</time></trkpt><trkpt lat="16.2476724" lon="-61.4511764"><ele>99.0</ele><time>2026-04-18T11:39:21.994Z</time></trkpt><trkpt lat="16.2476232" lon="-61.4512944"><ele>100.0</ele><time>2026-04-18T11:39:22.989Z</time></trkpt><trkpt lat="16.2475757" lon="-61.451413"><ele>101.0</ele><time>2026-04-18T11:39:23.99Z</time></trkpt><trkpt lat="16.2475227" lon="-61.4515179"><ele>102.0</ele><time>2026-04-18T11:39:24.995Z</time></trkpt><trkpt lat="16.2474577" lon="-61.4516242"><ele>103.0</ele><time>2026-04-18T11:39:25.988Z</time></trkpt><trkpt lat="16.2473909" lon="-61.4517311"><ele>103.0</ele><time>2026-04-18T11:39:26.995Z</time></trkpt><trkpt lat="16.2473184" lon="-61.4518395"><ele>103.0</ele><time>2026-04-18T11:39:27.995Z</time></trkpt><trkpt lat="16.2472457" lon="-61.4519415"><ele>103.0</ele><time>2026-04-18T11:39:28.988Z</time></trkpt><trkpt lat="16.2471732" lon="-61.4520461"><ele>103.0</ele><time>2026-04-18T11:39:29.989Z</time></trkpt><trkpt lat="16.2471154" lon="-61.4521404"><ele>100.80000000000001</ele><time>2026-04-18T11:39:30.984Z</time></trkpt><trkpt lat="16.2470789" lon="-61.4522387"><ele>98.6</ele><time>2026-04-18T11:39:31.987Z</time></trkpt><trkpt lat="16.2470653" lon="-61.4523355"><ele>96.4</ele><time>2026-04-18T11:39:32.981Z</time></trkpt><trkpt lat="16.2470748" lon="-61.4524364"><ele>94.19999999999999</ele><time>2026-04-18T11:39:33.986Z</time></trkpt><trkpt lat="16.2471105" lon="-61.4525425"><ele>92.0</ele><time>2026-04-18T11:39:34.966Z</time></trkpt><trkpt lat="16.2471647" lon="-61.4526528"><ele>92.0</ele><time>2026-04-18T11:39:35.999Z</time></trkpt><trkpt lat="16.2472297" lon="-61.4527633"><ele>92.0</ele><time>2026-04-18T11:39:36.994Z</time></trkpt><trkpt lat="16.2473105" lon="-61.4528671"><ele>92.0</ele><time>2026-04-18T11:39:37.986Z</time></trkpt><trkpt lat="16.2473887" lon="-61.4529746"><ele>92.0</ele><time>2026-04-18T11:39:38.99Z</time></trkpt><trkpt lat="16.2474682" lon="-61.4530876"><ele>95.0</ele><time>2026-04-18T11:39:40.044Z</time></trkpt><trkpt lat="16.2475378" lon="-61.4532122"><ele>98.0</ele><time>2026-04-18T11:39:41.015Z</time></trkpt><trkpt lat="16.2475974" lon="-61.4533356"><ele>101.0</ele><time>2026-04-18T11:39:42.038Z</time></trkpt><trkpt lat="16.2476484" lon="-61.4534606"><ele>104.0</ele><time>2026-04-18T11:39:42.993Z</time></trkpt><trkpt lat="16.2476894" lon="-61.4535758"><ele>104.0</ele><time>2026-04-18T11:39:43.992Z</time></trkpt><trkpt lat="16.2477171" lon="-61.4536794"><ele>104.0</ele><time>2026-04-18T11:39:45.064Z</time></trkpt><trkpt lat="16.2477209" lon="-61.4537871"><ele>104.0</ele><time>2026-04-18T11:39:45.989Z</time></trkpt><trkpt lat="16.2477073" lon="-61.4538955"><ele>104.0</ele><time>2026-04-18T11:39:47.064Z</time></trkpt><trkpt lat="16.2476619" lon="-61.4539997"><ele>104.0</ele><time>2026-04-18T11:39:47.985Z</time></trkpt><trkpt lat="16.2476148" lon="-61.4541074"><ele>103.4</ele><time>2026-04-18T11:39:48.975Z</time></trkpt><trkpt lat="16.2475564" lon="-61.4542061"><ele>102.80000000000001</ele><time>2026-04-18T11:39:49.992Z</time></trkpt><trkpt lat="16.2474929" lon="-61.4543035"><ele>102.19999999999999</ele><time>2026-04-18T11:39:50.989Z</time></trkpt><trkpt lat="16.2474192" lon="-61.4543922"><ele>101.6</ele><time>2026-04-18T11:39:51.986Z</time></trkpt><trkpt lat="16.2473527" lon="-61.454485"><ele>101.0</ele><time>2026-04-18T11:39:52.993Z</time></trkpt><trkpt lat="16.2472936" lon="-61.454577"><ele>101.0</ele><time>2026-04-18T11:39:54.045Z</time></trkpt><trkpt lat="16.2472387" lon="-61.4546849"><ele>101.0</ele><time>2026-04-18T11:39:54.98Z</time></trkpt><trkpt lat="16.2471835" lon="-61.4547906"><ele>101.0</ele><time>2026-04-18T11:39:55.988Z</time></trkpt><trkpt lat="16.247139" lon="-61.4549054"><ele>101.0</ele><time>2026-04-18T11:39:56.999Z</time></trkpt><trkpt lat="16.2471007" lon="-61.45502"><ele>101.0</ele><time>2026-04-18T11:39:57.984Z</time></trkpt><trkpt lat="16.2470771" lon="-61.455124"><ele>101.0</ele><time>2026-04-18T11:39:58.992Z</time></trkpt><trkpt lat="16.2470454" lon="-61.455214"><ele>101.0</ele><time>2026-04-18T11:40:00.028Z</time></trkpt><trkpt lat="16.2470097" lon="-61.4553037"><ele>101.0</ele><time>2026-04-18T11:40:01.029Z</time></trkpt><trkpt lat="16.2469609" lon="-61.4553916"><ele>101.0</ele><time>2026-04-18T11:40:02.053Z</time></trkpt><trkpt lat="16.2469106" lon="-61.4554859"><ele>99.19999999999999</ele><time>2026-04-18T11:40:02.98Z</time></trkpt><trkpt lat="16.2468527" lon="-61.4555788"><ele>97.39999999999999</ele><time>2026-04-18T11:40:03.984Z</time></trkpt><trkpt lat="16.246787" lon="-61.4556697"><ele>95.6</ele><time>2026-04-18T11:40:04.966Z</time></trkpt><trkpt lat="16.2467169" lon="-61.4557682"><ele>93.8</ele><time>2026-04-18T11:40:05.983Z</time></trkpt><trkpt lat="16.2466438" lon="-61.45586"><ele>92.0</ele><time>2026-04-18T11:40:06.959Z</time></trkpt><trkpt lat="16.2465673" lon="-61.4559511"><ele>92.0</ele><time>2026-04-18T11:40:07.982Z</time></trkpt><trkpt lat="16.2464805" lon="-61.4560403"><ele>92.0</ele><time>2026-04-18T11:40:08.959Z</time></trkpt><trkpt lat="16.2463871" lon="-61.4561271"><ele>92.0</ele><time>2026-04-18T11:40:09.959Z</time></trkpt><trkpt lat="16.2462915" lon="-61.4562244"><ele>92.0</ele><time>2026-04-18T11:40:10.975Z</time></trkpt><trkpt lat="16.2461978" lon="-61.4563373"><ele>89.75</ele><time>2026-04-18T11:40:11.964Z</time></trkpt><trkpt lat="16.2461067" lon="-61.4564535"><ele>87.5</ele><time>2026-04-18T11:40:12.957Z</time></trkpt><trkpt lat="16.2460179" lon="-61.4565646"><ele>85.25</ele><time>2026-04-18T11:40:13.986Z</time></trkpt><trkpt lat="16.2459315" lon="-61.4566733"><ele>83.0</ele><time>2026-04-18T11:40:14.994Z</time></trkpt><trkpt lat="16.2458493" lon="-61.4567952"><ele>83.0</ele><time>2026-04-18T11:40:15.978Z</time></trkpt><trkpt lat="16.2457836" lon="-61.4569227"><ele>83.0</ele><time>2026-04-18T11:40:16.955Z</time></trkpt><trkpt lat="16.2457184" lon="-61.4570396"><ele>83.0</ele><time>2026-04-18T11:40:17.959Z</time></trkpt><trkpt lat="16.2456577" lon="-61.4571558"><ele>83.0</ele><time>2026-04-18T11:40:18.951Z</time></trkpt><trkpt lat="16.2456255" lon="-61.4572832"><ele>79.25</ele><time>2026-04-18T11:40:19.985Z</time></trkpt><trkpt lat="16.2456032" lon="-61.4574224"><ele>75.5</ele><time>2026-04-18T11:40:20.986Z</time></trkpt><trkpt lat="16.2455875" lon="-61.4575629"><ele>71.75</ele><time>2026-04-18T11:40:22.03Z</time></trkpt><trkpt lat="16.2455894" lon="-61.4576987"><ele>68.0</ele><time>2026-04-18T11:40:23.027Z</time></trkpt><trkpt lat="16.2455917" lon="-61.4578126"><ele>68.0</ele><time>2026-04-18T11:40:24.041Z</time></trkpt><trkpt lat="16.2455832" lon="-61.457917"><ele>68.0</ele><time>2026-04-18T11:40:24.95Z</time></trkpt><trkpt lat="16.2455117" lon="-61.4436119"><ele>69.0</ele><time>2026-04-18T11:36:25.987Z</time></trkpt><trkpt lat="16.245568" lon="-61.4435703"><ele>70.0</ele><time>2026-04-18T11:36:28.976Z</time></trkpt><trkpt lat="16.245657" lon="-61.4435688"><ele>71.0</ele><time>2026-04-18T11:36:29.985Z</time></trkpt><trkpt lat="16.2457624" lon="-61.4435653"><ele>72.0</ele><time>2026-04-18T11:36:31.002Z</time></trkpt><trkpt lat="16.2458758" lon="-61.4435641"><ele>73.0</ele><time>2026-04-18T11:36:31.981Z</time></trkpt><trkpt lat="16.2459887" lon="-61.4435551"><ele>73.0</ele><time>2026-04-18T11:36:32.991Z</time></trkpt><trkpt lat="16.246119" lon="-61.4435338"><ele>73.0</ele><time>2026-04-18T11:36:33.997Z</time></trkpt><trkpt lat="16.24624" lon="-61.4435006"><ele>73.0</ele><time>2026-04-18T11:36:34.994Z</time></trkpt><trkpt lat="16.2463477" lon="-61.4434625"><ele>73.0</ele><time>2026-04-18T11:36:35.992Z</time></trkpt><trkpt lat="16.2464586" lon="-61.4434255"><ele>73.2</ele><time>2026-04-18T11:36:36.98Z</time></trkpt><trkpt lat="16.2465668" lon="-61.4433959"><ele>73.4</ele><time>2026-04-18T11:36:37.979Z</time></trkpt><trkpt lat="16.2466693" lon="-61.4433733"><ele>73.60000000000001</ele><time>2026-04-18T11:36:38.993Z</time></trkpt><trkpt lat="16.2467692" lon="-61.4433629"><ele>73.8</ele><time>2026-04-18T11:36:39.99Z</time></trkpt><trkpt lat="16.2468523" lon="-61.4433581"><ele>74.0</ele><time>2026-04-18T11:36:40.99Z</time></trkpt><trkpt lat="16.2469587" lon="-61.4433752"><ele>74.0</ele><time>2026-04-18T11:36:42.995Z</time></trkpt><trkpt lat="16.247038" lon="-61.4434226"><ele>74.0</ele><time>2026-04-18T11:36:45.046Z</time></trkpt><trkpt lat="16.2471181" lon="-61.4435135"><ele>74.0</ele><time>2026-04-18T11:36:46.983Z</time></trkpt><trkpt lat="16.2471547" lon="-61.4435752"><ele>74.0</ele><time>2026-04-18T11:36:47.976Z</time></trkpt><trkpt lat="16.2471868" lon="-61.4436467"><ele>74.0</ele><time>2026-04-18T11:36:48.989Z</time></trkpt><trkpt lat="16.2472241" lon="-61.4437301"><ele>74.0</ele><time>2026-04-18T11:36:50.052Z</time></trkpt><trkpt lat="16.2472556" lon="-61.4438179"><ele>75.4</ele><time>2026-04-18T11:36:51.058Z</time></trkpt><trkpt lat="16.2473007" lon="-61.4439106"><ele>76.80000000000001</ele><time>2026-04-18T11:36:51.966Z</time></trkpt><trkpt lat="16.2473524" lon="-61.4440131"><ele>78.19999999999999</ele><time>2026-04-18T11:36:52.988Z</time></trkpt><trkpt lat="16.2474114" lon="-61.4441149"><ele>79.6</ele><time>2026-04-18T11:36:53.983Z</time></trkpt><trkpt lat="16.247477" lon="-61.4442242"><ele>81.0</ele><time>2026-04-18T11:36:55.047Z</time></trkpt><trkpt lat="16.2475398" lon="-61.4443306"><ele>81.0</ele><time>2026-04-18T11:36:56.079Z</time></trkpt><trkpt lat="16.2476011" lon="-61.4444242"><ele>81.0</ele><time>2026-04-18T11:36:56.981Z</time></trkpt><trkpt lat="16.2476549" lon="-61.4445045"><ele>81.0</ele><time>2026-04-18T11:36:57.984Z</time></trkpt><trkpt lat="16.2477049" lon="-61.4445654"><ele>81.0</ele><time>2026-04-18T11:36:58.989Z</time></trkpt><trkpt lat="16.2477524" lon="-61.444619"><ele>81.0</ele><time>2026-04-18T11:37:00.068Z</time></trkpt><trkpt lat="16.2478292" lon="-61.4447117"><ele>82.75</ele><time>2026-04-18T11:37:01.976Z</time></trkpt><trkpt lat="16.2479083" lon="-61.4448109"><ele>84.5</ele><time>2026-04-18T11:37:03.992Z</time></trkpt><trkpt lat="16.2480091" lon="-61.4448869"><ele>86.25</ele><time>2026-04-18T11:37:05.982Z</time></trkpt><trkpt lat="16.2481159" lon="-61.4449618"><ele>88.0</ele><time>2026-04-18T11:37:07.99Z</time></trkpt><trkpt lat="16.2482115" lon="-61.4450678"><ele>88.0</ele><time>2026-04-18T11:37:09.98Z</time></trkpt><trkpt lat="16.2482649" lon="-61.4451442"><ele>88.0</ele><time>2026-04-18T11:37:11.065Z</time></trkpt><trkpt lat="16.2483087" lon="-61.4452232"><ele>88.0</ele><time>2026-04-18T11:37:12.037Z</time></trkpt><trkpt lat="16.2483548" lon="-61.4453081"><ele>88.0</ele><time>2026-04-18T11:37:12.983Z</time></trkpt><trkpt lat="16.2483974" lon="-61.4453727"><ele>88.0</ele><time>2026-04-18T11:37:13.986Z</time></trkpt><trkpt lat="16.2484604" lon="-61.4454058"><ele>88.0</ele><time>2026-04-18T11:37:20.988Z</time></trkpt><trkpt lat="16.2485214" lon="-61.4454373"><ele>88.0</ele><time>2026-04-18T11:37:28.968Z</time></trkpt><trkpt lat="16.2484452" lon="-61.4454145"><ele>88.0</ele><time>2026-04-18T11:37:42.968Z</time></trkpt><trkpt lat="16.2485159" lon="-61.4454602"><ele>88.0</ele><time>2026-04-18T11:37:51.994Z</time></trkpt><trkpt lat="16.2486147" lon="-61.4455045"><ele>88.0</ele><time>2026-04-18T11:37:53.999Z</time></trkpt><trkpt lat="16.2486905" lon="-61.4455527"><ele>88.0</ele><time>2026-04-18T11:37:54.99Z</time></trkpt><trkpt lat="16.2487713" lon="-61.4455886"><ele>88.0</ele><time>2026-04-18T11:37:55.993Z</time></trkpt><trkpt lat="16.2488484" lon="-61.4456029"><ele>89.16666666666666</ele><time>2026-04-18T11:37:57.001Z</time></trkpt><trkpt lat="16.2489459" lon="-61.4456175"><ele>90.33333333333333</ele><time>2026-04-18T11:37:58.003Z</time></trkpt><trkpt lat="16.2490452" lon="-61.4456449"><ele>91.5</ele><time>2026-04-18T11:37:58.984Z</time></trkpt><trkpt lat="16.2491177" lon="-61.4456653"><ele>92.66666666666667</ele><time>2026-04-18T11:37:59.99Z</time></trkpt><trkpt lat="16.2491944" lon="-61.44568"><ele>93.83333333333334</ele><time>2026-04-18T11:38:01.994Z</time></trkpt><trkpt lat="16.2492708" lon="-61.4457051"><ele>95.0</ele><time>2026-04-18T11:38:03.987Z</time></trkpt><trkpt lat="16.2493496" lon="-61.4457219"><ele>95.0</ele><time>2026-04-18T11:38:04.995Z</time></trkpt><trkpt lat="16.2494363" lon="-61.4457355"><ele>95.0</ele><time>2026-04-18T11:38:05.996Z</time></trkpt><trkpt lat="16.2495298" lon="-61.4457471"><ele>95.0</ele><time>2026-04-18T11:38:07.023Z</time></trkpt><trkpt lat="16.2496232" lon="-61.4457579"><ele>95.0</ele><time>2026-04-18T11:38:08.009Z</time></trkpt><trkpt lat="16.2497124" lon="-61.4457752"><ele>95.0</ele><time>2026-04-18T11:38:08.997Z</time></trkpt><trkpt lat="16.2498029" lon="-61.4457984"><ele>97.66666666666667</ele><time>2026-04-18T11:38:10.013Z</time></trkpt><trkpt lat="16.2498806" lon="-61.4458195"><ele>100.33333333333334</ele><time>2026-04-18T11:38:11.03Z</time></trkpt><trkpt lat="16.2499868" lon="-61.4458343"><ele>103.0</ele><time>2026-04-18T11:38:12.994Z</time></trkpt><trkpt lat="16.2500756" lon="-61.445862"><ele>105.66666666666667</ele><time>2026-04-18T11:38:16.049Z</time></trkpt><trkpt lat="16.2501377" lon="-61.4458753"><ele>108.33333333333333</ele><time>2026-04-18T11:38:22.993Z</time></trkpt><trkpt lat="16.2501415" lon="-61.44597"><ele>111.0</ele><time>2026-04-18T11:38:25.034Z</time></trkpt><trkpt lat="16.2501106" lon="-61.4460565"><ele>111.0</ele><time>2026-04-18T11:38:25.985Z</time></trkpt><trkpt lat="16.250075" lon="-61.4461906"><ele>111.0</ele><time>2026-04-18T11:38:26.989Z</time></trkpt><trkpt lat="16.2500424" lon="-61.446356"><ele>111.0</ele><time>2026-04-18T11:38:27.995Z</time></trkpt><trkpt lat="16.2500041" lon="-61.4465163"><ele>109.75</ele><time>2026-04-18T11:38:28.996Z</time></trkpt><trkpt lat="16.2499561" lon="-61.4466434"><ele>108.5</ele><time>2026-04-18T11:38:29.983Z</time></trkpt><trkpt lat="16.2498824" lon="-61.4467516"><ele>107.25</ele><time>2026-04-18T11:38:30.964Z</time></trkpt><trkpt lat="16.2498017" lon="-61.4468424"><ele>106.0</ele><time>2026-04-18T11:38:31.973Z</time></trkpt><trkpt lat="16.2497164" lon="-61.4469424"><ele>104.0</ele><time>2026-04-18T11:38:32.959Z</time></trkpt><trkpt lat="16.2496423" lon="-61.4470468"><ele>102.0</ele><time>2026-04-18T11:38:33.989Z</time></trkpt><trkpt lat="16.2495706" lon="-61.4471629"><ele>100.0</ele><time>2026-04-18T11:38:34.976Z</time></trkpt><trkpt lat="16.2495084" lon="-61.447295"><ele>98.0</ele><time>2026-04-18T11:38:35.975Z</time></trkpt><trkpt lat="16.2494561" lon="-61.4474298"><ele>98.0</ele><time>2026-04-18T11:38:36.986Z</time></trkpt><trkpt lat="16.2494238" lon="-61.447568"><ele>98.0</ele><time>2026-04-18T11:38:37.978Z</time></trkpt><trkpt lat="16.249388" lon="-61.4476945"><ele>98.0</ele><time>2026-04-18T11:38:38.99Z</time></trkpt><trkpt lat="16.2493437" lon="-61.4478034"><ele>98.0</ele><time>2026-04-18T11:38:40.006Z</time></trkpt><trkpt lat="16.2492808" lon="-61.447901"><ele>97.2</ele><time>2026-04-18T11:38:40.992Z</time></trkpt><trkpt lat="16.2492212" lon="-61.4479902"><ele>96.4</ele><time>2026-04-18T11:38:42Z</time></trkpt><trkpt lat="16.2491535" lon="-61.4480697"><ele>95.60000000000001</ele><time>2026-04-18T11:38:42.999Z</time></trkpt><trkpt lat="16.2490836" lon="-61.4481398"><ele>94.80000000000001</ele><time>2026-04-18T11:38:43.996Z</time></trkpt><trkpt lat="16.2490141" lon="-61.4482101"><ele>94.0</ele><time>2026-04-18T11:38:45.003Z</time></trkpt><trkpt lat="16.2489548" lon="-61.4482837"><ele>94.0</ele><time>2026-04-18T11:38:45.99Z</time></trkpt><trkpt lat="16.2489059" lon="-61.44835"><ele>94.0</ele><time>2026-04-18T11:38:46.986Z</time></trkpt><trkpt lat="16.2488666" lon="-61.4484082"><ele>94.0</ele><time>2026-04-18T11:38:47.99Z</time></trkpt><trkpt lat="16.2488299" lon="-61.4484811"><ele>94.0</ele><time>2026-04-18T11:38:48.949Z</time></trkpt><trkpt lat="16.2487902" lon="-61.4485635"><ele>94.0</ele><time>2026-04-18T11:38:49.953Z</time></trkpt><trkpt lat="16.2487439" lon="-61.4486527"><ele>94.0</ele><time>2026-04-18T11:38:50.991Z</time></trkpt><trkpt lat="16.2486975" lon="-61.4487519"><ele>95.4</ele><time>2026-04-18T11:38:51.996Z</time></trkpt><trkpt lat="16.2486436" lon="-61.4488432"><ele>96.80000000000001</ele><time>2026-04-18T11:38:52.976Z</time></trkpt><trkpt lat="16.248585" lon="-61.4489261"><ele>98.19999999999999</ele><time>2026-04-18T11:38:53.988Z</time></trkpt><trkpt lat="16.2485151" lon="-61.4490184"><ele>99.6</ele><time>2026-04-18T11:38:54.993Z</time></trkpt><trkpt lat="16.2484389" lon="-61.4491017"><ele>101.0</ele><time>2026-04-18T11:38:55.999Z</time></trkpt><trkpt lat="16.2483493" lon="-61.4491854"><ele>101.0</ele><time>2026-04-18T11:38:56.994Z</time></trkpt><trkpt lat="16.2482588" lon="-61.4492653"><ele>101.0</ele><time>2026-04-18T11:38:58.006Z</time></trkpt><trkpt lat="16.2481621" lon="-61.4493408"><ele>101.0</ele><time>2026-04-18T11:38:58.988Z</time></trkpt><trkpt lat="16.2480654" lon="-61.4494282"><ele>101.0</ele><time>2026-04-18T11:38:59.996Z</time></trkpt><trkpt lat="16.2479815" lon="-61.4495234"><ele>101.4</ele><time>2026-04-18T11:39:00.986Z</time></trkpt><trkpt lat="16.2479096" lon="-61.4496168"><ele>101.8</ele><time>2026-04-18T11:39:01.994Z</time></trkpt><trkpt lat="16.2478477" lon="-61.4497138"><ele>102.2</ele><time>2026-04-18T11:39:02.988Z</time></trkpt><trkpt lat="16.2477972" lon="-61.4498048"><ele>102.60000000000001</ele><time>2026-04-18T11:39:03.994Z</time></trkpt><trkpt lat="16.2477565" lon="-61.4498893"><ele>103.0</ele><time>2026-04-18T11:39:04.998Z</time></trkpt><trkpt lat="16.2477261" lon="-61.4499747"><ele>103.0</ele><time>2026-04-18T11:39:05.988Z</time></trkpt><trkpt lat="16.2477207" lon="-61.4500737"><ele>103.0</ele><time>2026-04-18T11:39:06.999Z</time></trkpt><trkpt lat="16.2477366" lon="-61.4501663"><ele>103.0</ele><time>2026-04-18T11:39:07.98Z</time></trkpt><trkpt lat="16.2477794" lon="-61.4502468"><ele>103.0</ele><time>2026-04-18T11:39:08.986Z</time></trkpt><trkpt lat="16.2478401" lon="-61.4503279"><ele>103.0</ele><time>2026-04-18T11:39:09.987Z</time></trkpt><trkpt lat="16.247887" lon="-61.4504058"><ele>102.33333333333334</ele><time>2026-04-18T11:39:10.983Z</time></trkpt><trkpt lat="16.2479305" lon="-61.4504724"><ele>101.66666666666667</ele><time>2026-04-18T11:39:11.975Z</time></trkpt><trkpt lat="16.247967" lon="-61.4505433"><ele>101.0</ele><time>2026-04-18T11:39:14.004Z</time></trkpt><trkpt lat="16.2479253" lon="-61.4506273"><ele>100.33333333333334</ele><time>2026-04-18T11:39:15.99Z</time></trkpt><trkpt lat="16.2478818" lon="-61.450683"><ele>99.66666666666667</ele><time>2026-04-18T11:39:16.989Z</time></trkpt><trkpt lat="16.2478435" lon="-61.450762"><ele>99.0</ele><time>2026-04-18T11:39:17.989Z</time></trkpt><trkpt lat="16.2478102" lon="-61.4508551"><ele>99.0</ele><time>2026-04-18T11:39:18.989Z</time></trkpt><trkpt lat="16.2477681" lon="-61.4509509"><ele>99.0</ele><time>2026-04-18T11:39:19.99Z</time></trkpt><trkpt lat="16.2477243" lon="-61.4510613"><ele>99.0</ele><time>2026-04-18T11:39:20.998Z</time></trkpt><trkpt lat="16.2476724" lon="-61.4511764"><ele>99.0</ele><time>2026-04-18T11:39:21.994Z</time></trkpt><trkpt lat="16.2476232" lon="-61.4512944"><ele>100.0</ele><time>2026-04-18T11:39:22.989Z</time></trkpt><trkpt lat="16.2475757" lon="-61.451413"><ele>101.0</ele><time>2026-04-18T11:39:23.99Z</time></trkpt><trkpt lat="16.2475227" lon="-61.4515179"><ele>102.0</ele><time>2026-04-18T11:39:24.995Z</time></trkpt><trkpt lat="16.2474577" lon="-61.4516242"><ele>103.0</ele><time>2026-04-18T11:39:25.988Z</time></trkpt><trkpt lat="16.2473909" lon="-61.4517311"><ele>103.0</ele><time>2026-04-18T11:39:26.995Z</time></trkpt><trkpt lat="16.2473184" lon="-61.4518395"><ele>103.0</ele><time>2026-04-18T11:39:27.995Z</time></trkpt><trkpt lat="16.2472457" lon="-61.4519415"><ele>103.0</ele><time>2026-04-18T11:39:28.988Z</time></trkpt><trkpt lat="16.2471732" lon="-61.4520461"><ele>103.0</ele><time>2026-04-18T11:39:29.989Z</time></trkpt><trkpt lat="16.2471154" lon="-61.4521404"><ele>100.80000000000001</ele><time>2026-04-18T11:39:30.984Z</time></trkpt><trkpt lat="16.2470789" lon="-61.4522387"><ele>98.6</ele><time>2026-04-18T11:39:31.987Z</time></trkpt><trkpt lat="16.2470653" lon="-61.4523355"><ele>96.4</ele><time>2026-04-18T11:39:32.981Z</time></trkpt><trkpt lat="16.2470748" lon="-61.4524364"><ele>94.19999999999999</ele><time>2026-04-18T11:39:33.986Z</time></trkpt><trkpt lat="16.2471105" lon="-61.4525425"><ele>92.0</ele><time>2026-04-18T11:39:34.966Z</time></trkpt><trkpt lat="16.2471647" lon="-61.4526528"><ele>92.0</ele><time>2026-04-18T11:39:35.999Z</time></trkpt><trkpt lat="16.2472297" lon="-61.4527633"><ele>92.0</ele><time>2026-04-18T11:39:36.994Z</time></trkpt><trkpt lat="16.2473105" lon="-61.4528671"><ele>92.0</ele><time>2026-04-18T11:39:37.986Z</time></trkpt><trkpt lat="16.2473887" lon="-61.4529746"><ele>92.0</ele><time>2026-04-18T11:39:38.99Z</time></trkpt><trkpt lat="16.2474682" lon="-61.4530876"><ele>95.0</ele><time>2026-04-18T11:39:40.044Z</time></trkpt><trkpt lat="16.2475378" lon="-61.4532122"><ele>98.0</ele><time>2026-04-18T11:39:41.015Z</time></trkpt><trkpt lat="16.2475974" lon="-61.4533356"><ele>101.0</ele><time>2026-04-18T11:39:42.038Z</time></trkpt><trkpt lat="16.2476484" lon="-61.4534606"><ele>104.0</ele><time>2026-04-18T11:39:42.993Z</time></trkpt><trkpt lat="16.2476894" lon="-61.4535758"><ele>104.0</ele><time>2026-04-18T11:39:43.992Z</time></trkpt><trkpt lat="16.2477171" lon="-61.4536794"><ele>104.0</ele><time>2026-04-18T11:39:45.064Z</time></trkpt><trkpt lat="16.2477209" lon="-61.4537871"><ele>104.0</ele><time>2026-04-18T11:39:45.989Z</time></trkpt><trkpt lat="16.2477073" lon="-61.4538955"><ele>104.0</ele><time>2026-04-18T11:39:47.064Z</time></trkpt><trkpt lat="16.2476619" lon="-61.4539997"><ele>104.0</ele><time>2026-04-18T11:39:47.985Z</time></trkpt><trkpt lat="16.2476148" lon="-61.4541074"><ele>103.4</ele><time>2026-04-18T11:39:48.975Z</time></trkpt><trkpt lat="16.2475564" lon="-61.4542061"><ele>102.80000000000001</ele><time>2026-04-18T11:39:49.992Z</time></trkpt><trkpt lat="16.2474929" lon="-61.4543035"><ele>102.19999999999999</ele><time>2026-04-18T11:39:50.989Z</time></trkpt><trkpt lat="16.2474192" lon="-61.4543922"><ele>101.6</ele><time>2026-04-18T11:39:51.986Z</time></trkpt><trkpt lat="16.2473527" lon="-61.454485"><ele>101.0</ele><time>2026-04-18T11:39:52.993Z</time></trkpt><trkpt lat="16.2472936" lon="-61.454577"><ele>101.0</ele><time>2026-04-18T11:39:54.045Z</time></trkpt><trkpt lat="16.2472387" lon="-61.4546849"><ele>101.0</ele><time>2026-04-18T11:39:54.98Z</time></trkpt><trkpt lat="16.2471835" lon="-61.4547906"><ele>101.0</ele><time>2026-04-18T11:39:55.988Z</time></trkpt><trkpt lat="16.247139" lon="-61.4549054"><ele>101.0</ele><time>2026-04-18T11:39:56.999Z</time></trkpt><trkpt lat="16.2471007" lon="-61.45502"><ele>101.0</ele><time>2026-04-18T11:39:57.984Z</time></trkpt><trkpt lat="16.2470771" lon="-61.455124"><ele>101.0</ele><time>2026-04-18T11:39:58.992Z</time></trkpt><trkpt lat="16.2470454" lon="-61.455214"><ele>101.0</ele><time>2026-04-18T11:40:00.028Z</time></trkpt><trkpt lat="16.2470097" lon="-61.4553037"><ele>101.0</ele><time>2026-04-18T11:40:01.029Z</time></trkpt><trkpt lat="16.2469609" lon="-61.4553916"><ele>101.0</ele><time>2026-04-18T11:40:02.053Z</time></trkpt><trkpt lat="16.2469106" lon="-61.4554859"><ele>99.19999999999999</ele><time>2026-04-18T11:40:02.98Z</time></trkpt><trkpt lat="16.2468527" lon="-61.4555788"><ele>97.39999999999999</ele><time>2026-04-18T11:40:03.984Z</time></trkpt><trkpt lat="16.246787" lon="-61.4556697"><ele>95.6</ele><time>2026-04-18T11:40:04.966Z</time></trkpt><trkpt lat="16.2467169" lon="-61.4557682"><ele>93.8</ele><time>2026-04-18T11:40:05.983Z</time></trkpt><trkpt lat="16.2466438" lon="-61.45586"><ele>92.0</ele><time>2026-04-18T11:40:06.959Z</time></trkpt><trkpt lat="16.2465673" lon="-61.4559511"><ele>92.0</ele><time>2026-04-18T11:40:07.982Z</time></trkpt><trkpt lat="16.2464805" lon="-61.4560403"><ele>92.0</ele><time>2026-04-18T11:40:08.959Z</time></trkpt><trkpt lat="16.2463871" lon="-61.4561271"><ele>92.0</ele><time>2026-04-18T11:40:09.959Z</time></trkpt><trkpt lat="16.2462915" lon="-61.4562244"><ele>92.0</ele><time>2026-04-18T11:40:10.975Z</time></trkpt><trkpt lat="16.2461978" lon="-61.4563373"><ele>89.75</ele><time>2026-04-18T11:40:11.964Z</time></trkpt><trkpt lat="16.2461067" lon="-61.4564535"><ele>87.5</ele><time>2026-04-18T11:40:12.957Z</time></trkpt><trkpt lat="16.2460179" lon="-61.4565646"><ele>85.25</ele><time>2026-04-18T11:40:13.986Z</time></trkpt><trkpt lat="16.2459315" lon="-61.4566733"><ele>83.0</ele><time>2026-04-18T11:40:14.994Z</time></trkpt><trkpt lat="16.2458493" lon="-61.4567952"><ele>83.0</ele><time>2026-04-18T11:40:15.978Z</time></trkpt><trkpt lat="16.2457836" lon="-61.4569227"><ele>83.0</ele><time>2026-04-18T11:40:16.955Z</time></trkpt><trkpt lat="16.2457184" lon="-61.4570396"><ele>83.0</ele><time>2026-04-18T11:40:17.959Z</time></trkpt><trkpt lat="16.2456577" lon="-61.4571558"><ele>83.0</ele><time>2026-04-18T11:40:18.951Z</time></trkpt><trkpt lat="16.2456255" lon="-61.4572832"><ele>79.25</ele><time>2026-04-18T11:40:19.985Z</time></trkpt><trkpt lat="16.2456032" lon="-61.4574224"><ele>75.5</ele><time>2026-04-18T11:40:20.986Z</time></trkpt><trkpt lat="16.2455875" lon="-61.4575629"><ele>71.75</ele><time>2026-04-18T11:40:22.03Z</time></trkpt><trkpt lat="16.2455894" lon="-61.4576987"><ele>68.0</ele><time>2026-04-18T11:40:23.027Z</time></trkpt><trkpt lat="16.2455917" lon="-61.4578126"><ele>68.0</ele><time>2026-04-18T11:40:24.041Z</time></trkpt><trkpt lat="16.2455832" lon="-61.457917"><ele>68.0</ele><time>2026-04-18T11:40:24.95Z</time></trkpt><trkpt lat="16.2455658" lon="-61.4580191"><ele>68.0</ele><time>2026-04-18T11:40:25.975Z</time></trkpt><trkpt lat="16.245539" lon="-61.4581183"><ele>68.0</ele><time>2026-04-18T11:40:26.947Z</time></trkpt><trkpt lat="16.2455296" lon="-61.4582156"><ele>68.0</ele><time>2026-04-18T11:40:27.965Z</time></trkpt><trkpt lat="16.2455424" lon="-61.4583112"><ele>66.83333333333334</ele><time>2026-04-18T11:40:28.985Z</time></trkpt><trkpt lat="16.245545" lon="-61.4584134"><ele>65.66666666666667</ele><time>2026-04-18T11:40:30.015Z</time></trkpt><trkpt lat="16.2455067" lon="-61.4584925"><ele>64.5</ele><time>2026-04-18T11:40:30.95Z</time></trkpt><trkpt lat="16.2454812" lon="-61.4585793"><ele>63.33333333333333</ele><time>2026-04-18T11:40:31.977Z</time></trkpt><trkpt lat="16.2454708" lon="-61.4586572"><ele>62.166666666666664</ele><time>2026-04-18T11:40:32.98Z</time></trkpt><trkpt lat="16.2454539" lon="-61.4587233"><ele>61.0</ele><time>2026-04-18T11:40:33.969Z</time></trkpt><trkpt lat="16.245425" lon="-61.458785"><ele>61.0</ele><time>2026-04-18T11:40:36.981Z</time></trkpt><trkpt lat="16.2453469" lon="-61.4587648"><ele>61.0</ele><time>2026-04-18T11:40:38.973Z</time></trkpt><trkpt lat="16.245254" lon="-61.458725"><ele>61.0</ele><time>2026-04-18T11:40:40.062Z</time></trkpt><trkpt lat="16.245113" lon="-61.4586786"><ele>61.0</ele><time>2026-04-18T11:40:40.978Z</time></trkpt><trkpt lat="16.2449572" lon="-61.4586375"><ele>61.0</ele><time>2026-04-18T11:40:41.983Z</time></trkpt><trkpt lat="16.2448067" lon="-61.4586062"><ele>61.0</ele><time>2026-04-18T11:40:42.981Z</time></trkpt><trkpt lat="16.2446454" lon="-61.4586015"><ele>61.0</ele><time>2026-04-18T11:40:44.009Z</time></trkpt><trkpt lat="16.2444777" lon="-61.4586395"><ele>64.0</ele><time>2026-04-18T11:40:45.047Z</time></trkpt><trkpt lat="16.2442879" lon="-61.4586946"><ele>67.0</ele><time>2026-04-18T11:40:46.035Z</time></trkpt><trkpt lat="16.2441198" lon="-61.4587527"><ele>70.0</ele><time>2026-04-18T11:40:46.957Z</time></trkpt><trkpt lat="16.2439703" lon="-61.4588257"><ele>73.33333333333333</ele><time>2026-04-18T11:40:47.974Z</time></trkpt><trkpt lat="16.24383" lon="-61.4589252"><ele>76.66666666666667</ele><time>2026-04-18T11:40:48.976Z</time></trkpt><trkpt lat="16.2437093" lon="-61.4590522"><ele>80.0</ele><time>2026-04-18T11:40:49.982Z</time></trkpt><trkpt lat="16.243587" lon="-61.4591989"><ele>80.0</ele><time>2026-04-18T11:40:50.981Z</time></trkpt><trkpt lat="16.2434667" lon="-61.4593537"><ele>80.0</ele><time>2026-04-18T11:40:51.982Z</time></trkpt><trkpt lat="16.2433497" lon="-61.4595214"><ele>80.0</ele><time>2026-04-18T11:40:52.954Z</time></trkpt><trkpt lat="16.2432323" lon="-61.4596816"><ele>85.66666666666667</ele><time>2026-04-18T11:40:53.987Z</time></trkpt><trkpt lat="16.2431211" lon="-61.4598241"><ele>91.33333333333334</ele><time>2026-04-18T11:40:54.964Z</time></trkpt><trkpt lat="16.2430249" lon="-61.45996"><ele>97.0</ele><time>2026-04-18T11:40:55.975Z</time></trkpt><trkpt lat="16.2429736" lon="-61.4600815"><ele>97.0</ele><time>2026-04-18T11:40:56.981Z</time></trkpt><trkpt lat="16.2429824" lon="-61.4601896"><ele>97.0</ele><time>2026-04-18T11:40:57.984Z</time></trkpt><trkpt lat="16.2429971" lon="-61.4602722"><ele>97.0</ele><time>2026-04-18T11:40:58.977Z</time></trkpt><trkpt lat="16.2430257" lon="-61.4603447"><ele>97.0</ele><time>2026-04-18T11:40:59.953Z</time></trkpt><trkpt lat="16.243068" lon="-61.460443"><ele>97.0</ele><time>2026-04-18T11:41:01.978Z</time></trkpt><trkpt lat="16.2429779" lon="-61.4603725"><ele>97.0</ele><time>2026-04-18T11:41:04.985Z</time></trkpt><trkpt lat="16.2428921" lon="-61.4602878"><ele>97.0</ele><time>2026-04-18T11:41:06.031Z</time></trkpt><trkpt lat="16.2427838" lon="-61.4601974"><ele>97.0</ele><time>2026-04-18T11:41:07.027Z</time></trkpt><trkpt lat="16.2426666" lon="-61.4601142"><ele>97.0</ele><time>2026-04-18T11:41:07.99Z</time></trkpt><trkpt lat="16.242542" lon="-61.4599846"><ele>97.0</ele><time>2026-04-18T11:41:08.983Z</time></trkpt><trkpt lat="16.242428" lon="-61.4597994"><ele>97.0</ele><time>2026-04-18T11:41:09.996Z</time></trkpt><trkpt lat="16.2423179" lon="-61.4596457"><ele>97.0</ele><time>2026-04-18T11:41:10.996Z</time></trkpt><trkpt lat="16.2422134" lon="-61.459501"><ele>98.0</ele><time>2026-04-18T11:41:12.048Z</time></trkpt><trkpt lat="16.2421218" lon="-61.4593813"><ele>99.0</ele><time>2026-04-18T11:41:12.969Z</time></trkpt><trkpt lat="16.2420375" lon="-61.4592955"><ele>100.0</ele><time>2026-04-18T11:41:13.973Z</time></trkpt><trkpt lat="16.2419326" lon="-61.4592564"><ele>101.0</ele><time>2026-04-18T11:41:15.03Z</time></trkpt><trkpt lat="16.2418254" lon="-61.4592258"><ele>101.0</ele><time>2026-04-18T11:41:15.984Z</time></trkpt><trkpt lat="16.2417069" lon="-61.4592057"><ele>101.0</ele><time>2026-04-18T11:41:16.957Z</time></trkpt><trkpt lat="16.2416013" lon="-61.4591745"><ele>101.0</ele><time>2026-04-18T11:41:17.983Z</time></trkpt><trkpt lat="16.2415192" lon="-61.4591165"><ele>101.0</ele><time>2026-04-18T11:41:18.999Z</time></trkpt><trkpt lat="16.2414586" lon="-61.4590279"><ele>101.0</ele><time>2026-04-18T11:41:19.979Z</time></trkpt><trkpt lat="16.2413832" lon="-61.4589382"><ele>101.0</ele><time>2026-04-18T11:41:20.999Z</time></trkpt><trkpt lat="16.2413062" lon="-61.4588489"><ele>101.0</ele><time>2026-04-18T11:41:21.965Z</time></trkpt><trkpt lat="16.241232" lon="-61.4587543"><ele>101.0</ele><time>2026-04-18T11:41:22.983Z</time></trkpt><trkpt lat="16.2411597" lon="-61.4586676"><ele>101.0</ele><time>2026-04-18T11:41:23.995Z</time></trkpt><trkpt lat="16.241111" lon="-61.4585704"><ele>101.0</ele><time>2026-04-18T11:41:25.033Z</time></trkpt><trkpt lat="16.2410746" lon="-61.4584754"><ele>100.5</ele><time>2026-04-18T11:41:25.996Z</time></trkpt><trkpt lat="16.2410489" lon="-61.458372"><ele>100.0</ele><time>2026-04-18T11:41:26.988Z</time></trkpt><trkpt lat="16.2410399" lon="-61.458247"><ele>99.5</ele><time>2026-04-18T11:41:27.983Z</time></trkpt><trkpt lat="16.2410114" lon="-61.4581121"><ele>99.0</ele><time>2026-04-18T11:41:28.996Z</time></trkpt><trkpt lat="16.2409829" lon="-61.457965"><ele>97.75</ele><time>2026-04-18T11:41:29.961Z</time></trkpt><trkpt lat="16.2409646" lon="-61.4578111"><ele>96.5</ele><time>2026-04-18T11:41:30.984Z</time></trkpt><trkpt lat="16.2409418" lon="-61.4576563"><ele>95.25</ele><time>2026-04-18T11:41:31.995Z</time></trkpt><trkpt lat="16.2409275" lon="-61.4575055"><ele>94.0</ele><time>2026-04-18T11:41:32.994Z</time></trkpt><trkpt lat="16.2409166" lon="-61.4573487"><ele>94.0</ele><time>2026-04-18T11:41:34.058Z</time></trkpt><trkpt lat="16.2409099" lon="-61.4571776"><ele>94.0</ele><time>2026-04-18T11:41:35.032Z</time></trkpt><trkpt lat="16.2409098" lon="-61.4570024"><ele>94.0</ele><time>2026-04-18T11:41:36.043Z</time></trkpt><trkpt lat="16.2409102" lon="-61.4568343"><ele>95.0</ele><time>2026-04-18T11:41:36.993Z</time></trkpt><trkpt lat="16.2409107" lon="-61.4566645"><ele>96.0</ele><time>2026-04-18T11:41:38.001Z</time></trkpt><trkpt lat="16.2409119" lon="-61.4565076"><ele>97.0</ele><time>2026-04-18T11:41:38.988Z</time></trkpt><trkpt lat="16.240916" lon="-61.456368"><ele>98.0</ele><time>2026-04-18T11:41:39.99Z</time></trkpt><trkpt lat="16.2409206" lon="-61.456245"><ele>98.0</ele><time>2026-04-18T11:41:40.993Z</time></trkpt><trkpt lat="16.2409304" lon="-61.4561222"><ele>98.0</ele><time>2026-04-18T11:41:41.999Z</time></trkpt><trkpt lat="16.2409335" lon="-61.4560061"><ele>98.0</ele><time>2026-04-18T11:41:42.986Z</time></trkpt><trkpt lat="16.2409352" lon="-61.4558882"><ele>98.0</ele><time>2026-04-18T11:41:43.995Z</time></trkpt><trkpt lat="16.2409412" lon="-61.455769"><ele>98.0</ele><time>2026-04-18T11:41:44.977Z</time></trkpt><trkpt lat="16.2409532" lon="-61.4556404"><ele>98.0</ele><time>2026-04-18T11:41:45.988Z</time></trkpt><trkpt lat="16.2409776" lon="-61.4555096"><ele>98.0</ele><time>2026-04-18T11:41:46.983Z</time></trkpt><trkpt lat="16.2410116" lon="-61.4553845"><ele>98.0</ele><time>2026-04-18T11:41:47.992Z</time></trkpt><trkpt lat="16.2410516" lon="-61.4552734"><ele>98.80000000000001</ele><time>2026-04-18T11:41:48.979Z</time></trkpt><trkpt lat="16.2410895" lon="-61.4551607"><ele>99.6</ele><time>2026-04-18T11:41:50.004Z</time></trkpt><trkpt lat="16.2411211" lon="-61.455048"><ele>100.4</ele><time>2026-04-18T11:41:51.052Z</time></trkpt><trkpt lat="16.2411177" lon="-61.4549493"><ele>101.19999999999999</ele><time>2026-04-18T11:41:51.98Z</time></trkpt><trkpt lat="16.2410952" lon="-61.4548404"><ele>102.0</ele><time>2026-04-18T11:41:52.983Z</time></trkpt><trkpt lat="16.2410614" lon="-61.4547357"><ele>102.0</ele><time>2026-04-18T11:41:53.993Z</time></trkpt><trkpt lat="16.2410025" lon="-61.454652"><ele>102.0</ele><time>2026-04-18T11:41:54.987Z</time></trkpt><trkpt lat="16.240911" lon="-61.4545611"><ele>102.0</ele><time>2026-04-18T11:41:55.976Z</time></trkpt><trkpt lat="16.2408348" lon="-61.4544563"><ele>102.0</ele><time>2026-04-18T11:41:56.972Z</time></trkpt><trkpt lat="16.2407606" lon="-61.4543523"><ele>101.39999999999999</ele><time>2026-04-18T11:41:57.986Z</time></trkpt><trkpt lat="16.2406874" lon="-61.4542486"><ele>100.8</ele><time>2026-04-18T11:41:58.996Z</time></trkpt><trkpt lat="16.2406306" lon="-61.4541653"><ele>100.2</ele><time>2026-04-18T11:41:59.987Z</time></trkpt><trkpt lat="16.2405866" lon="-61.4540986"><ele>99.6</ele><time>2026-04-18T11:42:00.98Z</time></trkpt><trkpt lat="16.2405333" lon="-61.4540539"><ele>99.0</ele><time>2026-04-18T11:42:02.999Z</time></trkpt><trkpt lat="16.2404684" lon="-61.4541098"><ele>98.66666666666667</ele><time>2026-04-18T11:42:11.992Z</time></trkpt><trkpt lat="16.2404148" lon="-61.4542156"><ele>98.33333333333334</ele><time>2026-04-18T11:42:13.988Z</time></trkpt><trkpt lat="16.2403666" lon="-61.4542746"><ele>98.0</ele><time>2026-04-18T11:42:14.995Z</time></trkpt><trkpt lat="16.2403179" lon="-61.4543315"><ele>97.66666666666667</ele><time>2026-04-18T11:42:15.998Z</time></trkpt><trkpt lat="16.2402617" lon="-61.4543964"><ele>97.33333333333334</ele><time>2026-04-18T11:42:16.969Z</time></trkpt><trkpt lat="16.2401992" lon="-61.4544619"><ele>97.0</ele><time>2026-04-18T11:42:17.989Z</time></trkpt><trkpt lat="16.2401321" lon="-61.4545165"><ele>97.0</ele><time>2026-04-18T11:42:18.99Z</time></trkpt><trkpt lat="16.2400592" lon="-61.4545563"><ele>97.0</ele><time>2026-04-18T11:42:19.992Z</time></trkpt><trkpt lat="16.2399815" lon="-61.4545849"><ele>97.0</ele><time>2026-04-18T11:42:20.991Z</time></trkpt><trkpt lat="16.2398924" lon="-61.4546122"><ele>97.0</ele><time>2026-04-18T11:42:21.955Z</time></trkpt><trkpt lat="16.2397849" lon="-61.4546147"><ele>97.0</ele><time>2026-04-18T11:42:22.992Z</time></trkpt><trkpt lat="16.2396833" lon="-61.4546232"><ele>97.33333333333334</ele><time>2026-04-18T11:42:23.982Z</time></trkpt><trkpt lat="16.2395867" lon="-61.4546334"><ele>97.66666666666667</ele><time>2026-04-18T11:42:24.987Z</time></trkpt><trkpt lat="16.2395007" lon="-61.4546492"><ele>98.0</ele><time>2026-04-18T11:42:25.995Z</time></trkpt><trkpt lat="16.2394373" lon="-61.4546668"><ele>98.33333333333334</ele><time>2026-04-18T11:42:26.986Z</time></trkpt><trkpt lat="16.2393753" lon="-61.4547495"><ele>98.66666666666667</ele><time>2026-04-18T11:42:29.058Z</time></trkpt><trkpt lat="16.2393593" lon="-61.4548136"><ele>99.0</ele><time>2026-04-18T11:42:30.045Z</time></trkpt><trkpt lat="16.2393395" lon="-61.4548924"><ele>99.0</ele><time>2026-04-18T11:42:31.03Z</time></trkpt><trkpt lat="16.239319" lon="-61.4549815"><ele>99.0</ele><time>2026-04-18T11:42:32.076Z</time></trkpt><trkpt lat="16.239291" lon="-61.4550743"><ele>99.0</ele><time>2026-04-18T11:42:32.994Z</time></trkpt><trkpt lat="16.2392572" lon="-61.4551798"><ele>99.0</ele><time>2026-04-18T11:42:33.997Z</time></trkpt><trkpt lat="16.239216" lon="-61.4552914"><ele>99.0</ele><time>2026-04-18T11:42:34.985Z</time></trkpt><trkpt lat="16.2391828" lon="-61.4553915"><ele>99.4</ele><time>2026-04-18T11:42:36.049Z</time></trkpt><trkpt lat="16.2391409" lon="-61.4554982"><ele>99.80000000000001</ele><time>2026-04-18T11:42:37.031Z</time></trkpt><trkpt lat="16.2391" lon="-61.4556025"><ele>100.19999999999999</ele><time>2026-04-18T11:42:37.996Z</time></trkpt><trkpt lat="16.2390617" lon="-61.4557069"><ele>100.6</ele><time>2026-04-18T11:42:38.984Z</time></trkpt><trkpt lat="16.2390085" lon="-61.455816"><ele>101.0</ele><time>2026-04-18T11:42:40.1Z</time></trkpt><trkpt lat="16.2389435" lon="-61.4559214"><ele>102.8</ele><time>2026-04-18T11:42:41.073Z</time></trkpt><trkpt lat="16.2388745" lon="-61.4560073"><ele>104.6</ele><time>2026-04-18T11:42:41.984Z</time></trkpt><trkpt lat="16.2388152" lon="-61.4560845"><ele>106.4</ele><time>2026-04-18T11:42:42.992Z</time></trkpt><trkpt lat="16.2387537" lon="-61.4561429"><ele>108.2</ele><time>2026-04-18T11:42:43.953Z</time></trkpt><trkpt lat="16.2386772" lon="-61.4561768"><ele>110.0</ele><time>2026-04-18T11:42:45.046Z</time></trkpt><trkpt lat="16.2385852" lon="-61.4561991"><ele>110.0</ele><time>2026-04-18T11:42:46.029Z</time></trkpt><trkpt lat="16.2384856" lon="-61.4561996"><ele>110.0</ele><time>2026-04-18T11:42:46.992Z</time></trkpt><trkpt lat="16.2383819" lon="-61.4561927"><ele>110.0</ele><time>2026-04-18T11:42:47.991Z</time></trkpt><trkpt lat="16.2382722" lon="-61.4561932"><ele>110.0</ele><time>2026-04-18T11:42:49.001Z</time></trkpt><trkpt lat="16.2381575" lon="-61.4562028"><ele>110.0</ele><time>2026-04-18T11:42:49.99Z</time></trkpt><trkpt lat="16.2380509" lon="-61.4562176"><ele>109.8</ele><time>2026-04-18T11:42:50.993Z</time></trkpt><trkpt lat="16.2379436" lon="-61.4562407"><ele>109.6</ele><time>2026-04-18T11:42:51.986Z</time></trkpt><trkpt lat="16.2378366" lon="-61.4562736"><ele>109.4</ele><time>2026-04-18T11:42:52.981Z</time></trkpt><trkpt lat="16.2377382" lon="-61.4563228"><ele>109.2</ele><time>2026-04-18T11:42:53.995Z</time></trkpt><trkpt lat="16.2376545" lon="-61.4563879"><ele>109.0</ele><time>2026-04-18T11:42:54.989Z</time></trkpt><trkpt lat="16.2375745" lon="-61.456446"><ele>107.33333333333334</ele><time>2026-04-18T11:42:55.993Z</time></trkpt><trkpt lat="16.2375161" lon="-61.4564841"><ele>105.66666666666667</ele><time>2026-04-18T11:42:56.974Z</time></trkpt><trkpt lat="16.2374384" lon="-61.4565551"><ele>104.0</ele><time>2026-04-18T11:42:58.984Z</time></trkpt><trkpt lat="16.2373889" lon="-61.4565963"><ele>102.33333333333334</ele><time>2026-04-18T11:42:59.993Z</time></trkpt><trkpt lat="16.2373396" lon="-61.4566411"><ele>100.66666666666667</ele><time>2026-04-18T11:43:00.99Z</time></trkpt><trkpt lat="16.2372605" lon="-61.456729"><ele>99.0</ele><time>2026-04-18T11:43:02.978Z</time></trkpt><trkpt lat="16.2371841" lon="-61.4568384"><ele>99.0</ele><time>2026-04-18T11:43:04.987Z</time></trkpt><trkpt lat="16.2371459" lon="-61.4568981"><ele>99.0</ele><time>2026-04-18T11:43:05.989Z</time></trkpt><trkpt lat="16.2371041" lon="-61.4569741"><ele>99.0</ele><time>2026-04-18T11:43:07.037Z</time></trkpt><trkpt lat="16.2370551" lon="-61.4570688"><ele>99.0</ele><time>2026-04-18T11:43:07.989Z</time></trkpt><trkpt lat="16.2369972" lon="-61.4571647"><ele>99.0</ele><time>2026-04-18T11:43:08.997Z</time></trkpt><trkpt lat="16.2369582" lon="-61.4572608"><ele>99.0</ele><time>2026-04-18T11:43:09.994Z</time></trkpt><trkpt lat="16.2369289" lon="-61.4573496"><ele>99.0</ele><time>2026-04-18T11:43:10.999Z</time></trkpt><trkpt lat="16.2368962" lon="-61.4574325"><ele>99.0</ele><time>2026-04-18T11:43:11.99Z</time></trkpt><trkpt lat="16.2368633" lon="-61.4575197"><ele>99.0</ele><time>2026-04-18T11:43:12.99Z</time></trkpt><trkpt lat="16.2368306" lon="-61.4576154"><ele>99.0</ele><time>2026-04-18T11:43:13.999Z</time></trkpt><trkpt lat="16.236787" lon="-61.4577197"><ele>99.0</ele><time>2026-04-18T11:43:15.028Z</time></trkpt><trkpt lat="16.2367428" lon="-61.4578182"><ele>99.0</ele><time>2026-04-18T11:43:16.033Z</time></trkpt><trkpt lat="16.2366919" lon="-61.4579076"><ele>99.0</ele><time>2026-04-18T11:43:17.038Z</time></trkpt><trkpt lat="16.2366415" lon="-61.4579853"><ele>99.0</ele><time>2026-04-18T11:43:17.98Z</time></trkpt><trkpt lat="16.2365823" lon="-61.4580559"><ele>99.0</ele><time>2026-04-18T11:43:18.994Z</time></trkpt><trkpt lat="16.2365196" lon="-61.4581222"><ele>96.6</ele><time>2026-04-18T11:43:19.985Z</time></trkpt><trkpt lat="16.2364468" lon="-61.4581782"><ele>94.2</ele><time>2026-04-18T11:43:21.052Z</time></trkpt><trkpt lat="16.2363692" lon="-61.4582291"><ele>91.8</ele><time>2026-04-18T11:43:21.989Z</time></trkpt><trkpt lat="16.2362914" lon="-61.4582927"><ele>89.39999999999999</ele><time>2026-04-18T11:43:22.987Z</time></trkpt><trkpt lat="16.2362112" lon="-61.4583644"><ele>87.0</ele><time>2026-04-18T11:43:23.994Z</time></trkpt><trkpt lat="16.2361364" lon="-61.4584348"><ele>87.0</ele><time>2026-04-18T11:43:24.988Z</time></trkpt><trkpt lat="16.236058" lon="-61.4584943"><ele>87.0</ele><time>2026-04-18T11:43:25.994Z</time></trkpt><trkpt lat="16.2359747" lon="-61.4585472"><ele>87.0</ele><time>2026-04-18T11:43:26.977Z</time></trkpt><trkpt lat="16.235885" lon="-61.4585799"><ele>87.0</ele><time>2026-04-18T11:43:27.992Z</time></trkpt><trkpt lat="16.2357853" lon="-61.4586002"><ele>87.0</ele><time>2026-04-18T11:43:28.99Z</time></trkpt><trkpt lat="16.2356808" lon="-61.4586043"><ele>82.75</ele><time>2026-04-18T11:43:29.997Z</time></trkpt><trkpt lat="16.2355706" lon="-61.4585697"><ele>78.5</ele><time>2026-04-18T11:43:30.996Z</time></trkpt><trkpt lat="16.235442" lon="-61.4585033"><ele>74.25</ele><time>2026-04-18T11:43:32.033Z</time></trkpt><trkpt lat="16.2353112" lon="-61.4584565"><ele>70.0</ele><time>2026-04-18T11:43:32.98Z</time></trkpt><trkpt lat="16.2351829" lon="-61.4584213"><ele>70.0</ele><time>2026-04-18T11:43:33.988Z</time></trkpt><trkpt lat="16.2350542" lon="-61.4583886"><ele>70.0</ele><time>2026-04-18T11:43:34.984Z</time></trkpt><trkpt lat="16.2349244" lon="-61.4583632"><ele>70.0</ele><time>2026-04-18T11:43:36.052Z</time></trkpt><trkpt lat="16.2347972" lon="-61.4583481"><ele>70.0</ele><time>2026-04-18T11:43:36.994Z</time></trkpt><trkpt lat="16.2346747" lon="-61.4583472"><ele>68.8</ele><time>2026-04-18T11:43:37.985Z</time></trkpt><trkpt lat="16.2345565" lon="-61.4583432"><ele>67.6</ele><time>2026-04-18T11:43:38.985Z</time></trkpt><trkpt lat="16.2344463" lon="-61.4583388"><ele>66.4</ele><time>2026-04-18T11:43:40.079Z</time></trkpt><trkpt lat="16.2343376" lon="-61.4583292"><ele>65.2</ele><time>2026-04-18T11:43:41.042Z</time></trkpt><trkpt lat="16.2342357" lon="-61.4583063"><ele>64.0</ele><time>2026-04-18T11:43:41.977Z</time></trkpt><trkpt lat="16.2341263" lon="-61.4582578"><ele>64.0</ele><time>2026-04-18T11:43:42.993Z</time></trkpt><trkpt lat="16.2340253" lon="-61.4581927"><ele>64.0</ele><time>2026-04-18T11:43:43.987Z</time></trkpt><trkpt lat="16.2339214" lon="-61.4581314"><ele>64.0</ele><time>2026-04-18T11:43:44.993Z</time></trkpt><trkpt lat="16.2338106" lon="-61.4580754"><ele>64.0</ele><time>2026-04-18T11:43:45.982Z</time></trkpt><trkpt lat="16.2336972" lon="-61.4580316"><ele>64.0</ele><time>2026-04-18T11:43:46.987Z</time></trkpt><trkpt lat="16.2335794" lon="-61.4580049"><ele>64.0</ele><time>2026-04-18T11:43:47.985Z</time></trkpt><trkpt lat="16.2334585" lon="-61.4580017"><ele>64.0</ele><time>2026-04-18T11:43:48.99Z</time></trkpt><trkpt lat="16.233338" lon="-61.4580217"><ele>64.0</ele><time>2026-04-18T11:43:50.057Z</time></trkpt><trkpt lat="16.233225" lon="-61.4580633"><ele>62.6</ele><time>2026-04-18T11:43:50.987Z</time></trkpt><trkpt lat="16.2331164" lon="-61.4581083"><ele>61.2</ele><time>2026-04-18T11:43:51.995Z</time></trkpt><trkpt lat="16.2330295" lon="-61.4581471"><ele>59.800000000000004</ele><time>2026-04-18T11:43:52.982Z</time></trkpt><trkpt lat="16.2329424" lon="-61.4581695"><ele>58.400000000000006</ele><time>2026-04-18T11:43:53.984Z</time></trkpt><trkpt lat="16.2328515" lon="-61.4581637"><ele>57.0</ele><time>2026-04-18T11:43:54.978Z</time></trkpt><trkpt lat="16.2327655" lon="-61.4581462"><ele>57.0</ele><time>2026-04-18T11:43:55.983Z</time></trkpt><trkpt lat="16.2326945" lon="-61.4581282"><ele>56.99999999999999</ele><time>2026-04-18T11:43:56.977Z</time></trkpt><trkpt lat="16.2326293" lon="-61.458127"><ele>57.0</ele><time>2026-04-18T11:43:57.981Z</time></trkpt><trkpt lat="16.2325612" lon="-61.4581243"><ele>57.0</ele><time>2026-04-18T11:43:58.981Z</time></trkpt><trkpt lat="16.2324981" lon="-61.4581208"><ele>56.99999999999999</ele><time>2026-04-18T11:43:59.984Z</time></trkpt><trkpt lat="16.2324334" lon="-61.4581115"><ele>57.0</ele><time>2026-04-18T11:44:01.974Z</time></trkpt><trkpt lat="16.2323938" lon="-61.45805"><ele>57.0</ele><time>2026-04-18T11:44:03.978Z</time></trkpt><trkpt lat="16.2323556" lon="-61.4579676"><ele>57.25</ele><time>2026-04-18T11:44:04.986Z</time></trkpt><trkpt lat="16.2323132" lon="-61.4578643"><ele>57.5</ele><time>2026-04-18T11:44:05.989Z</time></trkpt><trkpt lat="16.2322591" lon="-61.4577393"><ele>57.75</ele><time>2026-04-18T11:44:06.993Z</time></trkpt><trkpt lat="16.2321933" lon="-61.4576116"><ele>58.0</ele><time>2026-04-18T11:44:07.987Z</time></trkpt><trkpt lat="16.2321301" lon="-61.4574856"><ele>62.0</ele><time>2026-04-18T11:44:08.981Z</time></trkpt><trkpt lat="16.232056" lon="-61.457379"><ele>66.0</ele><time>2026-04-18T11:44:09.984Z</time></trkpt><trkpt lat="16.2319814" lon="-61.4572977"><ele>70.0</ele><time>2026-04-18T11:44:10.983Z</time></trkpt><trkpt lat="16.2319232" lon="-61.4572211"><ele>74.0</ele><time>2026-04-18T11:44:11.987Z</time></trkpt><trkpt lat="16.2318407" lon="-61.4571415"><ele>78.0</ele><time>2026-04-18T11:44:12.985Z</time></trkpt><trkpt lat="16.2317258" lon="-61.4570654"><ele>78.0</ele><time>2026-04-18T11:44:13.987Z</time></trkpt><trkpt lat="16.2315912" lon="-61.4569961"><ele>78.0</ele><time>2026-04-18T11:44:14.986Z</time></trkpt><trkpt lat="16.2314337" lon="-61.4569477"><ele>78.0</ele><time>2026-04-18T11:44:15.98Z</time></trkpt><trkpt lat="16.2313089" lon="-61.4568789"><ele>79.2</ele><time>2026-04-18T11:44:16.986Z</time></trkpt><trkpt lat="16.2312058" lon="-61.4568145"><ele>80.4</ele><time>2026-04-18T11:44:17.981Z</time></trkpt><trkpt lat="16.2311399" lon="-61.4567391"><ele>81.60000000000001</ele><time>2026-04-18T11:44:18.991Z</time></trkpt><trkpt lat="16.2310995" lon="-61.4566538"><ele>82.8</ele><time>2026-04-18T11:44:19.985Z</time></trkpt><trkpt lat="16.2310882" lon="-61.4565704"><ele>84.0</ele><time>2026-04-18T11:44:20.987Z</time></trkpt><trkpt lat="16.2309835" lon="-61.4566339"><ele>84.0</ele><time>2026-04-18T11:44:23.994Z</time></trkpt><trkpt lat="16.2309283" lon="-61.4567188"><ele>84.0</ele><time>2026-04-18T11:44:25.042Z</time></trkpt><trkpt lat="16.230887" lon="-61.456802"><ele>84.0</ele><time>2026-04-18T11:44:26.055Z</time></trkpt><trkpt lat="16.2308717" lon="-61.4568835"><ele>84.0</ele><time>2026-04-18T11:44:26.995Z</time></trkpt><trkpt lat="16.230887" lon="-61.4569772"><ele>84.0</ele><time>2026-04-18T11:44:27.99Z</time></trkpt><trkpt lat="16.2309278" lon="-61.4570861"><ele>86.75</ele><time>2026-04-18T11:44:28.984Z</time></trkpt><trkpt lat="16.2309989" lon="-61.4571912"><ele>89.5</ele><time>2026-04-18T11:44:29.968Z</time></trkpt><trkpt lat="16.2310954" lon="-61.4573052"><ele>92.25</ele><time>2026-04-18T11:44:31Z</time></trkpt><trkpt lat="16.231191" lon="-61.4573958"><ele>95.0</ele><time>2026-04-18T11:44:31.97Z</time></trkpt><trkpt lat="16.2312719" lon="-61.4574923"><ele>95.0</ele><time>2026-04-18T11:44:32.978Z</time></trkpt><trkpt lat="16.2313411" lon="-61.4575835"><ele>95.0</ele><time>2026-04-18T11:44:33.982Z</time></trkpt><trkpt lat="16.2313899" lon="-61.4576656"><ele>95.0</ele><time>2026-04-18T11:44:34.99Z</time></trkpt><trkpt lat="16.2314222" lon="-61.4577508"><ele>95.0</ele><time>2026-04-18T11:44:35.996Z</time></trkpt><trkpt lat="16.2314068" lon="-61.4578359"><ele>95.0</ele><time>2026-04-18T11:44:37.069Z</time></trkpt><trkpt lat="16.2313604" lon="-61.4578971"><ele>95.0</ele><time>2026-04-18T11:44:37.985Z</time></trkpt><trkpt lat="16.2312798" lon="-61.4579448"><ele>95.0</ele><time>2026-04-18T11:44:38.991Z</time></trkpt><trkpt lat="16.2311638" lon="-61.4579447"><ele>95.0</ele><time>2026-04-18T11:44:39.97Z</time></trkpt><trkpt lat="16.2310459" lon="-61.4579542"><ele>95.0</ele><time>2026-04-18T11:44:40.982Z</time></trkpt><trkpt lat="16.2309248" lon="-61.4579732"><ele>95.0</ele><time>2026-04-18T11:44:42.052Z</time></trkpt><trkpt lat="16.230815" lon="-61.4580079"><ele>94.75</ele><time>2026-04-18T11:44:42.998Z</time></trkpt><trkpt lat="16.2306992" lon="-61.4580623"><ele>94.5</ele><time>2026-04-18T11:44:44Z</time></trkpt><trkpt lat="16.230587" lon="-61.4581236"><ele>94.25</ele><time>2026-04-18T11:44:44.976Z</time></trkpt><trkpt lat="16.2304819" lon="-61.4581928"><ele>94.0</ele><time>2026-04-18T11:44:46.047Z</time></trkpt><trkpt lat="16.2303859" lon="-61.4582732"><ele>95.80000000000001</ele><time>2026-04-18T11:44:47.05Z</time></trkpt><trkpt lat="16.2303072" lon="-61.4583692"><ele>97.60000000000001</ele><time>2026-04-18T11:44:47.99Z</time></trkpt><trkpt lat="16.2302328" lon="-61.4584484"><ele>99.4</ele><time>2026-04-18T11:44:48.989Z</time></trkpt><trkpt lat="16.2301707" lon="-61.458527"><ele>101.2</ele><time>2026-04-18T11:44:49.997Z</time></trkpt><trkpt lat="16.2301216" lon="-61.4586147"><ele>103.0</ele><time>2026-04-18T11:44:51.064Z</time></trkpt><trkpt lat="16.2300905" lon="-61.4587181"><ele>100.75</ele><time>2026-04-18T11:44:52.038Z</time></trkpt><trkpt lat="16.2300741" lon="-61.4588476"><ele>98.5</ele><time>2026-04-18T11:44:52.984Z</time></trkpt><trkpt lat="16.2300653" lon="-61.458974"><ele>96.25</ele><time>2026-04-18T11:44:53.998Z</time></trkpt><trkpt lat="16.230071" lon="-61.459103"><ele>94.0</ele><time>2026-04-18T11:44:54.995Z</time></trkpt><trkpt lat="16.2300634" lon="-61.4592403"><ele>94.0</ele><time>2026-04-18T11:44:55.988Z</time></trkpt><trkpt lat="16.2300561" lon="-61.4593677"><ele>94.0</ele><time>2026-04-18T11:44:56.991Z</time></trkpt><trkpt lat="16.2300381" lon="-61.4594947"><ele>94.0</ele><time>2026-04-18T11:44:57.979Z</time></trkpt><trkpt lat="16.2300127" lon="-61.459608"><ele>94.0</ele><time>2026-04-18T11:44:58.988Z</time></trkpt><trkpt lat="16.229981" lon="-61.4596961"><ele>94.0</ele><time>2026-04-18T11:44:59.967Z</time></trkpt><trkpt lat="16.2299444" lon="-61.4597662"><ele>93.0</ele><time>2026-04-18T11:45:00.979Z</time></trkpt><trkpt lat="16.2298982" lon="-61.4598249"><ele>92.0</ele><time>2026-04-18T11:45:01.988Z</time></trkpt><trkpt lat="16.2298198" lon="-61.4598672"><ele>91.0</ele><time>2026-04-18T11:45:02.981Z</time></trkpt><trkpt lat="16.2297214" lon="-61.4598895"><ele>90.0</ele><time>2026-04-18T11:45:03.982Z</time></trkpt><trkpt lat="16.2295876" lon="-61.4598432"><ele>89.0</ele><time>2026-04-18T11:45:04.992Z</time></trkpt><trkpt lat="16.2294505" lon="-61.4597933"><ele>88.75</ele><time>2026-04-18T11:45:05.985Z</time></trkpt><trkpt lat="16.2293064" lon="-61.4597516"><ele>88.5</ele><time>2026-04-18T11:45:07.073Z</time></trkpt><trkpt lat="16.2291595" lon="-61.4597062"><ele>88.25</ele><time>2026-04-18T11:45:07.985Z</time></trkpt><trkpt lat="16.2290217" lon="-61.4596604"><ele>88.0</ele><time>2026-04-18T11:45:08.976Z</time></trkpt><trkpt lat="16.2288783" lon="-61.4596236"><ele>84.75</ele><time>2026-04-18T11:45:09.964Z</time></trkpt><trkpt lat="16.228736" lon="-61.4595961"><ele>81.5</ele><time>2026-04-18T11:45:10.983Z</time></trkpt><trkpt lat="16.2285881" lon="-61.4595788"><ele>78.25</ele><time>2026-04-18T11:45:11.976Z</time></trkpt><trkpt lat="16.2284408" lon="-61.4595692"><ele>75.0</ele><time>2026-04-18T11:45:12.983Z</time></trkpt><trkpt lat="16.2282921" lon="-61.459573"><ele>69.0</ele><time>2026-04-18T11:45:13.978Z</time></trkpt><trkpt lat="16.228142" lon="-61.4595756"><ele>63.0</ele><time>2026-04-18T11:45:15.032Z</time></trkpt><trkpt lat="16.2279874" lon="-61.4595641"><ele>57.0</ele><time>2026-04-18T11:45:16.034Z</time></trkpt><trkpt lat="16.2278379" lon="-61.4595539"><ele>57.0</ele><time>2026-04-18T11:45:16.991Z</time></trkpt><trkpt lat="16.2276942" lon="-61.4595434"><ele>57.0</ele><time>2026-04-18T11:45:17.982Z</time></trkpt><trkpt lat="16.227549" lon="-61.459525"><ele>57.0</ele><time>2026-04-18T11:45:18.991Z</time></trkpt><trkpt lat="16.2274212" lon="-61.4595131"><ele>57.0</ele><time>2026-04-18T11:45:19.995Z</time></trkpt><trkpt lat="16.2273141" lon="-61.4595113"><ele>55.2</ele><time>2026-04-18T11:45:20.981Z</time></trkpt><trkpt lat="16.2272448" lon="-61.4595205"><ele>53.400000000000006</ele><time>2026-04-18T11:45:21.98Z</time></trkpt><trkpt lat="16.2272567" lon="-61.4594261"><ele>51.599999999999994</ele><time>2026-04-18T11:45:28.991Z</time></trkpt><trkpt lat="16.2272094" lon="-61.4592924"><ele>49.8</ele><time>2026-04-18T11:45:30.977Z</time></trkpt><trkpt lat="16.2272082" lon="-61.4592187"><ele>48.0</ele><time>2026-04-18T11:45:31.99Z</time></trkpt><trkpt lat="16.2272206" lon="-61.4590902"><ele>47.99999999999999</ele><time>2026-04-18T11:45:33.995Z</time></trkpt><trkpt lat="16.2272277" lon="-61.4590175"><ele>48.0</ele><time>2026-04-18T11:45:34.986Z</time></trkpt><trkpt lat="16.2272101" lon="-61.4589409"><ele>48.0</ele><time>2026-04-18T11:45:35.959Z</time></trkpt><trkpt lat="16.2271813" lon="-61.458872"><ele>48.0</ele><time>2026-04-18T11:45:36.997Z</time></trkpt><trkpt lat="16.2271593" lon="-61.4588046"><ele>48.0</ele><time>2026-04-18T11:45:37.982Z</time></trkpt><trkpt lat="16.2271301" lon="-61.4587321"><ele>47.99999999999999</ele><time>2026-04-18T11:45:38.98Z</time></trkpt><trkpt lat="16.227092" lon="-61.458652"><ele>48.0</ele><time>2026-04-18T11:45:39.995Z</time></trkpt><trkpt lat="16.2270503" lon="-61.4585796"><ele>49.0</ele><time>2026-04-18T11:45:40.99Z</time></trkpt><trkpt lat="16.2270055" lon="-61.4585252"><ele>50.0</ele><time>2026-04-18T11:45:41.977Z</time></trkpt><trkpt lat="16.2269101" lon="-61.4584642"><ele>51.0</ele><time>2026-04-18T11:45:43.987Z</time></trkpt><trkpt lat="16.2268374" lon="-61.4584267"><ele>52.0</ele><time>2026-04-18T11:45:45.986Z</time></trkpt><trkpt lat="16.2267751" lon="-61.4583628"><ele>53.0</ele><time>2026-04-18T11:45:48.981Z</time></trkpt><trkpt lat="16.2267272" lon="-61.4583074"><ele>54.0</ele><time>2026-04-18T11:45:52.989Z</time></trkpt><trkpt lat="16.2267932" lon="-61.4583484"><ele>54.0</ele><time>2026-04-18T11:46:07.983Z</time></trkpt><trkpt lat="16.2268938" lon="-61.4583956"><ele>54.00000000000001</ele><time>2026-04-18T11:46:09.98Z</time></trkpt><trkpt lat="16.2269895" lon="-61.458441"><ele>54.00000000000001</ele><time>2026-04-18T11:46:11.988Z</time></trkpt><trkpt lat="16.2270608" lon="-61.4584831"><ele>54.0</ele><time>2026-04-18T11:46:14.982Z</time></trkpt><trkpt lat="16.2271233" lon="-61.4585606"><ele>54.0</ele><time>2026-04-18T11:46:16.965Z</time></trkpt><trkpt lat="16.2271529" lon="-61.458628"><ele>54.0</ele><time>2026-04-18T11:46:17.982Z</time></trkpt><trkpt lat="16.227209" lon="-61.4587365"><ele>54.00000000000001</ele><time>2026-04-18T11:46:19.959Z</time></trkpt><trkpt lat="16.2272487" lon="-61.4588752"><ele>54.00000000000001</ele><time>2026-04-18T11:46:21.996Z</time></trkpt><trkpt lat="16.2272404" lon="-61.4589652"><ele>54.0</ele><time>2026-04-18T11:46:22.959Z</time></trkpt><trkpt lat="16.2272397" lon="-61.4590559"><ele>54.0</ele><time>2026-04-18T11:46:23.983Z</time></trkpt><trkpt lat="16.2272477" lon="-61.4591537"><ele>54.5</ele><time>2026-04-18T11:46:24.983Z</time></trkpt><trkpt lat="16.2272792" lon="-61.4592419"><ele>55.0</ele><time>2026-04-18T11:46:25.981Z</time></trkpt><trkpt lat="16.2273008" lon="-61.4593122"><ele>55.5</ele><time>2026-04-18T11:46:26.992Z</time></trkpt><trkpt lat="16.2272761" lon="-61.4593756"><ele>56.0</ele><time>2026-04-18T11:46:27.964Z</time></trkpt><trkpt lat="16.2272273" lon="-61.4594521"><ele>56.5</ele><time>2026-04-18T11:46:29.999Z</time></trkpt><trkpt lat="16.2273119" lon="-61.4595107"><ele>57.0</ele><time>2026-04-18T11:46:34.979Z</time></trkpt><trkpt lat="16.2273902" lon="-61.4595269"><ele>57.0</ele><time>2026-04-18T11:46:35.992Z</time></trkpt><trkpt lat="16.2274732" lon="-61.4595378"><ele>57.0</ele><time>2026-04-18T11:46:36.984Z</time></trkpt><trkpt lat="16.2275674" lon="-61.4595455"><ele>57.0</ele><time>2026-04-18T11:46:38.037Z</time></trkpt><trkpt lat="16.2276934" lon="-61.4595457"><ele>57.0</ele><time>2026-04-18T11:46:39.012Z</time></trkpt><trkpt lat="16.2278427" lon="-61.4595568"><ele>57.0</ele><time>2026-04-18T11:46:40.046Z</time></trkpt><trkpt lat="16.2280124" lon="-61.4595557"><ele>57.0</ele><time>2026-04-18T11:46:40.967Z</time></trkpt><trkpt lat="16.2281905" lon="-61.4595505"><ele>57.0</ele><time>2026-04-18T11:46:41.989Z</time></trkpt><trkpt lat="16.2283664" lon="-61.4595527"><ele>63.0</ele><time>2026-04-18T11:46:42.97Z</time></trkpt><trkpt lat="16.2285329" lon="-61.4595531"><ele>69.0</ele><time>2026-04-18T11:46:43.995Z</time></trkpt><trkpt lat="16.228688" lon="-61.4595538"><ele>75.0</ele><time>2026-04-18T11:46:44.993Z</time></trkpt><trkpt lat="16.2288515" lon="-61.4595681"><ele>78.0</ele><time>2026-04-18T11:46:45.964Z</time></trkpt><trkpt lat="16.229008" lon="-61.4595958"><ele>81.0</ele><time>2026-04-18T11:46:46.969Z</time></trkpt><trkpt lat="16.229162" lon="-61.4596359"><ele>84.0</ele><time>2026-04-18T11:46:47.989Z</time></trkpt><trkpt lat="16.2293155" lon="-61.4596704"><ele>85.0</ele><time>2026-04-18T11:46:48.975Z</time></trkpt><trkpt lat="16.2294617" lon="-61.4596988"><ele>86.0</ele><time>2026-04-18T11:46:49.961Z</time></trkpt><trkpt lat="16.229607" lon="-61.4597324"><ele>87.0</ele><time>2026-04-18T11:46:50.945Z</time></trkpt><trkpt lat="16.2297418" lon="-61.4597551"><ele>88.0</ele><time>2026-04-18T11:46:51.949Z</time></trkpt><trkpt lat="16.2298673" lon="-61.4597624"><ele>88.25</ele><time>2026-04-18T11:46:52.949Z</time></trkpt><trkpt lat="16.2299923" lon="-61.4597417"><ele>88.5</ele><time>2026-04-18T11:46:53.971Z</time></trkpt><trkpt lat="16.2300876" lon="-61.4596741"><ele>88.75</ele><time>2026-04-18T11:46:54.976Z</time></trkpt><trkpt lat="16.2301607" lon="-61.4595845"><ele>89.0</ele><time>2026-04-18T11:46:55.983Z</time></trkpt><trkpt lat="16.2302236" lon="-61.4594845"><ele>90.0</ele><time>2026-04-18T11:46:56.987Z</time></trkpt><trkpt lat="16.230277" lon="-61.4593926"><ele>91.0</ele><time>2026-04-18T11:46:57.987Z</time></trkpt><trkpt lat="16.2303418" lon="-61.4593043"><ele>92.0</ele><time>2026-04-18T11:46:58.99Z</time></trkpt><trkpt lat="16.2304056" lon="-61.4592201"><ele>93.0</ele><time>2026-04-18T11:46:59.987Z</time></trkpt><trkpt lat="16.2304355" lon="-61.459095"><ele>94.0</ele><time>2026-04-18T11:47:00.983Z</time></trkpt><trkpt lat="16.2304075" lon="-61.4589277"><ele>97.0</ele><time>2026-04-18T11:47:01.994Z</time></trkpt><trkpt lat="16.2303871" lon="-61.4587462"><ele>100.0</ele><time>2026-04-18T11:47:02.989Z</time></trkpt><trkpt lat="16.2303679" lon="-61.458585"><ele>103.0</ele><time>2026-04-18T11:47:03.979Z</time></trkpt><trkpt lat="16.2303555" lon="-61.4584618"><ele>103.0</ele><time>2026-04-18T11:47:04.988Z</time></trkpt><trkpt lat="16.2303593" lon="-61.4583496"><ele>103.0</ele><time>2026-04-18T11:47:05.987Z</time></trkpt><trkpt lat="16.2303993" lon="-61.4582444"><ele>103.0</ele><time>2026-04-18T11:47:06.992Z</time></trkpt><trkpt lat="16.2304943" lon="-61.4581464"><ele>103.0</ele><time>2026-04-18T11:47:07.989Z</time></trkpt><trkpt lat="16.2305905" lon="-61.4580468"><ele>101.0</ele><time>2026-04-18T11:47:08.954Z</time></trkpt><trkpt lat="16.230698" lon="-61.4579547"><ele>99.0</ele><time>2026-04-18T11:47:09.996Z</time></trkpt><trkpt lat="16.2308029" lon="-61.4578784"><ele>97.0</ele><time>2026-04-18T11:47:10.985Z</time></trkpt><trkpt lat="16.2309082" lon="-61.4578162"><ele>95.0</ele><time>2026-04-18T11:47:11.997Z</time></trkpt><trkpt lat="16.2310388" lon="-61.4577743"><ele>95.0</ele><time>2026-04-18T11:47:12.986Z</time></trkpt><trkpt lat="16.2311708" lon="-61.4577384"><ele>95.0</ele><time>2026-04-18T11:47:13.999Z</time></trkpt><trkpt lat="16.2312842" lon="-61.4577023"><ele>95.0</ele><time>2026-04-18T11:47:14.997Z</time></trkpt><trkpt lat="16.2313709" lon="-61.4576423"><ele>95.0</ele><time>2026-04-18T11:47:15.993Z</time></trkpt><trkpt lat="16.2314209" lon="-61.4575817"><ele>95.0</ele><time>2026-04-18T11:47:17.002Z</time></trkpt><trkpt lat="16.2314102" lon="-61.4574294"><ele>95.0</ele><time>2026-04-18T11:47:18.996Z</time></trkpt><trkpt lat="16.2313732" lon="-61.4573144"><ele>95.0</ele><time>2026-04-18T11:47:19.955Z</time></trkpt><trkpt lat="16.2312897" lon="-61.4572081"><ele>95.0</ele><time>2026-04-18T11:47:20.977Z</time></trkpt><trkpt lat="16.2311952" lon="-61.4570972"><ele>95.0</ele><time>2026-04-18T11:47:21.99Z</time></trkpt><trkpt lat="16.2311145" lon="-61.4570004"><ele>92.8</ele><time>2026-04-18T11:47:22.989Z</time></trkpt><trkpt lat="16.2310501" lon="-61.4569217"><ele>90.6</ele><time>2026-04-18T11:47:23.989Z</time></trkpt><trkpt lat="16.2309938" lon="-61.4568528"><ele>88.4</ele><time>2026-04-18T11:47:25.004Z</time></trkpt><trkpt lat="16.2309455" lon="-61.4568051"><ele>86.2</ele><time>2026-04-18T11:47:25.989Z</time></trkpt><trkpt lat="16.2308328" lon="-61.4568774"><ele>84.0</ele><time>2026-04-18T11:47:28.009Z</time></trkpt><trkpt lat="16.2307525" lon="-61.4569408"><ele>84.0</ele><time>2026-04-18T11:47:28.989Z</time></trkpt><trkpt lat="16.2306658" lon="-61.4570077"><ele>84.0</ele><time>2026-04-18T11:47:29.98Z</time></trkpt><trkpt lat="16.2305924" lon="-61.4570806"><ele>84.0</ele><time>2026-04-18T11:47:30.994Z</time></trkpt><trkpt lat="16.2305198" lon="-61.4571508"><ele>84.0</ele><time>2026-04-18T11:47:31.982Z</time></trkpt><trkpt lat="16.2304455" lon="-61.4572154"><ele>84.0</ele><time>2026-04-18T11:47:32.995Z</time></trkpt><trkpt lat="16.2303564" lon="-61.4572497"><ele>84.4</ele><time>2026-04-18T11:47:33.991Z</time></trkpt><trkpt lat="16.2302613" lon="-61.4572532"><ele>84.80000000000001</ele><time>2026-04-18T11:47:34.995Z</time></trkpt><trkpt lat="16.2301698" lon="-61.4572331"><ele>85.19999999999999</ele><time>2026-04-18T11:47:35.988Z</time></trkpt><trkpt lat="16.2300778" lon="-61.4572039"><ele>85.6</ele><time>2026-04-18T11:47:36.991Z</time></trkpt><trkpt lat="16.2299729" lon="-61.4571711"><ele>86.0</ele><time>2026-04-18T11:47:37.998Z</time></trkpt><trkpt lat="16.2298594" lon="-61.4571434"><ele>84.5</ele><time>2026-04-18T11:47:38.989Z</time></trkpt><trkpt lat="16.2297418" lon="-61.4571194"><ele>83.0</ele><time>2026-04-18T11:47:39.992Z</time></trkpt><trkpt lat="16.2296317" lon="-61.4571097"><ele>81.5</ele><time>2026-04-18T11:47:40.989Z</time></trkpt><trkpt lat="16.2295233" lon="-61.4571232"><ele>80.0</ele><time>2026-04-18T11:47:41.988Z</time></trkpt><trkpt lat="16.2294068" lon="-61.4571208"><ele>80.0</ele><time>2026-04-18T11:47:42.993Z</time></trkpt><trkpt lat="16.229285" lon="-61.4571071"><ele>80.0</ele><time>2026-04-18T11:47:43.993Z</time></trkpt><trkpt lat="16.2291611" lon="-61.4570932"><ele>80.0</ele><time>2026-04-18T11:47:44.979Z</time></trkpt><trkpt lat="16.2290337" lon="-61.4570643"><ele>80.0</ele><time>2026-04-18T11:47:45.99Z</time></trkpt><trkpt lat="16.2289032" lon="-61.4570409"><ele>76.25</ele><time>2026-04-18T11:47:46.997Z</time></trkpt><trkpt lat="16.2287688" lon="-61.4570257"><ele>72.5</ele><time>2026-04-18T11:47:47.987Z</time></trkpt><trkpt lat="16.2286393" lon="-61.4570123"><ele>68.75</ele><time>2026-04-18T11:47:48.971Z</time></trkpt><trkpt lat="16.2285201" lon="-61.4569957"><ele>65.0</ele><time>2026-04-18T11:47:49.956Z</time></trkpt><trkpt lat="16.2283968" lon="-61.456979"><ele>65.0</ele><time>2026-04-18T11:47:50.977Z</time></trkpt><trkpt lat="16.2282688" lon="-61.4569774"><ele>65.0</ele><time>2026-04-18T11:47:51.982Z</time></trkpt><trkpt lat="16.2281393" lon="-61.4569843"><ele>65.0</ele><time>2026-04-18T11:47:53.049Z</time></trkpt><trkpt lat="16.2280141" lon="-61.4569851"><ele>65.0</ele><time>2026-04-18T11:47:53.982Z</time></trkpt><trkpt lat="16.2278862" lon="-61.4569896"><ele>62.25</ele><time>2026-04-18T11:47:54.982Z</time></trkpt><trkpt lat="16.2277667" lon="-61.4569885"><ele>59.5</ele><time>2026-04-18T11:47:55.974Z</time></trkpt><trkpt lat="16.2276491" lon="-61.4569938"><ele>56.75</ele><time>2026-04-18T11:47:56.98Z</time></trkpt><trkpt lat="16.2275375" lon="-61.4570043"><ele>54.0</ele><time>2026-04-18T11:47:57.982Z</time></trkpt><trkpt lat="16.2274245" lon="-61.4570229"><ele>53.25</ele><time>2026-04-18T11:47:58.975Z</time></trkpt><trkpt lat="16.2273098" lon="-61.457036"><ele>52.5</ele><time>2026-04-18T11:47:59.975Z</time></trkpt><trkpt lat="16.2271893" lon="-61.4570429"><ele>51.75</ele><time>2026-04-18T11:48:00.982Z</time></trkpt><trkpt lat="16.2270578" lon="-61.4570341"><ele>51.0</ele><time>2026-04-18T11:48:01.999Z</time></trkpt><trkpt lat="16.2269395" lon="-61.4570185"><ele>51.0</ele><time>2026-04-18T11:48:02.977Z</time></trkpt><trkpt lat="16.2268194" lon="-61.4569902"><ele>51.0</ele><time>2026-04-18T11:48:03.975Z</time></trkpt><trkpt lat="16.2267082" lon="-61.45696"><ele>51.0</ele><time>2026-04-18T11:48:04.979Z</time></trkpt><trkpt lat="16.226596" lon="-61.4569441"><ele>51.0</ele><time>2026-04-18T11:48:05.973Z</time></trkpt><trkpt lat="16.2264701" lon="-61.4569397"><ele>48.75</ele><time>2026-04-18T11:48:06.981Z</time></trkpt><trkpt lat="16.2263473" lon="-61.4569289"><ele>46.5</ele><time>2026-04-18T11:48:07.977Z</time></trkpt><trkpt lat="16.226233" lon="-61.4569165"><ele>44.25</ele><time>2026-04-18T11:48:08.976Z</time></trkpt><trkpt lat="16.2261185" lon="-61.4569103"><ele>42.0</ele><time>2026-04-18T11:48:10.05Z</time></trkpt><trkpt lat="16.2260156" lon="-61.4568897"><ele>42.0</ele><time>2026-04-18T11:48:11.027Z</time></trkpt><trkpt lat="16.2259029" lon="-61.4568557"><ele>42.0</ele><time>2026-04-18T11:48:12.034Z</time></trkpt><trkpt lat="16.2258051" lon="-61.4567994"><ele>42.0</ele><time>2026-04-18T11:48:12.973Z</time></trkpt><trkpt lat="16.2257102" lon="-61.4567336"><ele>42.0</ele><time>2026-04-18T11:48:13.975Z</time></trkpt><trkpt lat="16.2256165" lon="-61.4566489"><ele>44.0</ele><time>2026-04-18T11:48:14.953Z</time></trkpt><trkpt lat="16.2255237" lon="-61.4565544"><ele>46.0</ele><time>2026-04-18T11:48:16.065Z</time></trkpt><trkpt lat="16.2254375" lon="-61.4564601"><ele>48.0</ele><time>2026-04-18T11:48:17.057Z</time></trkpt><trkpt lat="16.2253515" lon="-61.456366"><ele>50.0</ele><time>2026-04-18T11:48:18.029Z</time></trkpt><trkpt lat="16.225258" lon="-61.4562691"><ele>45.75</ele><time>2026-04-18T11:48:18.975Z</time></trkpt><trkpt lat="16.2251683" lon="-61.4561705"><ele>41.5</ele><time>2026-04-18T11:48:19.986Z</time></trkpt><trkpt lat="16.2250786" lon="-61.4560511"><ele>37.25</ele><time>2026-04-18T11:48:20.983Z</time></trkpt><trkpt lat="16.2249759" lon="-61.455935"><ele>33.0</ele><time>2026-04-18T11:48:21.98Z</time></trkpt><trkpt lat="16.2248611" lon="-61.455825"><ele>33.333333333333336</ele><time>2026-04-18T11:48:22.987Z</time></trkpt><trkpt lat="16.2247324" lon="-61.455725"><ele>33.66666666666667</ele><time>2026-04-18T11:48:23.976Z</time></trkpt><trkpt lat="16.2245873" lon="-61.455638"><ele>34.0</ele><time>2026-04-18T11:48:25.05Z</time></trkpt><trkpt lat="16.2244338" lon="-61.4555618"><ele>34.0</ele><time>2026-04-18T11:48:26.024Z</time></trkpt><trkpt lat="16.2242785" lon="-61.4554987"><ele>34.0</ele><time>2026-04-18T11:48:27.043Z</time></trkpt><trkpt lat="16.2241316" lon="-61.4554471"><ele>34.0</ele><time>2026-04-18T11:48:27.979Z</time></trkpt><trkpt lat="16.2239814" lon="-61.4553857"><ele>33.75</ele><time>2026-04-18T11:48:28.989Z</time></trkpt><trkpt lat="16.2238324" lon="-61.4553386"><ele>33.5</ele><time>2026-04-18T11:48:29.994Z</time></trkpt><trkpt lat="16.2237184" lon="-61.4553039"><ele>33.25</ele><time>2026-04-18T11:48:30.983Z</time></trkpt><trkpt lat="16.2236272" lon="-61.4552658"><ele>33.0</ele><time>2026-04-18T11:48:31.98Z</time></trkpt><trkpt lat="16.2235479" lon="-61.4552505"><ele>33.0</ele><time>2026-04-18T11:48:33.035Z</time></trkpt><trkpt lat="16.2234758" lon="-61.4552695"><ele>33.0</ele><time>2026-04-18T11:48:33.976Z</time></trkpt><trkpt lat="16.2234086" lon="-61.4553014"><ele>33.0</ele><time>2026-04-18T11:48:34.986Z</time></trkpt><trkpt lat="16.2233329" lon="-61.4553543"><ele>33.0</ele><time>2026-04-18T11:48:35.972Z</time></trkpt><trkpt lat="16.2232503" lon="-61.4554381"><ele>33.0</ele><time>2026-04-18T11:48:36.992Z</time></trkpt><trkpt lat="16.2231615" lon="-61.4555382"><ele>34.25</ele><time>2026-04-18T11:48:37.976Z</time></trkpt><trkpt lat="16.2230789" lon="-61.455647"><ele>35.5</ele><time>2026-04-18T11:48:38.987Z</time></trkpt><trkpt lat="16.2230099" lon="-61.4557515"><ele>36.75</ele><time>2026-04-18T11:48:39.957Z</time></trkpt><trkpt lat="16.2229336" lon="-61.4558333"><ele>38.0</ele><time>2026-04-18T11:48:40.987Z</time></trkpt><trkpt lat="16.2228627" lon="-61.4559078"><ele>38.0</ele><time>2026-04-18T11:48:41.991Z</time></trkpt><trkpt lat="16.2227846" lon="-61.4559564"><ele>38.0</ele><time>2026-04-18T11:48:42.986Z</time></trkpt><trkpt lat="16.2227128" lon="-61.4559841"><ele>38.0</ele><time>2026-04-18T11:48:43.978Z</time></trkpt><trkpt lat="16.2226489" lon="-61.4559696"><ele>38.0</ele><time>2026-04-18T11:48:44.989Z</time></trkpt><trkpt lat="16.2225804" lon="-61.4559505"><ele>38.0</ele><time>2026-04-18T11:48:45.978Z</time></trkpt><trkpt lat="16.2225137" lon="-61.4559139"><ele>38.0</ele><time>2026-04-18T11:48:46.981Z</time></trkpt><trkpt lat="16.2224418" lon="-61.4558493"><ele>38.0</ele><time>2026-04-18T11:48:47.985Z</time></trkpt><trkpt lat="16.2223613" lon="-61.4557347"><ele>38.0</ele><time>2026-04-18T11:48:48.984Z</time></trkpt><trkpt lat="16.22225" lon="-61.4556187"><ele>38.0</ele><time>2026-04-18T11:48:49.955Z</time></trkpt><trkpt lat="16.2221351" lon="-61.4555132"><ele>38.0</ele><time>2026-04-18T11:48:51.02Z</time></trkpt><trkpt lat="16.2220406" lon="-61.4554094"><ele>39.0</ele><time>2026-04-18T11:48:52.024Z</time></trkpt><trkpt lat="16.2219448" lon="-61.4552868"><ele>40.0</ele><time>2026-04-18T11:48:53.042Z</time></trkpt><trkpt lat="16.2218312" lon="-61.4551918"><ele>41.0</ele><time>2026-04-18T11:48:53.98Z</time></trkpt><trkpt lat="16.2217136" lon="-61.4550862"><ele>41.0</ele><time>2026-04-18T11:48:54.986Z</time></trkpt><trkpt lat="16.2216378" lon="-61.4549479"><ele>41.0</ele><time>2026-04-18T11:48:55.97Z</time></trkpt><trkpt lat="16.2215518" lon="-61.4548187"><ele>41.0</ele><time>2026-04-18T11:48:57.051Z</time></trkpt><trkpt lat="16.2214687" lon="-61.4546974"><ele>41.0</ele><time>2026-04-18T11:48:58.027Z</time></trkpt><trkpt lat="16.2213486" lon="-61.4546083"><ele>44.0</ele><time>2026-04-18T11:48:58.964Z</time></trkpt><trkpt lat="16.2212164" lon="-61.4545454"><ele>47.0</ele><time>2026-04-18T11:49:00.034Z</time></trkpt><trkpt lat="16.2210645" lon="-61.4545057"><ele>50.0</ele><time>2026-04-18T11:49:00.985Z</time></trkpt><trkpt lat="16.2209051" lon="-61.4544575"><ele>50.0</ele><time>2026-04-18T11:49:01.987Z</time></trkpt><trkpt lat="16.2207468" lon="-61.4544148"><ele>50.0</ele><time>2026-04-18T11:49:02.978Z</time></trkpt><trkpt lat="16.220591" lon="-61.4543536"><ele>50.0</ele><time>2026-04-18T11:49:03.977Z</time></trkpt><trkpt lat="16.2204396" lon="-61.4542838"><ele>51.0</ele><time>2026-04-18T11:49:04.98Z</time></trkpt><trkpt lat="16.2203192" lon="-61.4541766"><ele>52.0</ele><time>2026-04-18T11:49:05.956Z</time></trkpt><trkpt lat="16.220189" lon="-61.4540493"><ele>53.0</ele><time>2026-04-18T11:49:06.962Z</time></trkpt><trkpt lat="16.2200702" lon="-61.453899"><ele>54.333333333333336</ele><time>2026-04-18T11:49:07.985Z</time></trkpt><trkpt lat="16.219958" lon="-61.4537201"><ele>55.66666666666667</ele><time>2026-04-18T11:49:08.974Z</time></trkpt><trkpt lat="16.2198167" lon="-61.4535458"><ele>57.0</ele><time>2026-04-18T11:49:09.986Z</time></trkpt><trkpt lat="16.2196874" lon="-61.4533858"><ele>57.0</ele><time>2026-04-18T11:49:10.968Z</time></trkpt><trkpt lat="16.2195669" lon="-61.4532541"><ele>57.0</ele><time>2026-04-18T11:49:11.97Z</time></trkpt><trkpt lat="16.219453" lon="-61.4531402"><ele>57.0</ele><time>2026-04-18T11:49:12.993Z</time></trkpt><trkpt lat="16.2193546" lon="-61.4530718"><ele>57.0</ele><time>2026-04-18T11:49:13.985Z</time></trkpt><trkpt lat="16.2192565" lon="-61.4530548"><ele>57.0</ele><time>2026-04-18T11:49:14.987Z</time></trkpt><trkpt lat="16.2191528" lon="-61.453079"><ele>57.0</ele><time>2026-04-18T11:49:15.974Z</time></trkpt><trkpt lat="16.2190525" lon="-61.4531205"><ele>57.0</ele><time>2026-04-18T11:49:16.975Z</time></trkpt><trkpt lat="16.2189434" lon="-61.4531609"><ele>57.0</ele><time>2026-04-18T11:49:17.987Z</time></trkpt><trkpt lat="16.2188294" lon="-61.4532117"><ele>59.0</ele><time>2026-04-18T11:49:18.977Z</time></trkpt><trkpt lat="16.2187141" lon="-61.4532691"><ele>61.0</ele><time>2026-04-18T11:49:19.987Z</time></trkpt><trkpt lat="16.2185855" lon="-61.4533075"><ele>63.0</ele><time>2026-04-18T11:49:20.978Z</time></trkpt><trkpt lat="16.2184646" lon="-61.4533417"><ele>65.0</ele><time>2026-04-18T11:49:21.988Z</time></trkpt><trkpt lat="16.2183526" lon="-61.4533657"><ele>65.0</ele><time>2026-04-18T11:49:23.048Z</time></trkpt><trkpt lat="16.2182588" lon="-61.4533946"><ele>65.0</ele><time>2026-04-18T11:49:23.994Z</time></trkpt><trkpt lat="16.2181737" lon="-61.4534288"><ele>65.0</ele><time>2026-04-18T11:49:24.99Z</time></trkpt><trkpt lat="16.2180959" lon="-61.4534631"><ele>65.0</ele><time>2026-04-18T11:49:25.961Z</time></trkpt><trkpt lat="16.2180369" lon="-61.4535202"><ele>65.0</ele><time>2026-04-18T11:49:26.995Z</time></trkpt><trkpt lat="16.2179804" lon="-61.4535789"><ele>65.0</ele><time>2026-04-18T11:49:27.981Z</time></trkpt><trkpt lat="16.2179397" lon="-61.4536303"><ele>65.25</ele><time>2026-04-18T11:49:30.004Z</time></trkpt><trkpt lat="16.2178785" lon="-61.4535203"><ele>65.5</ele><time>2026-04-18T11:49:33.039Z</time></trkpt><trkpt lat="16.2178395" lon="-61.453403"><ele>65.75</ele><time>2026-04-18T11:49:33.98Z</time></trkpt><trkpt lat="16.2177678" lon="-61.4532557"><ele>66.0</ele><time>2026-04-18T11:49:34.989Z</time></trkpt><trkpt lat="16.2176884" lon="-61.4531143"><ele>66.0</ele><time>2026-04-18T11:49:35.987Z</time></trkpt><trkpt lat="16.2175815" lon="-61.4529898"><ele>66.0</ele><time>2026-04-18T11:49:36.996Z</time></trkpt><trkpt lat="16.2174531" lon="-61.4528704"><ele>66.0</ele><time>2026-04-18T11:49:37.987Z</time></trkpt><trkpt lat="16.2173248" lon="-61.4527461"><ele>67.5</ele><time>2026-04-18T11:49:38.985Z</time></trkpt><trkpt lat="16.2172093" lon="-61.4526421"><ele>69.0</ele><time>2026-04-18T11:49:39.964Z</time></trkpt><trkpt lat="16.2171082" lon="-61.4525628"><ele>70.5</ele><time>2026-04-18T11:49:41.034Z</time></trkpt><trkpt lat="16.2170116" lon="-61.4525045"><ele>72.0</ele><time>2026-04-18T11:49:42.048Z</time></trkpt><trkpt lat="16.2169393" lon="-61.4524627"><ele>72.00000000000001</ele><time>2026-04-18T11:49:43.038Z</time></trkpt><trkpt lat="16.2168881" lon="-61.452417"><ele>72.0</ele><time>2026-04-18T11:49:43.982Z</time></trkpt><trkpt lat="16.2168353" lon="-61.4523725"><ele>72.0</ele><time>2026-04-18T11:49:44.993Z</time></trkpt><trkpt lat="16.2167796" lon="-61.4523348"><ele>72.0</ele><time>2026-04-18T11:49:45.961Z</time></trkpt><trkpt lat="16.2167202" lon="-61.4522922"><ele>72.0</ele><time>2026-04-18T11:49:47.034Z</time></trkpt><trkpt lat="16.216654" lon="-61.4522424"><ele>72.00000000000001</ele><time>2026-04-18T11:49:48.03Z</time></trkpt><trkpt lat="16.2165929" lon="-61.4521875"><ele>72.0</ele><time>2026-04-18T11:49:48.987Z</time></trkpt><trkpt lat="16.2165294" lon="-61.4521206"><ele>71.42857142857143</ele><time>2026-04-18T11:49:49.992Z</time></trkpt><trkpt lat="16.2164781" lon="-61.452061"><ele>70.85714285714286</ele><time>2026-04-18T11:49:50.97Z</time></trkpt><trkpt lat="16.2164368" lon="-61.4520093"><ele>70.28571428571428</ele><time>2026-04-18T11:49:51.993Z</time></trkpt><trkpt lat="16.2163936" lon="-61.4519603"><ele>69.71428571428572</ele><time>2026-04-18T11:49:52.97Z</time></trkpt><trkpt lat="16.2163467" lon="-61.4519051"><ele>69.14285714285714</ele><time>2026-04-18T11:49:53.942Z</time></trkpt><trkpt lat="16.2163043" lon="-61.4518379"><ele>68.57142857142857</ele><time>2026-04-18T11:49:54.986Z</time></trkpt><trkpt lat="16.2162885" lon="-61.4517568"><ele>68.0</ele><time>2026-04-18T11:49:55.989Z</time></trkpt><trkpt lat="16.2162978" lon="-61.4516449"><ele>68.0</ele><time>2026-04-18T11:49:56.982Z</time></trkpt><trkpt lat="16.2163134" lon="-61.4515215"><ele>68.0</ele><time>2026-04-18T11:49:58.029Z</time></trkpt><trkpt lat="16.2163262" lon="-61.4514053"><ele>68.0</ele><time>2026-04-18T11:49:58.981Z</time></trkpt><trkpt lat="16.2163379" lon="-61.4512882"><ele>68.0</ele><time>2026-04-18T11:49:59.989Z</time></trkpt><trkpt lat="16.2163492" lon="-61.4511794"><ele>67.83333333333334</ele><time>2026-04-18T11:50:00.969Z</time></trkpt><trkpt lat="16.2163656" lon="-61.4510748"><ele>67.66666666666667</ele><time>2026-04-18T11:50:01.986Z</time></trkpt><trkpt lat="16.2163848" lon="-61.4509816"><ele>67.5</ele><time>2026-04-18T11:50:03.068Z</time></trkpt><trkpt lat="16.2164062" lon="-61.4509003"><ele>67.33333333333333</ele><time>2026-04-18T11:50:03.993Z</time></trkpt><trkpt lat="16.2164334" lon="-61.450822"><ele>67.16666666666666</ele><time>2026-04-18T11:50:05.013Z</time></trkpt><trkpt lat="16.2164762" lon="-61.4507532"><ele>67.0</ele><time>2026-04-18T11:50:05.988Z</time></trkpt><trkpt lat="16.2165119" lon="-61.450697"><ele>67.4</ele><time>2026-04-18T11:50:07.041Z</time></trkpt><trkpt lat="16.2165993" lon="-61.4506109"><ele>67.80000000000001</ele><time>2026-04-18T11:50:08.967Z</time></trkpt><trkpt lat="16.216696" lon="-61.4505327"><ele>68.2</ele><time>2026-04-18T11:50:11.005Z</time></trkpt><trkpt lat="16.2167962" lon="-61.4504657"><ele>68.60000000000001</ele><time>2026-04-18T11:50:13.019Z</time></trkpt><trkpt lat="16.2168546" lon="-61.4504205"><ele>69.0</ele><time>2026-04-18T11:50:13.995Z</time></trkpt><trkpt lat="16.2169134" lon="-61.4503692"><ele>69.0</ele><time>2026-04-18T11:50:15.038Z</time></trkpt><trkpt lat="16.2169729" lon="-61.4503184"><ele>69.0</ele><time>2026-04-18T11:50:15.996Z</time></trkpt><trkpt lat="16.2170211" lon="-61.4502575"><ele>69.0</ele><time>2026-04-18T11:50:17.002Z</time></trkpt><trkpt lat="16.2170446" lon="-61.4501917"><ele>69.0</ele><time>2026-04-18T11:50:17.991Z</time></trkpt><trkpt lat="16.2170613" lon="-61.4501202"><ele>69.0</ele><time>2026-04-18T11:50:18.967Z</time></trkpt><trkpt lat="16.2170562" lon="-61.4500316"><ele>69.0</ele><time>2026-04-18T11:50:19.978Z</time></trkpt><trkpt lat="16.2170432" lon="-61.4499447"><ele>69.0</ele><time>2026-04-18T11:50:20.996Z</time></trkpt><trkpt lat="16.2170257" lon="-61.4498591"><ele>69.0</ele><time>2026-04-18T11:50:22.053Z</time></trkpt><trkpt lat="16.217002" lon="-61.4497726"><ele>69.0</ele><time>2026-04-18T11:50:23.064Z</time></trkpt><trkpt lat="16.2169823" lon="-61.449685"><ele>69.0</ele><time>2026-04-18T11:50:23.984Z</time></trkpt><trkpt lat="16.216968" lon="-61.4496032"><ele>69.0</ele><time>2026-04-18T11:50:24.995Z</time></trkpt><trkpt lat="16.2169573" lon="-61.4495159"><ele>69.0</ele><time>2026-04-18T11:50:25.981Z</time></trkpt><trkpt lat="16.2169613" lon="-61.4494254"><ele>70.33333333333333</ele><time>2026-04-18T11:50:26.986Z</time></trkpt><trkpt lat="16.2169766" lon="-61.4493327"><ele>71.66666666666667</ele><time>2026-04-18T11:50:27.995Z</time></trkpt><trkpt lat="16.2169918" lon="-61.4492394"><ele>73.0</ele><time>2026-04-18T11:50:28.986Z</time></trkpt><trkpt lat="16.2170139" lon="-61.449152"><ele>74.33333333333334</ele><time>2026-04-18T11:50:30.042Z</time></trkpt><trkpt lat="16.2170397" lon="-61.4490769"><ele>75.66666666666667</ele><time>2026-04-18T11:50:30.972Z</time></trkpt><trkpt lat="16.2170621" lon="-61.4490007"><ele>77.0</ele><time>2026-04-18T11:50:31.989Z</time></trkpt><trkpt lat="16.2170828" lon="-61.4489204"><ele>77.0</ele><time>2026-04-18T11:50:33.049Z</time></trkpt><trkpt lat="16.2171035" lon="-61.4488369"><ele>77.0</ele><time>2026-04-18T11:50:33.979Z</time></trkpt><trkpt lat="16.2171133" lon="-61.4487574"><ele>77.0</ele><time>2026-04-18T11:50:34.987Z</time></trkpt><trkpt lat="16.217122" lon="-61.4486663"><ele>77.0</ele><time>2026-04-18T11:50:36Z</time></trkpt><trkpt lat="16.2171276" lon="-61.4485835"><ele>77.0</ele><time>2026-04-18T11:50:37.041Z</time></trkpt><trkpt lat="16.2171326" lon="-61.4484968"><ele>77.0</ele><time>2026-04-18T11:50:38.029Z</time></trkpt><trkpt lat="16.2171353" lon="-61.4484015"><ele>75.6</ele><time>2026-04-18T11:50:38.985Z</time></trkpt><trkpt lat="16.2171322" lon="-61.4483087"><ele>74.2</ele><time>2026-04-18T11:50:39.999Z</time></trkpt><trkpt lat="16.2171374" lon="-61.448217"><ele>72.8</ele><time>2026-04-18T11:50:41.006Z</time></trkpt><trkpt lat="16.2171653" lon="-61.4481279"><ele>71.4</ele><time>2026-04-18T11:50:41.984Z</time></trkpt><trkpt lat="16.2172032" lon="-61.4480151"><ele>70.0</ele><time>2026-04-18T11:50:42.993Z</time></trkpt><trkpt lat="16.2172417" lon="-61.4478767"><ele>70.0</ele><time>2026-04-18T11:50:44.001Z</time></trkpt><trkpt lat="16.2172828" lon="-61.447699"><ele>70.0</ele><time>2026-04-18T11:50:44.996Z</time></trkpt><trkpt lat="16.2173424" lon="-61.4475045"><ele>70.0</ele><time>2026-04-18T11:50:45.978Z</time></trkpt><trkpt lat="16.217396" lon="-61.4473348"><ele>70.0</ele><time>2026-04-18T11:50:46.961Z</time></trkpt><trkpt lat="16.2174393" lon="-61.4471725"><ele>70.0</ele><time>2026-04-18T11:50:48.073Z</time></trkpt><trkpt lat="16.2174776" lon="-61.4470177"><ele>70.0</ele><time>2026-04-18T11:50:48.985Z</time></trkpt><trkpt lat="16.2175069" lon="-61.4468615"><ele>70.0</ele><time>2026-04-18T11:50:49.986Z</time></trkpt><trkpt lat="16.2175116" lon="-61.4467014"><ele>70.0</ele><time>2026-04-18T11:50:50.992Z</time></trkpt><trkpt lat="16.2174968" lon="-61.4465723"><ele>70.0</ele><time>2026-04-18T11:50:51.978Z</time></trkpt><trkpt lat="16.2174596" lon="-61.4464356"><ele>70.0</ele><time>2026-04-18T11:50:52.985Z</time></trkpt><trkpt lat="16.2173984" lon="-61.4463131"><ele>69.75</ele><time>2026-04-18T11:50:53.984Z</time></trkpt><trkpt lat="16.2173187" lon="-61.4461988"><ele>69.5</ele><time>2026-04-18T11:50:54.987Z</time></trkpt><trkpt lat="16.2172257" lon="-61.4461009"><ele>69.25</ele><time>2026-04-18T11:50:55.987Z</time></trkpt><trkpt lat="16.2171166" lon="-61.4460093"><ele>69.0</ele><time>2026-04-18T11:50:57.055Z</time></trkpt><trkpt lat="16.2169973" lon="-61.4459272"><ele>69.0</ele><time>2026-04-18T11:50:57.97Z</time></trkpt><trkpt lat="16.2168663" lon="-61.4458507"><ele>69.0</ele><time>2026-04-18T11:50:58.977Z</time></trkpt><trkpt lat="16.2167264" lon="-61.4457715"><ele>69.0</ele><time>2026-04-18T11:50:59.978Z</time></trkpt><trkpt lat="16.2165826" lon="-61.4456855"><ele>66.66666666666667</ele><time>2026-04-18T11:51:00.983Z</time></trkpt><trkpt lat="16.2164459" lon="-61.4456083"><ele>64.33333333333334</ele><time>2026-04-18T11:51:01.992Z</time></trkpt><trkpt lat="16.2163147" lon="-61.4455288"><ele>62.0</ele><time>2026-04-18T11:51:03.034Z</time></trkpt><trkpt lat="16.2162035" lon="-61.4454348"><ele>62.0</ele><time>2026-04-18T11:51:03.98Z</time></trkpt><trkpt lat="16.2161075" lon="-61.4453248"><ele>62.0</ele><time>2026-04-18T11:51:05.003Z</time></trkpt><trkpt lat="16.2160431" lon="-61.4452212"><ele>62.0</ele><time>2026-04-18T11:51:05.98Z</time></trkpt><trkpt lat="16.216033" lon="-61.4450918"><ele>62.0</ele><time>2026-04-18T11:51:06.955Z</time></trkpt><trkpt lat="16.2160501" lon="-61.4449339"><ele>62.0</ele><time>2026-04-18T11:51:07.996Z</time></trkpt><trkpt lat="16.2160906" lon="-61.4447733"><ele>62.0</ele><time>2026-04-18T11:51:08.983Z</time></trkpt><trkpt lat="16.216119" lon="-61.4446062"><ele>62.0</ele><time>2026-04-18T11:51:09.996Z</time></trkpt><trkpt lat="16.2161548" lon="-61.4444348"><ele>61.0</ele><time>2026-04-18T11:51:10.999Z</time></trkpt><trkpt lat="16.2162" lon="-61.4442687"><ele>60.0</ele><time>2026-04-18T11:51:12.003Z</time></trkpt><trkpt lat="16.2162393" lon="-61.4441212"><ele>59.0</ele><time>2026-04-18T11:51:12.989Z</time></trkpt><trkpt lat="16.2162857" lon="-61.4440017"><ele>58.0</ele><time>2026-04-18T11:51:13.993Z</time></trkpt><trkpt lat="16.2163161" lon="-61.4438904"><ele>57.83333333333333</ele><time>2026-04-18T11:51:14.995Z</time></trkpt><trkpt lat="16.2163442" lon="-61.4437799"><ele>57.666666666666664</ele><time>2026-04-18T11:51:15.993Z</time></trkpt><trkpt lat="16.216368" lon="-61.4436892"><ele>57.5</ele><time>2026-04-18T11:51:17.034Z</time></trkpt><trkpt lat="16.2163763" lon="-61.4436043"><ele>57.33333333333333</ele><time>2026-04-18T11:51:17.98Z</time></trkpt><trkpt lat="16.2163805" lon="-61.4435264"><ele>57.166666666666664</ele><time>2026-04-18T11:51:18.988Z</time></trkpt><trkpt lat="16.2163755" lon="-61.4434531"><ele>57.0</ele><time>2026-04-18T11:51:19.995Z</time></trkpt><trkpt lat="16.2163593" lon="-61.4433845"><ele>57.0</ele><time>2026-04-18T11:51:21.062Z</time></trkpt><trkpt lat="16.2163089" lon="-61.4432602"><ele>57.0</ele><time>2026-04-18T11:51:23.064Z</time></trkpt><trkpt lat="16.2162337" lon="-61.4431704"><ele>57.0</ele><time>2026-04-18T11:51:25Z</time></trkpt><trkpt lat="16.2161689" lon="-61.4431043"><ele>57.0</ele><time>2026-04-18T11:51:27.075Z</time></trkpt><trkpt lat="16.2160921" lon="-61.4431043"><ele>57.0</ele><time>2026-04-18T11:51:33.969Z</time></trkpt><trkpt lat="16.2160762" lon="-61.4431739"><ele>57.0</ele><time>2026-04-18T11:51:36.034Z</time></trkpt><trkpt lat="16.2160724" lon="-61.4432396"><ele>57.0</ele><time>2026-04-18T11:51:37.056Z</time></trkpt><trkpt lat="16.2160628" lon="-61.4433679"><ele>57.0</ele><time>2026-04-18T11:51:38.989Z</time></trkpt><trkpt lat="16.2160457" lon="-61.4434996"><ele>57.0</ele><time>2026-04-18T11:51:40.993Z</time></trkpt><trkpt lat="16.2160282" lon="-61.4435723"><ele>57.0</ele><time>2026-04-18T11:51:42.006Z</time></trkpt><trkpt lat="16.2160017" lon="-61.44365"><ele>57.0</ele><time>2026-04-18T11:51:43.015Z</time></trkpt><trkpt lat="16.2159587" lon="-61.4437313"><ele>57.0</ele><time>2026-04-18T11:51:43.99Z</time></trkpt><trkpt lat="16.2159184" lon="-61.4438073"><ele>57.0</ele><time>2026-04-18T11:51:44.985Z</time></trkpt><trkpt lat="16.215873" lon="-61.4438759"><ele>57.0</ele><time>2026-04-18T11:51:45.995Z</time></trkpt><trkpt lat="16.2157945" lon="-61.4439636"><ele>57.0</ele><time>2026-04-18T11:51:47.993Z</time></trkpt><trkpt lat="16.2157121" lon="-61.4440543"><ele>56.25</ele><time>2026-04-18T11:51:49.991Z</time></trkpt><trkpt lat="16.2156151" lon="-61.4441216"><ele>55.5</ele><time>2026-04-18T11:51:52.068Z</time></trkpt><trkpt lat="16.2155269" lon="-61.4441613"><ele>54.75</ele><time>2026-04-18T11:51:53.993Z</time></trkpt><trkpt lat="16.2154317" lon="-61.4441641"><ele>54.0</ele><time>2026-04-18T11:51:55.981Z</time></trkpt><trkpt lat="16.2152872" lon="-61.4441514"><ele>54.0</ele><time>2026-04-18T11:51:58.001Z</time></trkpt><trkpt lat="16.2151617" lon="-61.4441197"><ele>54.0</ele><time>2026-04-18T11:51:58.993Z</time></trkpt><trkpt lat="16.2150255" lon="-61.4440808"><ele>54.0</ele><time>2026-04-18T11:52:00.076Z</time></trkpt><trkpt lat="16.2149032" lon="-61.4440464"><ele>54.0</ele><time>2026-04-18T11:52:01.067Z</time></trkpt><trkpt lat="16.2147981" lon="-61.4440339"><ele>54.25</ele><time>2026-04-18T11:52:01.99Z</time></trkpt><trkpt lat="16.2146841" lon="-61.4440522"><ele>54.5</ele><time>2026-04-18T11:52:02.987Z</time></trkpt><trkpt lat="16.2145603" lon="-61.4440631"><ele>54.75</ele><time>2026-04-18T11:52:03.986Z</time></trkpt><trkpt lat="16.2144365" lon="-61.4440685"><ele>55.0</ele><time>2026-04-18T11:52:04.985Z</time></trkpt><trkpt lat="16.2143186" lon="-61.4440562"><ele>55.0</ele><time>2026-04-18T11:52:05.99Z</time></trkpt><trkpt lat="16.2142052" lon="-61.4440186"><ele>55.0</ele><time>2026-04-18T11:52:06.986Z</time></trkpt><trkpt lat="16.2141002" lon="-61.4439823"><ele>55.0</ele><time>2026-04-18T11:52:07.983Z</time></trkpt><trkpt lat="16.2140039" lon="-61.4439457"><ele>55.0</ele><time>2026-04-18T11:52:08.989Z</time></trkpt><trkpt lat="16.2138886" lon="-61.4439092"><ele>54.75</ele><time>2026-04-18T11:52:09.988Z</time></trkpt><trkpt lat="16.2137537" lon="-61.4438683"><ele>54.5</ele><time>2026-04-18T11:52:10.979Z</time></trkpt><trkpt lat="16.2136194" lon="-61.4438302"><ele>54.25</ele><time>2026-04-18T11:52:11.978Z</time></trkpt><trkpt lat="16.2134969" lon="-61.4437934"><ele>54.0</ele><time>2026-04-18T11:52:13.049Z</time></trkpt><trkpt lat="16.2133801" lon="-61.4437662"><ele>56.0</ele><time>2026-04-18T11:52:13.982Z</time></trkpt><trkpt lat="16.2132673" lon="-61.4437432"><ele>58.0</ele><time>2026-04-18T11:52:14.995Z</time></trkpt><trkpt lat="16.2131486" lon="-61.4437417"><ele>60.0</ele><time>2026-04-18T11:52:15.975Z</time></trkpt><trkpt lat="16.2130195" lon="-61.4437601"><ele>62.0</ele><time>2026-04-18T11:52:17.066Z</time></trkpt><trkpt lat="16.2128832" lon="-61.4437724"><ele>60.75</ele><time>2026-04-18T11:52:18.04Z</time></trkpt><trkpt lat="16.2127444" lon="-61.4438034"><ele>59.5</ele><time>2026-04-18T11:52:18.983Z</time></trkpt><trkpt lat="16.2126179" lon="-61.4438383"><ele>58.25</ele><time>2026-04-18T11:52:20.003Z</time></trkpt><trkpt lat="16.2125002" lon="-61.443893"><ele>57.0</ele><time>2026-04-18T11:52:20.984Z</time></trkpt><trkpt lat="16.2123948" lon="-61.4439596"><ele>56.75</ele><time>2026-04-18T11:52:21.997Z</time></trkpt><trkpt lat="16.2122831" lon="-61.4440316"><ele>56.5</ele><time>2026-04-18T11:52:22.994Z</time></trkpt><trkpt lat="16.2121711" lon="-61.444104"><ele>56.25</ele><time>2026-04-18T11:52:24Z</time></trkpt><trkpt lat="16.2120661" lon="-61.4441765"><ele>56.0</ele><time>2026-04-18T11:52:24.995Z</time></trkpt><trkpt lat="16.2119767" lon="-61.444258"><ele>56.0</ele><time>2026-04-18T11:52:25.994Z</time></trkpt><trkpt lat="16.2118947" lon="-61.4443441"><ele>56.0</ele><time>2026-04-18T11:52:27.062Z</time></trkpt><trkpt lat="16.2118272" lon="-61.4444408"><ele>56.0</ele><time>2026-04-18T11:52:27.993Z</time></trkpt><trkpt lat="16.2117565" lon="-61.4445355"><ele>56.0</ele><time>2026-04-18T11:52:29.002Z</time></trkpt><trkpt lat="16.2116666" lon="-61.4446172"><ele>55.0</ele><time>2026-04-18T11:52:29.977Z</time></trkpt><trkpt lat="16.2115685" lon="-61.4446736"><ele>53.99999999999999</ele><time>2026-04-18T11:52:30.958Z</time></trkpt><trkpt lat="16.2114642" lon="-61.444721"><ele>53.0</ele><time>2026-04-18T11:52:31.991Z</time></trkpt><trkpt lat="16.2113664" lon="-61.4447565"><ele>52.0</ele><time>2026-04-18T11:52:33.024Z</time></trkpt><trkpt lat="16.2112768" lon="-61.4447905"><ele>51.0</ele><time>2026-04-18T11:52:33.963Z</time></trkpt><trkpt lat="16.2112065" lon="-61.4448288"><ele>51.0</ele><time>2026-04-18T11:52:34.978Z</time></trkpt><trkpt lat="16.2111404" lon="-61.4449002"><ele>51.0</ele><time>2026-04-18T11:52:36.982Z</time></trkpt><trkpt lat="16.2111711" lon="-61.4449659"><ele>51.0</ele><time>2026-04-18T11:52:38.971Z</time></trkpt><trkpt lat="16.2111958" lon="-61.4450329"><ele>51.0</ele><time>2026-04-18T11:52:41.969Z</time></trkpt><trkpt lat="16.2112618" lon="-61.4450145"><ele>51.0</ele><time>2026-04-18T11:53:30.993Z</time></trkpt><trkpt lat="16.2113081" lon="-61.4449516"><ele>51.0</ele><time>2026-04-18T11:53:34.988Z</time></trkpt><trkpt lat="16.2114468" lon="-61.4448945"><ele>51.0</ele><time>2026-04-18T11:53:45.974Z</time></trkpt><trkpt lat="16.2114932" lon="-61.4447875"><ele>51.0</ele><time>2026-04-18T11:53:49.974Z</time></trkpt><trkpt lat="16.2113183" lon="-61.4449157"><ele>51.0</ele><time>2026-04-18T11:54:20.655Z</time></trkpt><trkpt lat="16.2110565" lon="-61.4462017"><ele>12.0</ele><time>2026-04-18T11:55:56.706Z</time></trkpt><trkpt lat="16.2087014" lon="-61.4467108"><ele>51.0</ele><time>2026-04-18T11:56:06.403Z</time></trkpt><trkpt lat="16.2113186" lon="-61.4449165"><ele>12.0</ele><time>2026-04-18T11:56:44.701Z</time></trkpt><trkpt lat="16.2087049" lon="-61.4467095"><ele>51.0</ele><time>2026-04-18T11:57:13.612Z</time></trkpt><trkpt lat="16.2113183" lon="-61.4449157"><ele>12.0</ele><time>2026-04-18T11:57:42.489Z</time></trkpt><trkpt lat="16.2087014" lon="-61.4467108"><ele>51.0</ele><time>2026-04-18T11:57:57.714Z</time></trkpt><trkpt lat="16.2113183" lon="-61.4449157"><ele>47.0</ele><time>2026-04-18T11:58:17.099Z</time></trkpt><trkpt lat="16.2121489" lon="-61.4449952"><ele>51.0</ele><time>2026-04-18T11:58:59.945Z</time></trkpt><trkpt lat="16.2114797" lon="-61.4449577"><ele>51.0</ele><time>2026-04-18T11:59:00.948Z</time></trkpt><trkpt lat="16.2110352" lon="-61.444835"><ele>51.0</ele><time>2026-04-18T11:59:01.946Z</time></trkpt><trkpt lat="16.2109146" lon="-61.4445357"><ele>51.0</ele><time>2026-04-18T11:59:02.951Z</time></trkpt><trkpt lat="16.2112695" lon="-61.4446615"><ele>28.0</ele><time>2026-04-18T11:59:03.957Z</time></trkpt><trkpt lat="16.2113931" lon="-61.4455109"><ele>51.0</ele><time>2026-04-18T11:59:04.953Z</time></trkpt><trkpt lat="16.2113183" lon="-61.4449157"><ele>51.0</ele><time>2026-04-18T11:59:34.208Z</time></trkpt><trkpt lat="16.2110855" lon="-61.4448924"><ele>51.0</ele><time>2026-04-18T12:00:17.969Z</time></trkpt><trkpt lat="16.2110255" lon="-61.44486"><ele>51.0</ele><time>2026-04-18T12:00:23.951Z</time></trkpt><trkpt lat="16.211085" lon="-61.4448877"><ele>51.0</ele><time>2026-04-18T12:00:43.954Z</time></trkpt><trkpt lat="16.211124" lon="-61.4449551"><ele>51.0</ele><time>2026-04-18T12:01:10.976Z</time></trkpt></trkseg></trk></gpx>